GFSWCAN_sfc_dewp_000.txt.gz
Dewpoint
48 48 47 47 47 47 47 48 48 48 48 48 48 47 47 46 46 48 47 48 44 39 37 36 32 29 33 34 31 33 32 35 36 43 37 28 27 28 27 35 41 40 38 33 37 38 35 48 45 46 51 52 50 50
47 48 48 48 47 47 47 46 48 48 48 47 47 47 46 46 45 47 44 49 51 43 37 38 36 35 34 31 30 32 33 33 31 39 41 43 43 39 35 29 42 36 37 35 39 36 50 49 51 52 52 52 51 52
48 48 48 48 47 48 47 46 47 48 47 47 46 46 46 46 46 47 47 48 45 39 35 33 32 33 33 32 36 32 32 33 38 38 36 44 45 46 44 39 39 43 44 42 46 47 49 50 50 50 50 49 50 51
48 48 48 49 49 48 48 47 47 47 47 46 45 45 45 45 45 46 46 46 44 39 30 25 31 32 32 33 32 35 34 35 40 38 43 42 46 46 48 50 48 45 47 46 46 50 47 49 49 49 48 50 51 51
48 48 48 48 47 47 47 47 47 47 45 45 45 45 45 45 46 49 47 43 45 40 27 26 27 34 33 32 35 34 35 34 38 37 46 43 40 44 47 48 47 49 50 45 42 51 52 48 47 46 46 46 48 49
48 48 48 47 47 47 47 47 47 46 45 46 46 46 44 45 46 42 35 43 43 41 31 27 32 35 38 37 34 36 37 37 37 35 46 46 39 44 47 44 45 49 51 52 49 49 48 48 46 43 44 44 44 44
48 47 47 47 47 47 47 47 47 45 45 46 46 47 46 47 43 38 37 39 44 40 37 33 32 36 39 39 38 37 38 37 35 36 40 47 47 45 44 42 46 49 49 48 47 48 46 49 49 47 44 42 43 43
47 47 47 47 47 46 46 46 46 45 45 45 46 47 47 48 47 38 41 45 43 42 37 35 35 38 37 32 33 36 35 36 36 34 45 47 48 45 43 46 46 47 48 49 49 48 44 45 50 48 44 42 42 44
48 48 48 48 48 47 46 46 46 46 47 47 47 46 44 41 35 40 46 49 44 39 38 37 34 35 35 32 34 35 32 30 38 41 48 46 44 43 46 47 47 46 46 48 49 50 49 49 49 47 47 44 43 44
49 49 49 48 48 47 47 47 47 48 48 47 44 40 38 41 48 46 47 40 40 40 38 34 33 35 36 35 31 30 33 34 40 46 48 44 43 47 49 50 50 48 50 49 47 46 48 49 49 49 47 47 45 45
49 49 49 48 48 48 48 48 48 48 47 42 41 40 42 47 43 40 38 38 40 38 37 36 37 37 40 40 40 36 35 37 38 43 44 42 40 46 50 50 51 52 52 52 51 51 51 51 45 45 46 46 46 47
49 49 49 48 48 48 49 48 48 44 43 45 46 46 44 42 40 36 36 36 38 35 39 38 37 39 40 43 38 38 33 34 35 43 42 37 43 47 49 49 50 52 51 51 49 48 45 45 46 47 46 46 47 48
48 48 49 49 49 49 49 48 48 48 47 47 44 40 39 40 36 36 34 36 39 38 40 38 38 37 42 39 37 37 32 38 38 40 40 43 48 49 50 49 48 48 47 46 44 43 42 43 44 46 47 47 46 46
48 48 47 48 48 48 49 49 49 47 45 41 39 35 35 35 38 39 40 41 40 40 40 40 41 44 38 35 36 34 37 41 36 35 40 46 48 49 49 48 45 44 43 43 43 43 42 43 44 46 47 49 47 49
48 48 47 46 47 49 50 48 47 48 46 39 37 33 36 40 41 40 41 39 39 40 41 41 38 38 35 36 36 37 35 37 40 38 45 50 51 50 50 48 46 45 45 45 45 44 44 44 43 45 49 50 50 51
48 47 44 46 48 49 49 47 46 46 44 43 41 39 41 38 35 34 37 39 40 40 43 38 34 33 36 39 39 39 37 36 41 45 49 51 52 51 52 50 49 49 48 47 47 47 45 46 47 47 47 48 50 52
48 41 47 48 49 49 47 45 45 42 40 38 38 40 39 37 36 34 37 38 41 38 38 36 37 38 39 38 38 40 36 39 47 49 52 52 52 53 53 52 51 50 51 49 48 48 49 49 46 45 47 49 48 50
42 44 48 48 49 47 45 43 42 38 36 36 35 35 38 37 38 37 39 40 40 40 40 39 39 37 37 36 38 44 46 49 51 52 53 52 53 53 52 52 52 51 51 50 50 48 49 48 42 41 46 48 46 42
46 47 49 49 49 46 42 40 42 36 34 35 36 36 38 37 40 40 40 42 42 43 41 37 37 37 41 45 45 46 48 50 51 47 48 53 54 54 54 53 52 51 50 48 45 42 43 47 44 41 39 39 38 38
49 49 49 49 49 45 38 42 42 38 35 37 37 37 38 38 39 39 39 40 39 38 37 36 37 39 39 40 42 43 44 47 51 49 49 54 48 49 50 47 43 44 41 42 39 38 38 38 37 38 38 40 39 39
47 47 48 46 44 44 41 40 39 40 40 36 38 39 38 39 39 39 39 37 36 36 35 38 38 41 48 47 46 46 48 49 51 51 51 45 41 38 37 36 37 35 34 34 34 34 35 34 34 33 34 34 34 35
47 48 45 45 43 42 42 42 40 40 39 38 38 39 38 39 41 42 43 42 44 47 47 47 49 49 50 52 50 51 53 53 53 54 48 49 40 38 36 34 34 33 33 33 33 32 32 31 31 30 30 32 33 33
48 47 45 43 40 40 40 43 41 41 40 40 40 40 40 41 43 46 43 46 46 49 49 51 52 52 53 53 53 52 51 51 53 55 54 47 38 36 34 33 31 32 32 32 32 31 31 33 31 29 30 31 33 35
47 44 42 42 42 41 44 43 44 43 43 42 39 38 41 43 47 44 42 46 50 53 53 52 54 50 48 47 37 38 38 36 36 41 42 38 35 36 36 33 31 31 32 31 30 30 29 29 32 28 29 29 33 33
41 40 42 39 43 42 40 40 41 41 39 41 42 42 43 45 42 41 41 46 49 49 47 40 37 36 34 34 33 33 38 33 32 32 37 36 36 35 34 34 33 31 30 29 29 28 27 27 29 29 30 29 31 31
37 42 41 42 44 42 42 40 41 41 40 40 40 43 43 41 34 37 43 48 49 41 39 36 34 33 33 33 31 30 30 31 34 32 35 34 33 32 32 31 31 31 29 29 29 29 29 29 29 31 29 30 33 31
39 43 45 46 44 43 43 44 45 43 38 38 41 40 36 32 34 41 41 40 36 36 36 35 34 32 31 31 31 30 28 29 35 35 35 33 31 32 31 30 31 31 32 32 31 31 31 31 31 31 30 31 31 31
45 45 42 43 43 42 40 39 36 35 35 41 39 35 36 37 36 38 36 36 35 34 33 32 33 32 32 31 31 29 27 25 27 27 27 29 29 29 32 30 32 35 33 32 31 31 30 30 30 29 29 28 27 28
44 45 46 43 40 41 41 38 35 36 39 38 38 38 35 37 36 35 38 39 40 39 38 40 33 31 30 30 28 26 27 26 26 27 26 24 25 27 28 28 27 27 26 25 32 29 26 24 26 25 25 24 24 23
42 44 42 39 38 40 44 42 39 39 38 40 41 43 45 46 47 49 48 48 47 46 37 31 30 29 27 26 24 25 24 27 28 27 26 26 25 25 25 24 23 22 22 22 22 22 28 24 25 22 22 21 21 21
44 43 40 41 41 43 43 40 41 42 43 43 45 45 44 46 48 50 48 46 38 31 31 29 28 27 25 23 24 25 23 26 28 27 26 24 23 23 23 23 22 22 22 22 21 20 20 20 20 20 20 21 21 22
42 43 43 38 42 48 48 44 44 41 41 43 43 45 44 44 42 45 36 33 31 30 32 29 26 25 25 25 26 27 30 25 25 25 25 24 23 23 22 21 21 21 21 20 20 19 20 20 19 20 20 20 20 20
38 36 37 34 34 35 43 46 45 44 43 42 45 46 44 43 40 45 36 33 31 28 28 27 25 25 27 27 27 26 29 25 28 30 30 29 29 27 22 20 20 20 21 20 19 19 19 20 19 20 20 20 21 21

GFSWCAN_sfc_dewp_003.txt.gz
Dewpoint
49 49 48 49 49 48 48 48 48 47 48 48 48 48 48 48 47 47 48 50 45 40 38 37 34 32 28 28 30 40 30 34 34 36 33 25 22 22 23 27 29 26 30 29 32 32 30 45 42 40 51 51 51 51
49 49 48 48 49 49 49 48 48 46 48 48 47 47 47 46 46 46 45 50 49 43 37 38 37 35 33 31 28 28 32 34 33 41 43 41 42 39 32 27 29 28 31 30 31 34 51 50 50 51 51 51 51 51
49 48 48 48 49 49 48 48 48 48 47 47 47 46 46 47 46 48 46 49 48 43 38 34 31 33 33 32 31 28 29 33 38 40 36 43 43 49 42 35 32 40 37 35 40 48 49 49 50 49 49 49 50 51
48 48 48 48 48 47 47 48 48 47 47 46 47 46 46 46 46 47 48 50 47 43 34 28 28 29 31 31 32 31 32 37 35 35 35 44 44 50 46 50 50 50 46 42 47 50 49 49 50 50 50 50 50 54
48 48 48 47 48 48 47 47 47 47 46 46 46 46 47 46 47 46 47 50 51 43 32 29 28 31 27 29 32 31 31 34 32 33 42 44 45 47 51 51 46 49 50 48 42 50 50 48 47 47 47 47 48 49
48 47 48 48 48 47 47 47 47 47 46 46 47 47 46 46 48 45 43 44 44 49 36 26 33 34 35 29 34 34 33 35 35 43 42 47 44 44 46 43 45 51 53 53 50 49 47 46 46 45 44 42 42 42
48 48 48 48 48 48 47 47 47 47 46 46 46 46 47 47 43 45 41 40 42 43 38 35 35 38 39 35 33 35 37 36 38 43 40 47 46 49 43 42 47 48 49 49 50 50 50 49 49 47 48 44 44 42
49 49 49 49 48 47 47 47 47 48 47 47 47 47 48 49 47 40 42 45 43 42 42 36 34 41 38 34 36 37 36 37 45 43 46 46 49 48 42 46 46 47 48 48 46 48 48 50 52 53 52 50 43 43
49 49 49 49 49 48 48 47 47 48 49 49 49 48 45 42 36 48 48 48 45 43 38 39 37 37 36 42 41 33 31 30 37 36 47 48 44 41 45 46 47 47 47 49 48 49 49 48 47 49 51 50 48 46
49 49 49 49 49 49 49 49 49 49 48 49 46 43 44 40 47 48 49 45 42 42 39 35 36 39 39 37 26 27 28 31 37 45 48 44 41 46 48 48 50 49 49 49 47 48 49 51 50 49 49 49 45 50
49 49 49 48 49 49 49 49 49 49 48 42 39 39 41 48 43 46 41 41 42 39 37 40 44 41 37 41 37 38 45 37 39 44 43 40 40 45 48 48 51 51 53 50 49 48 50 49 51 51 47 47 47 46
48 48 49 48 48 49 49 49 50 46 42 44 44 44 44 42 43 38 39 41 40 39 43 43 43 39 37 40 44 44 39 43 37 47 40 38 44 48 48 48 49 52 50 49 49 49 49 47 44 45 45 45 46 47
48 48 48 48 48 48 48 50 50 50 48 47 46 42 40 41 37 35 36 38 39 43 45 45 41 37 42 50 43 45 35 38 41 41 38 41 46 49 50 50 50 51 47 46 47 46 45 42 43 45 46 46 46 47
49 49 49 48 48 48 49 50 49 47 45 41 40 36 36 38 39 40 41 40 44 44 44 41 38 42 43 39 39 35 35 40 38 37 38 45 48 49 50 48 46 44 43 42 42 42 42 42 43 45 46 47 47 50
48 48 49 48 48 49 49 50 49 47 46 41 40 35 39 41 43 44 42 36 37 36 36 37 37 38 35 37 38 38 37 37 38 40 45 48 50 50 48 46 43 43 43 44 43 42 42 42 43 45 49 48 49 50
48 48 45 48 48 48 49 49 48 46 47 45 41 37 38 38 33 32 36 36 38 38 36 42 36 37 37 40 39 37 36 35 38 46 50 52 51 49 49 50 48 45 45 45 44 43 43 44 45 47 45 47 49 50
49 41 48 48 49 49 50 46 44 38 38 35 35 31 33 33 34 36 37 37 40 36 34 34 37 38 41 38 38 39 37 40 46 49 52 52 52 52 51 50 49 47 47 46 46 47 48 46 46 49 49 46 45 47
42 44 48 49 49 47 45 42 39 33 31 31 31 33 34 35 37 38 38 40 40 39 38 38 38 37 38 38 39 44 47 49 51 52 54 54 54 52 54 52 51 52 50 48 47 49 47 49 48 47 47 45 51 44
46 47 49 49 48 47 40 38 41 33 31 33 34 34 34 37 39 39 39 40 40 38 37 37 37 38 41 45 45 48 50 52 52 54 55 54 54 53 52 51 50 51 47 47 46 44 43 46 42 41 40 40 38 41
49 49 49 49 49 44 37 40 40 36 33 35 35 34 35 36 37 37 35 36 36 36 36 34 35 38 39 42 43 47 50 53 54 52 51 45 47 46 47 44 42 46 42 44 40 39 39 38 36 36 36 37 37 37
48 49 49 47 45 44 42 40 38 38 37 35 36 36 36 39 40 41 44 39 38 39 40 46 48 51 51 52 54 55 52 51 53 52 47 39 38 38 38 38 39 37 36 36 36 36 36 34 33 32 32 33 33 33
48 49 47 48 46 44 44 43 41 41 40 37 41 41 42 41 42 43 46 43 45 48 50 52 53 54 53 51 51 50 53 54 54 55 51 52 43 40 40 38 37 36 36 34 33 33 32 32 31 29 29 29 32 32
48 47 47 46 45 43 43 45 42 42 40 41 41 40 41 43 44 45 44 47 48 51 53 53 51 51 47 43 44 42 45 45 42 43 44 41 40 39 36 36 33 33 33 33 32 31 30 32 31 29 29 29 30 32
47 46 45 44 45 43 45 43 43 42 41 40 42 42 42 45 49 46 43 46 50 51 44 46 38 36 37 43 34 35 35 33 33 36 37 35 34 36 36 33 32 31 31 31 30 30 29 28 30 27 29 29 29 29
43 42 45 42 47 42 37 37 39 38 35 38 38 40 43 47 40 39 41 45 39 37 37 37 36 36 34 33 31 30 35 30 32 33 35 34 33 32 32 33 34 33 32 31 31 30 29 28 28 28 29 29 31 30
41 44 41 41 42 40 38 34 35 35 35 34 35 38 40 40 35 38 43 42 36 36 36 36 35 33 33 33 31 28 27 28 33 31 32 30 31 30 31 31 31 32 31 31 29 28 28 29 28 29 27 29 32 29
39 40 46 48 44 42 42 41 41 37 33 35 36 35 34 34 36 36 38 37 38 36 36 36 35 33 33 32 31 30 27 27 30 28 31 31 30 30 29 28 29 29 29 29 28 27 27 26 25 26 25 25 25 25
45 44 43 42 43 41 39 37 34 34 35 37 38 36 36 36 37 37 39 41 41 42 41 39 37 32 30 29 27 24 26 26 27 27 25 27 27 27 28 25 25 33 26 25 23 23 24 22 21 22 23 22 22 23
42 40 42 40 39 38 40 38 38 38 39 38 41 38 39 45 44 42 42 42 43 47 46 34 30 29 27 24 24 23 25 25 26 26 26 24 23 22 23 22 22 22 22 22 30 26 24 21 22 22 23 21 21 21
38 38 39 38 40 42 43 39 39 40 41 41 42 41 42 45 47 49 48 45 40 33 31 29 28 25 22 20 22 24 24 24 24 24 22 21 20 21 22 22 22 21 22 21 20 20 28 23 25 20 21 20 20 20
36 35 37 40 41 41 39 41 42 42 42 42 43 42 42 43 46 43 36 35 31 30 29 26 24 22 22 22 24 24 22 24 25 25 24 20 20 21 22 21 20 20 21 20 19 19 19 19 19 19 19 20 20 21
34 34 33 32 38 42 43 46 42 41 40 41 40 41 41 45 43 38 35 32 30 27 31 27 23 22 24 24 24 24 30 25 25 24 24 20 20 22 20 19 19 20 21 20 19 19 20 20 19 20 20 20 20 20
34 33 34 32 32 30 40 45 46 42 40 38 42 44 40 41 38 36 35 33 30 27 25 24 22 23 27 26 25 25 27 26 28 29 28 27 27 26 23 21 22 23 22 22 21 21 22 22 21 22 22 21 20 20

GFSWCAN_sfc_dewp_006.txt.gz
Dewpoint
50 49 49 49 49 49 50 49 48 48 47 48 49 48 48 48 48 47 47 51 44 39 37 37 35 33 31 35 36 38 37 37 30 22 22 26 29 28 26 30 31 30 27 29 36 37 36 42 45 41 49 49 48 48
49 49 48 49 49 49 49 49 48 48 48 48 48 47 47 47 47 46 46 51 50 44 37 37 37 36 34 33 30 33 37 38 42 36 40 40 35 38 35 29 29 26 28 28 32 33 45 49 52 51 49 50 52 54
50 50 49 49 49 50 50 49 48 48 48 48 47 46 46 47 47 46 49 51 48 42 38 35 34 35 37 36 33 30 28 33 37 46 44 43 41 45 40 34 35 32 44 32 36 40 46 48 47 48 50 55 56 58
49 48 48 49 49 49 49 49 48 48 47 47 47 47 47 47 46 46 46 50 48 44 37 30 35 36 32 32 33 31 30 35 39 39 38 39 41 46 42 46 48 50 49 49 40 52 51 51 50 51 52 53 54 55
50 49 48 49 49 49 48 48 49 48 47 47 47 47 47 46 48 45 46 51 51 42 35 34 33 31 31 29 29 32 30 31 34 32 42 40 46 45 48 48 45 49 50 50 52 52 52 52 51 49 48 48 49 51
50 50 50 50 49 49 48 48 48 48 48 47 47 47 46 47 49 41 44 48 51 50 41 28 30 33 34 29 28 32 31 31 31 39 41 43 46 47 44 42 47 52 54 55 51 54 46 46 44 44 45 44 44 45
49 49 49 50 49 49 49 49 49 49 49 49 49 48 47 48 44 44 41 42 45 44 40 33 33 37 39 27 27 31 32 31 35 42 42 44 47 48 45 42 49 51 53 53 54 53 48 47 47 45 45 45 46 46
49 49 49 49 49 48 49 48 48 49 49 49 50 50 50 49 47 41 40 45 43 43 40 36 36 42 42 28 30 33 33 35 44 44 44 46 48 47 42 47 49 50 53 53 53 50 49 50 51 50 49 47 46 44
49 49 49 49 49 50 50 49 50 50 50 50 50 50 46 43 39 49 48 47 44 42 38 38 36 37 45 45 45 33 36 34 45 43 44 47 43 40 45 47 47 48 50 50 50 48 48 49 48 50 51 50 50 51
49 49 49 49 49 49 49 49 50 50 50 50 46 41 44 49 49 50 48 44 43 43 41 35 38 40 43 39 34 32 31 32 39 44 47 42 41 46 48 49 49 49 49 50 48 48 47 49 50 49 50 51 51 48
49 49 49 49 49 49 48 48 49 50 50 43 39 38 41 48 46 47 42 41 41 39 39 38 43 44 47 43 42 46 45 42 39 41 42 39 39 45 49 50 51 50 50 50 50 50 50 50 48 47 48 50 52 52
50 49 49 49 50 49 49 49 50 46 43 44 43 44 44 45 44 39 38 40 40 36 44 43 43 41 44 41 44 47 43 41 39 46 40 37 42 47 48 48 49 50 49 50 51 52 51 50 47 46 45 48 51 52
49 49 49 49 50 49 49 49 50 50 48 46 47 43 41 43 38 37 36 35 39 43 43 42 43 47 48 50 45 44 39 41 47 40 38 40 46 48 49 47 46 48 47 47 46 47 47 47 44 44 47 50 49 51
49 49 48 49 50 49 49 49 51 49 46 41 40 39 40 38 39 41 41 42 44 47 47 37 38 45 46 44 45 40 41 42 39 38 38 44 46 49 50 50 49 48 48 44 45 43 44 46 48 49 49 48 50 51
49 49 48 48 49 48 48 49 50 49 46 42 41 39 39 41 44 44 41 42 47 45 41 37 37 38 41 41 43 41 37 37 38 40 44 48 50 50 50 49 49 47 46 44 43 44 45 46 48 50 51 52 53 53
49 48 47 49 48 48 48 49 50 48 47 44 40 33 34 32 32 35 36 36 39 42 40 39 37 37 37 40 39 37 37 35 38 45 49 51 51 51 51 53 50 46 46 47 47 47 48 49 50 48 48 49 50 50
49 43 49 49 49 49 50 46 42 37 34 32 32 32 34 37 40 38 39 39 40 38 37 38 39 39 41 39 36 39 38 41 46 48 50 51 51 50 52 53 53 53 52 49 49 50 48 52 49 51 51 52 49 51
45 45 49 49 49 48 43 41 38 32 30 32 33 34 37 37 38 39 38 39 39 39 40 37 39 39 39 38 41 45 48 50 51 51 52 53 54 54 55 52 53 51 51 50 51 51 48 50 46 43 48 47 46 48
46 47 49 50 49 47 39 37 41 33 32 34 35 36 37 39 43 42 38 37 39 38 37 37 37 39 43 47 47 49 51 52 52 54 55 55 55 55 55 53 51 48 50 50 50 44 41 48 42 38 37 41 43 39
49 50 50 50 49 45 37 39 39 34 34 35 36 37 39 43 42 40 40 42 40 40 40 42 46 49 50 52 53 53 54 56 54 50 51 51 43 49 50 48 43 48 41 45 41 39 38 36 34 33 33 35 37 34
49 50 50 49 47 44 42 39 37 37 39 39 40 42 44 43 44 44 46 44 42 45 45 50 51 53 51 53 54 51 53 50 52 53 48 40 42 42 42 39 40 39 37 36 35 35 35 33 32 30 30 30 30 32
49 50 49 49 46 44 43 43 40 42 42 41 40 41 44 42 40 41 41 40 44 49 51 51 52 42 42 46 44 46 53 54 52 53 47 48 41 40 39 38 38 37 34 33 33 32 31 29 29 28 29 30 31 31
50 50 48 47 45 44 42 46 42 41 39 39 43 41 43 43 44 41 41 44 45 54 52 50 51 50 46 47 45 42 44 46 39 38 38 39 38 37 34 33 32 33 32 32 32 31 30 33 30 28 29 30 30 30
48 48 46 45 44 43 42 40 41 39 39 39 41 41 42 46 45 41 42 45 45 39 39 47 40 37 38 43 33 34 36 34 33 36 35 33 33 38 38 36 34 33 33 33 32 31 30 29 31 28 29 29 30 30
44 44 45 41 47 39 34 37 37 35 34 36 35 39 44 46 38 39 39 39 39 39 39 38 37 38 34 34 32 32 37 28 30 32 32 31 31 31 33 35 34 33 30 30 29 28 28 28 28 28 28 28 29 29
39 44 41 38 40 38 39 34 34 35 34 33 34 37 46 44 37 39 40 39 38 38 37 38 37 36 33 32 29 27 28 28 29 28 30 30 30 29 28 28 28 27 26 28 26 24 25 25 23 23 23 25 28 25
39 40 44 46 42 40 41 42 38 35 37 38 38 39 39 39 37 38 41 42 41 41 41 40 38 32 30 28 27 26 26 28 30 28 28 31 28 28 26 24 24 23 23 24 23 23 23 22 21 21 21 23 23 22
50 46 41 45 45 43 43 38 37 37 36 37 40 38 36 38 38 41 41 41 40 40 39 37 35 30 27 24 23 24 25 26 26 26 26 27 25 23 25 23 23 32 24 24 23 23 22 20 21 21 22 21 21 22
39 44 44 42 38 37 37 37 37 37 39 39 41 39 40 44 43 41 40 41 40 38 34 29 28 26 24 22 23 23 24 24 24 24 23 21 20 20 21 22 22 21 22 21 29 26 23 20 22 21 21 20 20 20
34 39 40 40 36 39 39 40 39 38 39 40 41 41 42 42 42 42 42 37 32 30 29 27 24 22 21 20 22 24 23 24 23 22 20 19 18 19 21 21 21 20 21 21 19 19 29 23 24 20 21 20 20 20
33 33 33 37 37 36 37 40 40 39 39 39 39 38 37 40 43 38 34 32 29 26 24 22 21 21 22 22 23 23 21 24 26 24 22 18 18 21 22 21 20 21 21 21 20 19 20 20 20 21 20 21 21 21
33 33 30 31 39 41 42 42 40 39 38 40 38 40 40 44 43 39 35 32 28 25 29 24 20 22 24 23 23 23 31 24 24 22 22 20 21 23 22 21 21 22 22 21 21 21 21 21 20 21 20 20 20 21
32 32 33 31 32 33 42 42 44 40 38 37 39 39 38 39 36 35 36 33 28 25 23 22 21 23 27 26 25 24 29 25 26 29 28 26 26 26 23 22 23 23 22 21 20 20 21 21 20 21 21 22 22 23

GFSWCAN_sfc_dewp_009.txt.gz
Dewpoint
50 50 49 49 49 50 50 50 50 49 49 49 48 48 48 48 48 47 44 50 45 39 37 37 35 34 34 34 34 37 37 38 38 36 23 29 28 29 32 33 32 35 37 31 36 34 32 48 45 42 51 52 55 56
50 50 49 49 49 50 50 50 50 50 49 48 48 48 47 47 47 48 44 50 50 43 39 40 40 39 37 35 34 40 38 37 38 39 39 39 28 40 38 35 38 35 41 39 33 39 50 51 49 54 55 57 58 59
51 50 50 50 50 50 50 50 49 50 49 48 48 48 47 47 47 47 47 49 48 42 38 36 35 36 37 40 39 33 34 39 42 46 42 42 39 43 39 37 43 40 48 39 44 37 46 50 49 59 59 57 55 58
50 50 50 50 50 50 50 50 50 49 49 48 48 48 48 48 48 46 44 49 47 43 36 33 34 34 35 35 38 38 35 33 45 46 42 41 39 46 42 43 43 49 48 48 48 50 52 55 57 55 56 55 54 55
50 50 50 50 50 50 49 49 50 50 50 49 48 48 47 47 49 47 42 46 49 43 36 35 38 36 35 35 32 35 35 32 34 36 41 40 44 44 46 46 43 48 49 47 48 52 52 52 51 52 52 51 51 51
49 50 50 50 50 50 50 49 49 50 50 50 49 49 49 49 49 42 43 50 51 49 40 35 33 34 37 39 37 35 34 34 31 41 43 44 45 44 42 40 46 49 52 54 52 52 51 48 47 47 47 47 48 49
49 49 49 49 50 50 50 50 50 50 50 51 51 51 51 50 46 40 42 45 47 44 41 36 31 43 42 41 31 33 34 32 36 43 42 43 44 45 44 39 46 50 53 53 53 52 51 50 49 48 46 46 47 49
50 49 49 49 49 49 49 49 49 49 50 51 51 51 51 51 49 45 44 45 45 42 42 35 34 39 46 40 31 35 33 38 44 44 44 42 45 45 42 46 50 51 53 54 53 54 54 54 52 50 50 49 49 49
49 49 49 49 49 49 49 49 49 49 50 51 51 51 48 45 42 48 47 47 45 43 38 38 35 35 46 45 45 46 43 39 46 41 41 43 42 40 44 46 48 51 51 52 54 52 50 50 52 53 51 50 50 50
49 49 49 49 49 49 50 50 50 50 50 51 49 44 45 49 51 51 48 44 43 43 41 36 37 38 45 42 43 43 42 40 37 40 47 41 40 46 48 50 51 51 52 52 50 49 50 49 49 50 51 50 49 50
49 49 49 49 49 50 50 50 50 50 50 47 42 40 44 50 49 46 41 39 40 38 40 39 43 42 48 42 41 45 43 43 37 41 41 39 38 44 49 49 51 52 52 52 51 50 50 50 49 50 50 52 54 52
49 49 49 49 49 49 50 49 50 48 45 45 44 46 45 47 45 39 37 39 37 36 41 43 45 46 47 47 45 45 42 41 38 46 40 36 42 47 48 48 50 51 51 52 53 52 52 49 45 46 49 50 51 54
49 49 49 49 49 49 50 50 50 51 49 49 47 45 42 43 37 37 33 34 36 43 46 45 45 45 47 47 45 43 37 40 46 40 37 40 45 48 49 50 49 51 52 51 50 51 49 49 49 48 50 51 51 51
49 49 49 49 49 50 49 49 50 50 48 45 42 36 41 39 39 40 41 41 44 47 46 47 45 44 46 44 43 41 42 43 39 36 36 42 45 47 49 51 51 50 50 49 50 50 51 50 51 52 52 52 52 52
49 49 49 49 49 49 49 49 50 49 48 45 42 36 39 38 40 39 38 46 47 51 46 44 46 45 44 43 43 41 37 36 37 39 43 47 49 50 50 50 49 50 50 50 47 48 50 50 50 49 50 52 52 52
49 49 48 49 49 49 49 50 51 51 51 45 41 36 37 40 39 39 38 37 40 40 43 42 42 40 40 40 38 36 36 34 38 44 48 49 49 50 51 51 51 51 49 48 50 50 49 48 51 51 51 51 49 52
49 46 49 49 49 49 51 49 51 45 38 37 38 38 44 44 42 42 39 38 42 39 38 41 39 40 42 36 36 40 38 42 46 48 49 49 50 50 51 51 51 52 50 48 49 50 49 46 45 46 45 47 45 49
47 47 48 48 49 49 51 49 45 38 34 41 39 40 42 47 47 42 42 43 41 41 41 39 42 39 39 39 41 45 47 48 49 50 50 51 52 51 52 51 51 51 48 50 51 48 43 42 41 45 46 47 43 43
46 47 49 49 49 48 46 42 47 39 37 40 42 43 44 48 49 46 44 45 45 44 42 42 41 41 43 46 47 48 48 48 48 49 51 51 51 51 51 51 51 51 50 47 44 40 39 39 36 36 36 38 38 41
49 50 51 51 50 47 41 45 49 42 39 44 46 46 44 45 46 43 43 43 43 42 40 40 42 45 46 48 49 49 49 50 50 48 47 45 45 48 49 43 43 47 41 43 37 37 34 33 32 33 35 36 34 39
50 50 50 51 50 47 43 42 40 43 44 47 47 45 47 42 41 41 41 43 41 42 43 46 42 42 45 42 44 49 50 52 50 49 47 43 45 45 44 43 41 38 36 36 35 34 34 32 32 32 36 34 34 37
50 51 51 52 48 46 46 48 44 47 46 47 45 45 48 44 41 42 45 41 42 48 49 48 47 42 40 41 40 40 42 51 51 44 41 41 40 39 40 41 38 36 35 35 35 34 33 33 32 32 34 36 36 36
50 50 50 48 45 44 43 49 44 45 42 42 44 42 46 46 48 44 42 44 45 48 45 46 50 49 46 46 42 39 40 43 38 36 36 39 41 41 36 35 33 34 34 35 34 33 33 35 33 32 33 34 35 34
49 49 47 47 47 44 46 46 45 44 44 40 44 42 44 47 46 41 40 40 40 41 42 45 42 40 40 44 36 36 36 33 34 38 37 34 36 38 36 33 30 29 32 31 29 29 30 29 31 27 29 29 29 29
45 44 46 39 50 46 42 39 38 38 37 39 41 44 45 47 43 38 37 41 42 42 42 42 41 40 37 35 32 34 38 31 31 32 36 34 33 31 32 31 27 26 27 28 25 25 26 26 24 24 24 25 27 26
39 47 45 45 45 43 43 39 39 37 38 38 42 47 47 44 37 38 40 42 43 43 41 42 39 37 34 31 29 30 31 31 32 29 33 30 29 27 27 25 23 24 26 25 24 24 24 23 23 24 23 25 29 24
43 44 48 49 49 47 44 44 42 37 35 37 41 41 41 36 36 38 42 43 41 41 42 41 38 34 29 27 29 30 29 29 31 29 31 27 26 26 25 24 24 26 27 25 25 24 22 22 22 22 22 23 24 23
49 47 45 48 48 44 40 38 35 35 35 38 40 36 36 35 36 39 40 43 41 41 40 38 33 27 25 25 26 26 26 26 26 25 24 24 24 23 27 25 27 33 28 27 25 24 23 23 23 22 22 22 22 22
47 47 47 44 38 37 38 37 36 36 38 38 41 38 38 42 41 38 41 42 41 39 30 27 27 25 24 25 27 26 25 24 23 21 19 19 20 21 24 23 23 23 23 24 29 27 26 25 25 23 23 23 23 23
42 40 38 37 36 36 38 38 38 37 38 38 38 39 40 40 40 41 36 34 31 27 26 24 24 24 23 22 23 24 25 25 23 21 18 17 18 21 23 23 23 23 24 24 22 23 30 25 26 23 23 22 22 22
34 33 33 38 35 36 39 39 39 38 39 37 37 37 37 40 42 38 38 36 31 27 24 22 21 24 23 23 23 23 22 25 24 23 21 20 20 23 24 25 24 24 24 24 23 23 22 22 22 22 22 22 23 23
34 35 33 31 39 40 42 42 41 39 38 39 40 40 40 44 43 43 39 35 29 25 29 24 21 23 25 24 25 25 30 23 23 23 23 22 24 25 24 24 24 24 24 22 22 21 21 21 22 22 22 23 24 24
33 33 34 31 37 42 42 42 42 40 38 39 42 43 39 38 35 36 39 34 30 26 25 24 24 26 31 27 26 27 28 25 26 29 29 29 29 27 24 24 25 24 23 22 22 22 23 23 24 24 24 25 26 27

GFSWCAN_sfc_dewp_012.txt.gz
Dewpoint
50 50 50 49 49 50 50 50 50 49 49 49 49 48 48 48 48 45 43 45 43 38 36 37 35 34 34 34 33 33 35 36 33 34 32 30 29 29 30 31 37 38 39 39 34 37 36 38 44 36 44 57 58 59
50 50 50 50 51 51 50 50 50 50 49 49 48 48 48 48 48 47 41 44 46 42 39 40 40 39 38 37 35 35 36 35 38 35 36 36 29 35 33 32 42 39 41 39 36 42 42 42 51 57 57 56 58 59
50 50 50 50 50 51 50 50 50 49 49 49 49 48 48 49 48 48 43 43 42 42 37 37 37 38 39 39 38 35 34 38 39 41 39 37 36 39 35 37 41 44 47 40 42 44 49 56 58 56 56 57 57 57
50 50 50 50 50 50 50 50 50 50 49 49 49 48 48 49 48 47 43 44 44 43 35 34 36 35 35 35 37 37 36 38 43 42 39 35 36 42 39 42 41 45 47 46 44 47 50 52 56 56 54 54 55 56
49 50 50 50 50 50 50 50 50 50 50 49 49 50 50 49 50 48 45 44 46 42 36 36 37 38 37 38 37 36 37 36 35 37 38 38 42 40 44 43 42 47 47 47 47 50 51 50 55 56 53 52 52 53
49 49 50 50 49 49 49 49 49 49 49 50 50 50 50 50 51 44 39 44 48 47 39 33 35 34 37 41 37 35 35 34 34 32 38 42 44 42 38 38 46 47 49 51 51 51 51 52 50 51 49 49 51 51
50 50 50 50 49 49 49 49 50 51 51 50 50 50 51 51 49 41 37 42 46 44 40 35 33 37 44 43 37 33 34 32 33 40 40 42 43 40 40 39 46 49 51 54 53 53 50 51 51 52 51 51 50 51
50 49 49 49 49 49 49 50 51 51 51 51 51 51 51 51 50 46 47 47 46 42 42 36 34 37 45 41 37 44 31 38 43 42 43 41 42 42 40 44 45 48 51 53 53 53 52 53 53 51 51 50 50 51
49 49 49 49 49 49 50 50 51 51 51 51 51 51 49 46 44 46 48 48 47 43 38 37 35 34 45 44 44 44 45 39 44 40 41 42 42 38 43 45 47 50 52 52 51 51 52 52 53 52 51 49 49 51
49 49 49 49 49 49 49 50 50 51 50 51 48 44 42 47 50 50 48 44 42 42 41 36 40 37 41 42 40 41 44 39 35 39 44 39 39 44 47 49 50 51 52 52 49 49 49 49 50 51 51 53 51 50
49 49 49 49 49 49 49 50 50 50 49 44 41 40 44 50 48 46 40 38 39 37 40 40 40 38 46 41 40 45 40 40 34 39 40 38 37 44 49 50 52 52 52 51 51 51 52 51 50 51 52 52 52 52
49 49 49 49 49 49 49 50 50 47 45 44 44 46 45 44 42 39 33 36 35 35 41 40 44 46 46 47 41 44 40 41 37 45 38 35 41 47 49 50 51 52 52 52 53 53 52 49 48 49 49 51 51 52
49 49 49 49 49 49 50 50 50 50 49 47 44 44 40 40 37 34 32 35 37 41 44 46 43 45 46 47 44 41 38 39 46 38 34 38 45 47 48 50 51 52 52 51 51 51 50 50 51 49 52 51 53 52
49 49 49 49 49 50 50 50 50 49 46 43 39 34 37 35 39 40 42 42 43 45 45 46 46 44 46 44 43 40 43 41 37 34 34 42 44 46 48 50 50 51 52 51 52 51 51 51 51 52 52 51 49 49
50 49 49 49 49 50 50 50 51 48 46 42 40 36 40 42 43 43 42 43 44 45 46 45 45 43 42 40 41 40 37 34 35 37 42 47 49 49 50 51 51 51 51 52 51 51 52 50 50 50 50 51 50 49
50 49 48 49 49 49 49 50 50 49 47 42 42 42 42 42 42 42 42 42 44 39 42 42 41 39 39 39 38 36 35 35 39 45 47 48 49 49 50 51 49 50 49 47 49 48 45 44 43 44 44 46 47 45
49 45 49 49 49 49 50 48 49 47 40 40 40 44 44 44 43 43 41 41 42 40 38 41 40 39 41 37 36 40 39 43 46 47 49 50 49 48 50 48 48 49 49 45 42 37 37 37 38 41 40 42 43 44
46 47 48 49 49 49 49 48 42 38 38 43 41 43 44 44 44 42 41 39 39 40 41 41 44 40 38 36 38 44 46 48 49 49 50 51 51 51 51 48 48 48 45 45 43 31 31 32 33 34 34 38 39 40
46 47 49 50 49 47 47 41 42 38 39 41 44 43 43 43 43 42 41 42 39 39 40 41 40 38 40 45 45 46 46 47 47 48 49 50 51 50 49 50 50 44 37 35 31 30 30 29 31 33 33 34 37 38
49 50 51 51 51 46 42 40 45 39 39 44 45 44 41 41 42 41 41 40 40 39 33 36 38 41 40 42 45 47 48 49 48 46 44 43 43 42 40 35 35 36 35 32 31 33 29 30 30 32 35 36 37 37
50 50 51 50 50 48 42 41 41 41 41 42 44 43 43 43 40 40 39 41 36 37 40 41 38 38 38 35 33 38 45 46 44 42 42 34 35 38 38 37 35 34 33 34 33 32 33 31 32 33 35 35 37 37
50 51 50 52 47 46 45 46 42 45 43 42 43 44 42 41 41 41 41 38 39 43 45 42 42 40 35 35 34 32 37 43 40 37 40 37 33 31 30 32 33 31 30 30 31 30 28 28 29 31 31 33 38 38
50 50 49 50 45 41 40 47 43 44 41 42 46 42 42 41 41 42 38 41 42 44 41 41 42 41 40 37 35 34 33 31 35 35 37 36 33 30 27 27 29 30 26 26 28 27 26 29 27 26 29 28 29 31
50 48 46 46 45 41 46 43 45 42 43 45 43 41 42 44 47 39 38 41 42 42 41 41 41 40 39 35 34 33 33 30 31 34 34 34 29 26 25 24 24 27 25 24 26 25 24 24 28 24 26 26 26 27
43 40 45 38 46 43 40 40 40 40 38 42 41 41 42 44 41 38 39 40 43 43 41 42 40 39 34 31 31 30 30 30 31 29 28 27 27 27 25 24 24 25 26 25 25 24 23 23 24 25 26 25 24 25
39 45 40 44 44 42 42 39 39 40 38 38 41 44 45 42 37 36 38 40 41 42 41 40 41 35 28 30 27 27 26 26 28 27 25 24 25 25 24 22 22 23 26 25 24 22 22 24 24 24 24 24 28 23
38 40 44 47 46 46 44 43 41 37 35 37 40 40 40 35 35 37 40 42 41 42 42 41 36 26 26 27 26 26 24 23 23 24 23 22 23 24 25 23 22 25 25 25 24 23 23 23 24 23 23 23 22 23
44 45 42 45 46 47 40 37 37 35 36 38 40 38 36 34 34 38 40 41 42 42 39 32 26 25 26 26 26 24 23 22 20 20 20 21 22 23 24 24 25 31 24 23 23 22 23 23 23 23 24 23 22 23
47 49 47 44 44 40 39 37 36 37 38 39 40 37 38 41 41 41 41 41 31 26 25 25 25 24 25 26 25 24 24 23 21 19 18 19 20 22 24 24 24 24 24 24 28 28 29 23 23 23 23 23 22 22
46 48 45 40 37 37 39 39 38 39 38 39 40 40 41 41 42 42 36 33 28 25 24 23 25 24 23 24 24 24 23 22 21 20 19 18 20 23 24 25 24 24 25 25 23 23 30 25 25 22 23 23 23 23
43 41 41 39 38 40 40 40 39 40 39 38 39 39 39 40 41 39 36 31 27 24 23 23 25 25 24 24 24 24 22 23 23 22 22 22 23 24 25 25 24 24 25 25 23 22 21 22 22 23 24 24 25 25
38 35 35 37 40 42 42 42 40 40 40 40 40 41 41 42 41 42 38 31 28 25 29 27 25 25 25 25 26 26 28 23 23 23 23 24 24 24 24 24 25 25 25 24 23 23 24 24 24 24 25 25 26 27
37 38 37 37 42 42 45 45 44 44 41 40 43 44 43 40 35 37 34 32 28 26 26 27 28 28 26 26 28 27 28 24 25 28 28 29 29 26 24 24 25 26 26 25 25 26 26 25 26 26 27 27 28 28

GFSWCAN_sfc_dewp_015.txt.gz
Dewpoint
50 49 49 49 50 50 50 49 49 49 49 49 49 49 49 48 48 44 42 44 41 38 35 36 35 34 34 34 31 31 32 34 31 31 31 29 29 30 28 30 32 33 34 36 30 32 32 51 51 49 52 56 56 55
49 50 50 50 50 50 50 50 50 51 49 49 49 49 49 49 49 48 44 44 46 42 37 38 38 38 36 35 34 35 33 33 35 32 33 33 31 33 30 29 36 33 38 39 35 38 44 49 51 57 56 56 58 57
49 49 50 50 50 50 50 51 51 50 50 49 49 49 49 49 49 48 45 44 43 41 37 38 37 38 40 40 38 35 34 35 37 40 38 36 33 37 30 33 34 38 45 41 41 42 49 52 53 55 56 55 56 57
49 49 50 50 50 50 50 50 50 50 50 51 49 49 49 49 50 49 45 43 44 41 36 35 38 36 36 38 39 38 36 38 43 43 38 36 34 40 36 37 36 38 43 40 44 46 50 53 53 55 55 53 54 56
49 50 50 50 50 50 50 50 50 50 50 51 51 50 50 50 51 50 46 45 45 40 36 36 36 37 37 37 36 38 37 36 35 38 38 36 39 39 41 38 38 44 44 42 40 49 49 51 54 53 52 53 51 55
50 50 50 50 50 50 50 50 50 50 51 51 52 51 51 51 51 45 40 44 46 46 40 33 34 35 36 37 38 36 36 36 36 35 34 37 41 40 37 33 45 47 49 50 50 51 52 53 53 53 52 52 56 54
49 49 49 50 50 50 50 50 50 51 51 51 51 51 51 51 49 43 39 44 48 47 40 35 33 36 40 41 39 38 38 36 35 36 36 37 40 41 38 36 44 46 48 51 52 52 51 52 52 53 54 53 53 52
49 49 49 50 50 50 50 50 51 51 51 51 51 52 51 51 50 47 49 49 48 44 42 35 34 36 44 40 38 44 33 36 42 41 42 41 42 41 35 40 45 46 49 50 53 52 51 52 53 53 53 54 52 52
49 50 50 50 50 50 50 50 51 51 51 51 51 51 49 46 44 45 49 49 48 43 36 36 34 34 45 42 43 43 44 38 43 40 40 41 37 35 40 43 44 47 49 52 52 52 51 51 51 51 50 51 52 52
50 50 50 50 50 50 50 50 51 51 51 51 46 43 40 45 50 51 47 43 42 42 41 35 38 35 41 42 41 41 42 39 34 37 43 37 35 41 44 47 49 52 52 51 49 49 49 49 50 50 51 51 52 52
49 49 50 50 50 50 50 50 50 50 48 43 41 40 43 47 48 46 39 38 38 35 38 38 38 36 44 40 40 43 36 38 33 37 38 34 34 43 49 49 51 52 52 51 52 51 51 51 49 49 50 51 52 53
49 49 50 50 50 50 50 50 50 47 44 44 46 47 44 43 42 38 36 37 35 34 40 40 42 42 45 47 42 42 38 38 35 43 37 33 38 46 48 50 51 52 52 52 52 52 51 51 49 49 49 50 51 52
50 50 50 50 50 50 50 50 50 50 49 46 43 42 38 39 38 35 32 37 40 42 43 44 44 45 46 46 43 41 39 39 44 36 33 35 42 47 48 50 51 52 53 53 54 53 52 52 51 51 53 53 52 51
50 50 50 50 50 50 50 50 51 49 45 43 38 36 38 38 40 41 42 43 44 44 45 46 45 43 45 42 43 39 41 40 36 33 34 42 47 49 51 51 50 50 50 50 52 52 52 51 51 51 50 48 47 47
50 50 50 49 50 49 50 50 51 47 45 41 41 35 40 43 43 42 40 43 44 44 45 44 44 42 40 40 41 39 37 34 36 38 43 47 49 49 48 49 48 46 46 47 46 47 50 49 45 44 43 43 44 45
50 49 47 49 49 50 50 49 49 48 43 43 42 41 42 40 39 39 38 40 42 41 42 42 40 38 39 39 38 36 34 34 39 45 47 49 48 48 48 46 43 39 34 33 35 35 37 39 41 42 40 40 41 42
50 45 48 49 49 50 49 47 46 41 42 42 43 45 42 42 41 40 37 36 38 42 40 42 39 39 41 38 37 41 40 43 46 47 49 49 48 48 47 43 42 41 37 31 31 32 32 33 34 35 37 39 41 42
45 46 48 49 50 48 47 46 41 42 39 41 40 41 42 43 42 39 39 36 35 36 41 41 43 38 39 38 39 43 45 47 47 48 49 49 48 48 48 44 41 38 34 36 34 30 31 33 34 35 36 39 40 40
47 47 49 50 50 47 46 42 43 40 40 41 44 43 41 42 42 40 38 38 35 35 38 36 36 36 38 41 42 44 46 47 46 47 47 45 47 43 41 40 36 32 31 31 30 31 32 33 34 35 37 37 37 38
49 50 51 51 50 45 39 40 43 39 38 42 43 42 41 40 41 40 40 38 37 37 32 34 34 37 40 40 43 43 44 45 44 42 36 35 36 34 33 33 32 31 31 29 29 32 31 32 34 36 37 37 35 35
49 50 51 50 49 46 41 40 39 40 41 41 42 42 42 43 40 38 38 39 37 38 37 40 39 34 34 32 33 34 38 40 40 37 34 30 31 32 31 29 29 29 29 27 26 26 27 27 29 31 37 37 37 34
47 51 48 51 47 45 44 44 41 43 42 43 43 43 41 40 39 39 39 39 39 42 43 40 40 40 34 33 33 32 36 40 39 34 34 32 27 27 28 30 27 26 27 28 27 25 25 25 27 28 29 34 33 29
49 49 49 48 44 39 38 47 42 44 43 45 45 41 42 41 41 40 38 40 41 42 41 40 41 39 35 34 33 32 33 35 35 34 29 27 26 25 26 26 26 26 25 24 25 24 24 29 27 28 29 30 30 27
50 46 45 44 43 39 45 42 45 43 45 42 39 36 42 44 43 38 36 38 41 43 41 40 39 35 32 30 29 29 30 31 28 28 31 25 24 24 25 25 25 25 25 25 23 23 24 25 29 26 27 27 26 26
39 40 42 36 42 40 40 39 39 39 38 40 38 38 39 43 37 36 34 38 40 40 40 41 38 32 30 28 27 26 26 28 25 24 25 26 25 23 23 24 24 25 25 22 22 22 24 25 25 24 25 25 25 24
35 42 38 41 41 40 41 39 38 38 38 39 40 44 43 38 35 33 36 38 40 40 40 40 38 28 27 26 24 23 24 25 23 22 22 24 24 22 22 22 22 22 25 22 21 22 23 24 24 23 22 24 28 24
34 37 42 45 43 44 42 42 40 35 34 36 40 40 36 33 31 34 39 40 41 41 42 32 28 27 25 24 24 23 21 21 23 22 22 22 23 24 24 22 22 23 25 24 23 23 22 23 23 22 22 22 23 23
41 43 38 42 44 45 40 36 36 34 35 37 39 37 34 31 29 35 39 40 41 34 27 25 26 27 25 24 24 23 22 21 20 19 20 21 22 23 24 24 25 32 26 24 23 24 24 24 24 23 21 21 22 23
43 46 44 41 43 42 38 36 35 37 38 40 38 37 37 40 39 40 40 39 27 24 24 24 24 25 25 24 24 23 21 20 18 17 18 19 22 22 25 25 25 24 25 22 31 30 25 24 23 23 23 22 23 23
45 48 43 43 38 36 39 39 37 38 38 40 40 40 40 40 41 42 33 26 23 22 24 24 24 24 24 23 22 22 22 21 20 19 18 20 21 23 25 24 24 24 24 24 22 21 29 25 26 25 25 25 25 24
46 45 41 39 37 40 40 39 43 43 42 37 39 39 39 40 40 37 28 25 24 23 24 24 24 24 25 24 22 21 20 22 22 22 22 23 23 24 24 25 25 25 25 24 22 22 24 24 24 25 25 25 26 27
37 35 37 38 39 41 39 40 40 42 42 39 39 40 41 41 39 41 33 27 24 24 29 26 24 24 24 25 25 25 28 22 22 22 23 23 23 23 24 24 25 26 26 26 26 25 25 25 26 26 26 27 28 28
34 36 36 41 40 39 41 42 42 43 40 39 41 42 42 41 39 37 33 29 25 25 25 26 26 25 25 26 25 24 27 23 25 29 29 28 28 26 24 23 24 25 26 25 26 27 27 27 27 27 27 28 28 28

GFSWCAN_sfc_dewp_018.txt.gz
Dewpoint
50 49 49 49 49 50 50 50 51 50 50 49 49 49 49 49 49 46 43 43 43 39 35 35 34 33 31 32 30 31 31 32 32 30 30 28 27 29 26 24 28 29 29 30 29 29 26 43 49 48 51 55 55 57
50 50 49 49 50 50 50 50 50 51 51 50 50 50 50 50 50 49 43 44 46 41 39 39 38 37 35 34 33 37 34 31 33 30 33 30 30 32 32 27 32 27 35 34 32 32 38 48 47 54 55 54 55 56
49 50 50 50 50 50 50 50 50 51 51 51 50 50 51 51 50 49 46 46 44 41 36 35 36 38 39 38 37 34 33 34 36 40 38 36 33 35 29 31 34 34 40 37 37 38 43 50 53 54 54 55 54 57
50 50 50 50 50 50 50 50 50 50 51 51 50 51 51 52 51 50 47 46 45 41 34 32 37 37 38 39 39 37 36 36 39 43 38 34 34 38 35 36 34 35 38 37 38 39 47 52 53 53 54 54 54 56
49 50 50 50 50 50 50 50 50 51 51 51 51 51 51 51 52 50 49 47 47 41 33 34 37 36 37 36 38 39 37 36 36 38 37 36 38 37 38 38 36 38 36 36 35 42 45 48 52 54 53 55 54 55
49 49 50 50 50 50 50 50 51 51 51 51 52 52 52 52 51 45 39 45 47 46 39 34 36 37 36 36 36 37 38 37 36 33 35 39 39 39 35 34 38 42 43 44 45 50 50 52 54 54 54 56 57 56
49 50 50 50 50 50 50 50 50 51 51 51 51 51 52 51 49 43 40 45 47 47 40 35 35 36 37 41 40 38 38 36 35 37 36 35 38 41 38 32 36 41 43 46 49 50 51 53 52 55 56 56 55 56
50 50 50 50 50 50 50 50 51 51 51 51 51 52 52 51 50 47 49 49 49 44 41 34 35 37 42 38 37 38 36 35 39 38 40 38 41 41 35 39 41 43 43 46 48 51 52 54 54 54 55 55 54 53
49 49 50 50 50 50 50 50 51 51 51 51 51 51 49 46 45 45 50 51 49 42 34 34 33 34 43 42 43 42 43 38 43 39 40 41 38 34 37 38 41 43 45 47 51 51 52 53 53 54 54 54 54 54
49 49 49 50 50 50 50 50 50 51 51 50 44 40 40 44 48 51 46 42 41 41 40 34 37 34 39 40 41 40 42 38 35 37 41 37 35 39 41 43 47 47 49 50 49 50 52 51 52 52 53 53 54 54
49 49 50 50 50 50 50 50 50 50 47 43 41 39 44 48 48 45 39 38 38 34 35 36 36 35 42 37 39 42 36 36 32 36 35 33 33 41 46 47 51 52 52 52 52 51 51 51 52 52 51 52 53 53
50 49 49 49 50 50 50 50 50 49 44 46 47 48 45 43 42 39 37 38 36 34 40 38 41 40 42 45 41 41 36 34 33 42 35 32 38 45 49 50 52 53 52 53 53 52 52 52 50 52 53 53 54 53
48 48 48 49 50 50 51 50 50 51 49 46 42 39 40 42 38 37 34 38 40 44 43 45 44 45 46 47 43 41 38 37 42 34 31 40 45 46 47 49 50 53 53 53 53 54 53 51 50 50 51 52 53 52
48 48 50 50 50 50 50 51 51 48 45 41 38 34 39 38 39 41 40 41 45 45 43 43 44 43 43 39 43 38 41 39 35 32 35 42 44 44 44 45 45 46 50 49 49 49 47 46 45 45 47 49 49 50
48 50 50 49 49 50 51 51 50 47 44 40 41 36 37 42 42 41 43 43 44 42 42 43 41 41 40 41 41 38 37 34 35 36 41 45 45 44 42 42 42 43 43 44 43 42 42 42 41 41 43 45 44 42
50 49 46 49 49 50 50 49 49 46 44 43 41 39 40 38 36 36 35 35 38 41 42 42 40 39 40 40 38 37 34 34 39 44 46 45 44 43 41 40 38 37 40 39 39 42 40 39 40 41 41 40 39 40
49 45 48 49 50 50 49 46 42 42 42 40 40 41 41 40 39 37 35 33 35 37 40 41 39 39 41 38 38 41 39 42 44 45 46 46 45 42 38 34 34 34 33 33 34 35 37 40 39 39 38 38 38 38
45 45 48 49 50 48 47 43 42 41 39 40 39 40 41 40 39 38 38 37 33 34 40 40 41 37 36 35 37 42 45 46 44 42 42 42 41 41 38 36 34 33 32 34 34 35 36 37 37 38 38 38 37 36
47 48 49 50 50 46 42 41 42 38 39 41 41 41 40 40 40 40 38 38 37 35 35 36 36 35 36 39 40 41 42 44 43 41 40 39 37 36 36 34 31 29 28 29 30 32 35 37 37 37 37 36 34 34
49 50 51 51 50 43 38 40 42 39 38 41 43 41 40 39 40 39 39 38 37 37 36 34 35 37 38 38 41 42 42 41 42 34 31 32 32 29 29 30 29 28 26 26 26 30 30 32 33 37 35 34 32 32
48 50 51 50 48 43 40 39 39 40 40 41 42 41 40 41 39 38 39 39 38 38 36 37 37 36 35 34 34 37 38 36 35 34 33 29 31 29 28 28 27 26 25 25 25 26 27 27 29 34 32 30 29 29
46 50 48 49 46 44 42 43 40 42 43 42 42 41 39 38 37 38 39 38 38 39 39 38 38 38 33 33 33 33 37 36 34 31 31 30 27 28 28 28 26 25 25 26 26 25 25 27 30 32 30 28 28 27
49 48 48 47 43 37 38 45 41 42 39 40 41 38 39 39 39 40 38 39 40 41 41 39 39 36 32 32 32 32 33 33 30 27 26 25 25 26 26 26 26 25 23 23 25 25 26 30 31 30 29 28 26 25
49 46 43 43 42 38 43 41 43 42 42 39 37 35 38 40 41 37 35 37 39 41 39 39 36 29 29 30 28 28 29 29 29 28 28 25 24 24 25 25 25 24 24 23 24 25 26 27 29 26 26 24 24 23
38 40 40 33 41 39 39 39 38 38 38 39 36 37 38 39 36 34 34 36 38 39 39 39 32 29 26 26 26 26 27 26 25 25 25 26 24 23 24 24 25 25 25 23 23 25 25 25 25 26 25 24 23 22
32 39 35 38 39 38 39 37 38 38 38 38 41 42 39 36 32 30 34 37 38 39 40 39 32 26 25 25 23 23 23 24 24 23 23 24 24 23 23 23 22 23 25 24 23 24 24 24 23 23 23 25 29 23
32 36 40 43 42 42 40 40 39 34 33 35 38 39 35 30 27 30 37 39 39 40 41 35 33 26 24 22 22 22 21 22 24 23 23 23 24 24 24 23 24 24 27 25 24 24 24 24 23 22 22 23 24 23
40 41 36 41 42 43 40 36 35 33 33 36 38 35 33 30 26 32 38 39 40 29 27 27 27 26 24 23 23 22 21 20 21 21 21 23 23 24 25 25 26 32 27 27 25 26 25 25 24 23 23 23 23 24
42 44 43 39 43 43 40 37 35 36 37 39 38 36 36 38 37 38 40 35 26 25 26 25 25 25 24 24 23 22 21 20 19 18 19 21 22 23 25 25 25 25 25 24 31 31 28 25 25 24 24 24 24 25
43 46 41 41 39 36 38 39 40 39 39 41 39 39 39 40 41 42 31 25 24 25 26 26 25 24 23 23 22 23 22 22 21 20 20 21 22 23 25 25 25 25 25 24 23 24 30 27 28 27 27 27 27 28
46 46 43 41 39 39 42 41 43 45 44 41 39 37 38 39 41 37 30 26 25 26 25 24 24 25 24 23 23 22 21 22 23 25 23 23 23 24 25 25 25 26 26 25 25 25 25 25 26 26 27 27 28 29
42 43 41 38 38 41 39 39 39 40 42 41 41 41 42 41 40 40 33 26 26 25 29 26 24 24 25 25 26 25 28 22 23 23 25 24 24 24 24 24 25 26 27 27 27 26 27 27 27 28 28 28 28 28
35 36 38 41 39 38 40 40 39 40 41 38 40 41 42 41 40 41 34 30 27 25 26 26 26 26 27 29 27 26 28 24 27 29 29 30 29 27 25 23 25 26 26 26 27 27 28 28 29 30 30 29 27 28

GFSWCAN_sfc_dewp_021.txt.gz
Dewpoint
49 49 48 49 50 50 51 51 51 51 50 50 50 50 50 50 52 50 46 47 45 39 38 37 36 33 33 33 31 29 31 34 36 31 29 25 28 28 27 21 20 27 29 29 24 21 19 27 33 34 50 54 55 56
49 49 49 49 50 51 51 51 51 51 51 51 50 50 51 52 51 52 45 46 47 42 39 39 38 38 37 34 33 37 33 33 36 34 34 33 30 31 30 24 30 25 26 33 25 21 31 36 42 50 55 55 56 56
49 50 50 50 50 50 50 51 51 51 51 51 50 51 51 52 52 52 47 46 44 41 38 35 34 35 38 39 37 33 34 34 35 39 38 37 32 35 31 29 31 32 37 35 31 29 33 36 40 46 53 55 56 57
49 49 50 50 50 50 51 51 51 51 51 51 50 51 51 52 52 52 48 47 45 42 35 34 36 36 37 38 39 37 34 35 39 42 37 36 34 38 34 33 34 34 35 33 35 37 39 37 38 45 52 54 57 56
49 49 50 50 50 50 50 51 51 51 51 51 51 51 52 52 52 52 51 48 48 42 36 35 38 36 36 38 38 38 36 35 36 38 37 35 38 37 37 37 35 35 35 34 30 38 42 43 47 51 51 55 56 56
50 50 50 50 50 50 51 51 51 51 51 51 51 52 52 51 51 47 42 47 49 47 40 35 37 38 38 38 38 38 37 36 36 35 34 37 36 39 36 34 34 38 39 41 41 42 44 46 48 49 52 56 57 58
50 50 50 50 50 50 50 51 51 51 51 51 51 52 52 51 50 45 42 46 48 48 39 36 34 37 38 40 39 38 38 37 38 38 37 36 36 40 37 33 36 37 41 41 42 43 42 45 46 51 56 57 57 59
49 49 50 50 50 50 50 51 51 51 51 51 51 52 51 51 50 47 50 49 48 44 41 35 36 37 43 40 40 39 37 37 38 38 39 38 41 39 34 38 39 42 43 43 44 43 44 48 50 54 57 58 56 54
49 49 49 50 49 49 49 50 50 51 50 51 50 51 48 47 45 47 50 50 49 43 35 35 33 35 42 41 44 43 40 36 42 36 39 40 38 35 38 40 40 41 42 42 45 47 47 49 51 53 55 55 53 53
49 49 49 49 49 49 49 49 51 51 51 48 48 41 43 47 49 49 46 42 41 42 39 33 36 34 39 39 40 40 42 38 35 37 40 36 35 40 41 42 43 44 45 46 45 45 48 50 51 54 54 55 55 54
49 49 48 48 49 49 50 51 51 51 49 46 44 42 46 48 49 46 40 38 38 34 35 36 36 35 42 37 38 42 36 35 33 36 34 33 33 39 46 51 52 52 51 51 50 51 50 50 52 54 54 55 54 55
49 48 48 48 50 51 51 50 50 49 48 47 47 48 47 45 44 41 40 40 38 36 41 39 41 40 41 44 41 41 35 35 33 41 36 32 36 43 47 47 48 50 50 52 52 52 51 53 55 55 55 55 55 53
48 48 48 49 50 51 50 51 51 50 50 48 45 43 43 44 36 36 33 36 39 44 45 45 44 47 47 47 44 42 39 37 43 36 32 34 41 43 44 46 46 47 47 47 48 50 51 52 52 52 52 52 50 49
48 48 49 50 51 50 51 51 51 49 48 44 42 37 40 38 38 38 38 40 43 45 43 45 46 44 45 42 43 38 41 40 36 32 32 38 40 42 44 45 45 45 47 46 47 47 47 47 47 46 45 47 44 43
48 49 50 49 49 51 51 51 51 50 47 44 43 37 39 41 41 40 43 43 40 37 44 45 43 42 42 41 41 39 37 35 33 33 37 41 41 41 41 42 41 41 43 44 45 45 45 45 45 44 44 43 43 43
49 49 47 49 50 51 50 50 49 48 50 45 42 39 40 35 34 36 37 36 36 38 44 42 40 39 40 41 38 36 34 34 38 41 43 43 41 40 39 38 38 39 41 41 42 43 42 40 41 41 41 41 42 42
50 46 48 49 50 50 50 48 48 45 43 41 40 43 43 42 39 36 36 36 39 37 39 40 37 38 43 38 36 40 36 39 41 41 42 42 41 39 37 35 36 37 38 40 40 41 41 40 40 39 38 39 38 39
46 47 49 50 51 50 48 47 44 42 39 43 38 38 40 43 40 38 39 39 36 36 37 38 39 38 35 34 36 40 43 45 42 40 36 37 39 39 36 35 36 37 37 38 39 39 40 39 38 36 37 36 36 36
48 49 50 51 51 49 44 44 45 40 41 42 43 42 41 43 42 41 39 40 40 39 38 36 35 36 36 39 39 40 42 45 41 37 34 36 37 36 36 34 34 33 34 35 35 35 36 38 36 35 34 33 32 32
50 50 51 51 50 45 41 44 45 42 40 45 46 41 40 40 40 38 38 38 38 34 33 33 34 35 37 37 40 41 40 41 39 32 31 31 31 33 33 30 28 29 27 30 29 34 34 34 33 31 31 32 30 29
49 51 51 52 50 46 43 42 42 43 43 44 45 43 44 43 40 38 37 39 35 37 34 41 36 36 38 38 37 38 37 36 34 34 33 29 30 29 27 26 26 24 23 23 24 27 32 32 31 29 28 27 26 26
49 50 51 52 48 45 46 46 44 46 46 47 47 45 44 42 40 40 40 36 38 43 44 40 37 36 35 38 37 38 38 37 36 31 32 31 26 25 25 24 22 21 22 24 25 26 30 31 28 27 26 25 26 24
50 50 50 49 45 42 44 50 45 45 43 43 46 42 44 43 44 42 38 40 42 43 42 40 42 39 36 36 37 36 36 34 29 27 27 26 26 26 24 23 22 22 22 24 27 29 30 30 28 26 25 24 24 23
49 49 47 45 44 41 46 44 47 47 46 43 42 40 42 46 45 39 37 38 39 42 41 43 37 34 33 36 30 29 30 31 28 27 27 25 24 25 25 23 22 22 24 24 25 27 27 25 27 23 22 22 22 21
43 43 43 39 45 43 41 41 41 41 40 42 40 41 43 45 40 37 35 36 39 40 41 41 34 31 28 29 28 27 30 26 24 24 25 26 24 24 24 24 24 24 23 22 22 22 22 22 22 22 21 21 21 21
37 42 42 41 43 42 42 39 40 39 39 40 42 45 44 40 29 27 35 38 40 40 38 37 34 29 27 27 26 25 24 24 25 22 24 24 24 23 23 22 21 22 25 24 23 23 22 23 22 22 21 23 27 21
37 40 45 47 46 45 44 43 42 36 33 37 41 42 38 31 25 30 38 40 39 40 41 36 34 30 27 25 24 24 23 24 26 24 25 25 24 25 24 23 23 24 27 25 24 23 23 22 22 21 21 22 22 22
44 45 41 45 47 45 42 39 37 33 32 38 40 37 33 30 27 33 37 41 40 34 29 29 29 26 23 24 24 24 23 22 22 23 22 24 24 24 26 25 25 31 27 26 25 24 24 23 23 22 22 22 24 26
45 45 43 42 43 44 44 40 36 35 37 38 39 35 35 39 38 37 41 37 30 27 27 27 26 25 25 24 24 22 22 21 22 21 20 20 20 21 24 25 25 25 25 24 32 30 27 24 24 24 25 25 27 29
44 46 42 42 41 39 40 41 44 42 40 41 41 40 40 43 43 43 37 30 28 27 27 27 26 25 25 24 24 23 22 22 21 21 20 21 22 23 24 25 26 25 25 24 23 25 31 28 28 27 27 27 27 27
47 46 44 43 42 42 43 42 44 45 44 43 41 38 42 44 43 43 44 37 28 28 26 25 25 26 25 25 25 24 23 23 24 24 24 23 23 24 25 25 25 26 26 25 25 25 25 26 26 26 27 27 27 27
46 46 44 41 41 42 42 40 39 40 43 42 41 42 43 44 43 46 40 32 27 27 31 28 25 25 26 26 27 27 29 24 24 24 25 25 25 25 25 24 25 25 27 26 27 27 27 27 27 27 27 26 26 27
39 39 40 41 41 40 41 42 41 41 41 40 41 42 42 40 40 42 38 31 29 27 28 27 26 27 30 28 28 28 29 27 27 30 30 30 31 29 25 25 25 26 26 26 27 27 27 28 27 28 28 27 26 27

GFSWCAN_sfc_dewp_024.txt.gz
Dewpoint
50 50 50 50 50 50 50 51 51 51 51 51 51 50 51 51 52 51 48 49 45 40 38 37 35 34 33 33 32 29 30 31 33 32 25 20 20 24 20 18 18 20 19 18 20 20 18 21 24 31 45 50 49 50
50 50 50 50 50 50 51 51 51 51 51 51 50 51 51 52 52 52 48 48 49 43 39 40 40 39 37 36 34 37 29 31 31 34 38 35 28 28 27 20 23 20 20 20 22 20 29 28 31 36 38 42 49 48
49 49 50 50 50 51 51 51 51 51 51 51 51 51 51 52 52 52 49 47 45 42 40 39 35 35 37 37 36 35 33 32 31 32 32 35 32 29 29 25 28 28 29 26 26 26 30 32 32 34 38 41 42 47
49 50 50 50 50 51 51 51 51 51 51 50 51 51 52 52 52 52 51 47 47 43 37 34 36 35 37 36 36 37 34 35 35 37 39 37 35 32 31 29 28 27 30 31 32 33 31 31 34 36 38 43 47 47
50 50 50 50 50 51 51 51 51 51 50 51 51 52 52 52 52 53 54 49 49 43 38 36 39 37 36 37 36 38 36 34 36 38 37 36 38 36 33 32 31 31 32 29 28 32 33 35 36 43 44 45 47 49
50 50 50 50 50 50 50 51 51 51 51 51 52 52 51 51 51 47 43 47 50 48 41 36 36 37 37 37 37 38 37 36 35 37 33 34 34 38 38 35 33 33 35 36 35 37 37 39 40 42 44 44 45 49
49 49 50 50 50 50 50 50 51 50 51 52 52 52 52 51 48 45 44 47 49 49 40 36 36 37 38 40 39 38 40 39 38 39 37 35 33 40 37 33 33 34 36 39 39 40 41 39 40 42 45 47 48 53
49 49 49 50 49 50 50 50 50 50 51 52 51 51 52 51 50 48 50 49 49 45 42 35 36 39 44 42 41 43 39 40 39 37 38 38 39 39 35 35 38 40 41 41 41 41 41 42 42 44 49 52 55 56
49 49 50 49 49 50 50 50 51 51 52 51 50 51 49 47 46 48 51 49 50 44 36 35 34 35 43 41 43 41 40 35 40 36 37 40 37 33 37 39 39 41 42 41 43 43 43 45 45 46 49 51 50 56
49 49 49 48 49 49 50 51 51 51 51 49 49 44 44 46 51 50 46 43 42 42 40 34 37 33 39 39 40 40 41 36 35 37 38 34 33 37 40 45 49 44 42 44 42 43 45 47 47 48 51 51 53 56
49 48 49 49 49 50 51 51 51 51 50 48 45 44 47 49 49 47 43 39 39 37 38 37 37 36 42 37 38 41 38 36 34 37 35 33 33 38 44 45 48 50 46 45 46 47 49 50 50 51 53 56 56 55
48 48 49 49 50 50 51 51 51 50 49 48 47 48 48 45 44 41 40 41 41 40 45 42 44 41 42 44 41 42 38 39 36 44 37 32 35 41 43 44 46 48 51 51 50 50 52 52 52 53 52 52 53 53
49 48 49 49 50 51 51 51 51 50 50 49 47 44 42 43 37 36 33 38 38 42 43 44 44 47 47 47 46 44 38 38 44 38 32 34 39 42 42 43 45 46 47 47 48 49 47 47 47 48 48 50 51 51
48 48 49 50 51 51 51 51 51 50 49 44 41 38 39 38 39 39 40 40 40 41 39 42 44 44 44 42 42 38 40 36 34 33 33 39 42 43 43 43 45 45 45 46 46 47 46 46 46 47 48 50 50 49
49 49 50 50 50 51 51 51 51 50 43 41 39 39 38 37 36 37 38 38 38 39 42 40 39 37 39 39 41 39 38 35 35 34 39 43 43 42 42 42 44 44 45 45 45 45 45 45 45 44 45 45 46 48
50 50 49 49 51 51 51 51 48 45 45 39 39 36 37 34 33 34 36 36 38 39 44 40 39 39 39 41 38 37 36 33 36 40 41 39 40 40 40 41 42 42 42 42 42 43 44 45 43 43 42 44 43 43
50 48 49 50 51 51 50 47 44 42 38 37 35 36 36 36 35 35 35 35 38 37 36 38 37 38 41 37 37 38 36 38 40 38 34 39 41 41 41 40 40 41 41 42 43 42 40 40 41 41 41 41 40 40
49 49 51 50 51 51 48 45 41 39 36 39 36 39 38 37 35 35 35 35 36 36 37 35 35 34 36 35 35 40 44 46 39 35 34 38 40 41 39 39 39 39 39 40 40 40 40 39 38 36 38 38 36 36
50 50 50 51 51 49 43 44 45 38 38 39 40 40 39 37 35 36 36 36 35 35 35 32 32 33 32 33 32 31 33 36 36 33 34 37 39 40 37 35 35 34 34 36 36 35 36 38 35 34 33 33 31 31
50 50 50 51 51 46 40 44 47 41 39 40 42 40 40 40 34 34 34 34 32 33 32 30 29 30 30 32 33 32 31 32 31 32 32 33 31 34 35 32 28 29 26 29 27 33 32 33 32 31 31 31 30 29
50 52 52 53 52 48 45 44 43 44 43 42 45 43 42 41 36 33 33 33 31 31 30 32 31 32 40 39 36 34 33 34 30 30 29 26 27 27 27 25 26 24 22 22 23 26 31 30 30 29 29 28 27 26
52 51 53 53 49 47 48 49 46 47 45 44 45 44 41 39 37 34 35 32 33 35 35 35 35 35 35 38 38 39 39 39 36 30 32 29 25 25 24 23 22 22 22 23 26 27 28 28 28 28 27 26 27 24
51 52 52 50 46 45 45 51 46 47 44 44 44 41 42 41 42 41 32 34 35 38 38 36 41 43 39 39 40 38 37 34 27 27 26 24 26 26 24 23 22 22 22 24 26 27 27 30 27 26 25 24 24 23
50 50 47 45 45 43 47 45 47 47 47 44 42 39 40 42 44 37 30 32 33 38 35 40 32 28 32 38 28 28 29 26 24 24 26 24 22 24 25 23 22 21 22 22 22 23 23 23 26 22 22 21 21 21
45 44 45 40 47 42 37 37 40 40 35 41 39 39 42 45 39 32 28 29 33 33 33 33 31 28 25 24 26 27 32 25 23 24 25 23 23 22 22 23 25 24 22 22 22 22 22 22 23 23 22 22 23 22
40 43 43 41 44 41 40 33 34 33 32 38 39 44 44 40 28 25 29 32 34 34 34 33 31 27 25 26 24 23 24 25 25 23 23 22 22 22 22 22 21 22 24 23 22 22 23 22 22 23 21 23 27 22
39 39 45 48 46 44 43 42 41 35 29 32 37 40 38 29 25 28 32 35 34 35 36 33 31 29 27 25 27 27 26 26 27 24 24 24 23 24 23 22 23 23 24 24 23 23 22 22 22 21 21 22 23 23
44 44 40 44 45 43 40 40 36 32 30 34 35 33 31 28 31 33 34 37 38 36 30 30 30 28 26 26 25 25 25 24 24 24 22 22 24 23 25 23 24 31 26 24 24 24 23 23 22 22 23 23 24 26
45 45 43 42 42 42 42 39 36 35 36 34 35 33 33 37 38 36 40 38 35 35 30 29 28 27 27 27 27 25 24 22 22 22 22 20 21 22 23 23 24 24 24 23 31 27 26 24 25 24 26 26 26 27
43 45 42 40 39 37 39 40 40 41 38 37 39 40 39 40 42 42 40 38 44 35 33 31 27 27 27 25 24 25 24 23 22 21 21 21 22 23 24 24 24 24 24 24 22 24 30 28 28 26 26 26 26 26
46 45 43 42 38 39 42 43 43 43 42 39 39 38 38 43 43 44 43 44 42 32 28 27 27 28 27 25 23 22 22 24 25 26 24 23 23 24 25 25 25 25 26 25 25 25 25 26 26 26 26 26 26 26
44 44 42 38 35 43 44 42 41 40 41 41 40 41 42 44 43 44 38 39 37 32 29 29 29 27 26 24 24 25 27 24 25 26 27 26 26 26 25 24 24 25 26 26 27 27 27 27 27 28 28 28 27 26
40 39 40 38 38 39 40 40 41 41 41 40 42 43 43 41 41 41 37 33 31 29 30 29 27 28 30 27 27 26 28 27 29 29 29 29 29 29 25 25 25 25 26 26 27 28 29 29 29 30 29 29 29 27

GFSWCAN_sfc_dewp_027.txt.gz
Dewpoint
50 50 50 50 50 51 51 51 51 52 51 51 51 51 52 52 52 52 50 50 45 40 39 39 38 36 35 32 32 30 30 29 25 30 27 23 13 25 22 19 20 21 20 21 23 23 23 25 25 34 43 45 47 48
50 50 50 50 50 51 51 51 51 51 52 51 50 51 52 52 53 52 49 50 50 44 40 41 41 40 39 36 35 37 32 32 31 33 38 35 22 22 24 18 20 21 25 19 22 23 31 32 32 31 34 39 42 45
50 50 50 50 51 51 51 51 51 51 52 51 51 52 52 52 52 52 51 48 47 42 41 39 37 38 38 37 36 37 34 34 32 32 32 30 31 27 28 19 23 28 29 22 26 28 28 30 30 32 34 35 37 39
50 50 50 50 50 50 51 51 51 51 52 51 51 52 52 53 52 52 51 48 47 44 37 36 36 36 36 37 35 36 36 35 35 34 37 36 33 30 29 30 28 26 28 27 27 29 30 30 32 31 32 34 37 41
50 50 50 50 50 50 51 51 51 51 51 51 51 52 52 52 52 51 54 48 48 45 39 38 39 37 36 36 37 35 36 36 34 36 37 34 31 31 30 29 26 27 28 26 26 32 33 35 34 34 33 36 42 44
50 50 50 50 49 51 51 51 51 50 51 51 52 52 52 52 51 49 47 51 51 49 42 37 37 39 40 38 37 38 37 37 37 40 36 35 33 36 37 35 33 32 33 34 32 33 33 36 34 35 34 38 40 41
50 50 50 50 50 51 50 50 50 51 51 52 52 52 52 51 49 45 43 45 50 50 41 37 39 42 42 42 44 44 44 44 42 39 37 38 39 40 37 33 33 34 38 39 37 39 40 37 39 39 38 39 41 40
49 50 50 50 50 50 50 50 50 51 52 52 52 52 51 50 48 48 49 49 50 45 42 36 37 40 44 41 41 43 40 40 38 37 37 37 38 38 34 37 40 41 41 41 40 40 39 40 41 42 43 44 43 46
49 50 49 49 50 50 50 50 51 52 52 51 51 52 50 48 46 49 50 49 50 45 37 36 34 34 42 41 43 41 39 35 39 35 35 37 36 33 37 36 36 39 40 39 42 42 42 42 42 43 43 43 43 47
50 50 49 50 50 50 51 51 52 52 52 49 49 47 45 47 51 49 47 44 43 43 41 36 39 35 40 40 40 41 40 37 36 38 38 34 33 37 40 44 49 45 41 40 41 41 41 43 44 44 45 44 45 51
50 48 49 50 50 50 51 51 52 52 50 48 45 44 48 52 49 48 45 44 44 44 43 42 40 39 42 38 39 42 39 38 35 40 38 34 33 38 43 45 48 49 44 42 42 43 44 46 47 48 48 49 50 53
49 48 49 49 50 51 51 51 51 51 48 48 48 48 50 45 43 41 42 42 43 44 44 45 45 44 45 44 42 44 43 43 37 40 37 33 37 42 43 45 46 47 48 48 49 48 50 51 52 53 52 53 52 51
49 50 50 50 50 51 51 52 52 50 50 51 46 43 42 42 41 39 35 39 39 39 40 41 44 44 47 48 47 43 32 35 34 36 33 37 42 43 44 45 46 48 47 47 47 47 47 48 50 50 50 51 51 50
50 50 50 51 51 51 52 52 51 51 50 40 37 41 39 38 38 41 41 38 38 39 39 41 45 41 40 42 40 39 36 34 34 33 34 41 42 44 44 46 46 45 46 48 47 46 46 46 46 47 49 49 49 48
50 51 51 51 51 51 52 52 52 51 41 39 38 40 37 34 34 34 35 36 37 38 39 40 37 35 36 37 39 37 36 37 36 35 38 36 43 43 42 42 42 43 45 44 47 48 46 46 45 45 47 47 48 48
50 50 51 51 51 51 51 51 48 44 41 38 36 33 32 30 28 29 32 34 37 37 45 39 37 37 32 34 36 36 36 34 37 37 34 39 43 43 43 41 42 41 41 40 40 41 44 44 45 46 45 45 45 43
50 49 51 51 50 51 51 48 44 41 39 36 34 35 34 31 31 31 32 33 36 36 34 35 34 35 34 32 36 38 37 38 38 35 34 42 44 44 41 39 39 39 41 40 40 42 41 40 41 40 42 41 39 41
50 50 51 51 51 52 48 44 41 39 36 38 36 36 35 32 32 32 33 34 34 35 35 34 34 32 32 32 33 32 37 46 40 36 38 41 43 42 38 38 38 38 37 37 39 39 39 38 37 34 38 37 36 36
50 51 51 51 51 50 43 43 44 37 37 38 39 36 36 34 34 34 32 33 35 35 34 32 31 30 30 31 30 30 30 29 30 36 38 41 39 37 37 35 34 33 33 33 32 31 34 37 33 32 32 32 31 31
51 51 51 52 52 48 41 44 47 41 37 39 40 38 38 35 33 33 32 32 31 31 30 29 28 29 30 32 32 31 31 30 29 28 29 28 28 33 34 30 26 29 25 29 28 31 29 29 29 30 29 30 29 28
50 52 53 53 52 48 44 41 41 41 41 40 39 39 38 37 34 31 32 32 31 30 30 31 31 33 38 37 35 33 33 32 31 29 27 24 26 26 26 25 25 22 22 23 25 28 30 27 27 27 27 26 26 25
52 52 53 52 48 46 47 47 43 45 43 41 40 39 37 36 35 33 34 32 32 33 33 32 33 34 34 39 36 38 38 38 36 30 33 28 24 25 25 23 22 22 23 24 26 26 26 26 27 26 25 25 28 23
52 53 52 49 46 45 45 48 42 41 39 39 39 37 37 37 38 39 32 33 34 37 37 36 38 40 39 38 38 38 36 34 26 25 26 25 24 26 25 24 22 22 22 23 25 25 25 30 26 23 24 23 23 22
49 52 47 43 43 41 44 41 43 41 42 39 38 35 35 37 40 35 30 31 33 36 34 40 34 29 31 40 29 28 31 27 24 24 26 24 21 23 24 24 23 23 23 23 22 23 23 23 27 23 23 23 22 22
47 44 45 42 44 39 33 33 35 35 32 34 35 36 37 41 35 31 30 30 33 34 35 36 32 29 27 26 23 25 33 24 23 24 24 23 22 21 22 22 24 23 23 22 22 22 22 22 23 23 23 22 23 24
39 42 43 37 40 38 35 33 32 33 32 32 34 38 40 37 32 26 31 33 35 35 35 34 32 30 28 27 24 23 24 24 25 23 23 22 22 21 22 22 21 23 23 23 23 22 23 22 22 23 21 23 27 23
37 36 41 44 41 39 38 37 39 35 31 29 31 33 34 32 29 32 34 37 37 37 41 37 33 32 30 28 28 27 25 26 28 25 26 24 23 23 23 22 23 24 23 24 23 23 22 23 22 22 22 23 24 25
41 42 38 40 40 39 36 36 35 33 31 33 32 32 33 30 33 36 37 38 40 40 46 34 37 32 30 29 26 24 22 22 24 24 22 22 23 22 25 23 24 30 25 24 23 22 24 24 24 25 25 25 26 28
43 43 39 38 39 37 38 36 35 36 36 31 31 30 33 36 38 38 39 39 38 44 38 36 34 30 29 28 27 26 22 21 21 23 22 21 21 21 23 23 23 23 23 24 30 27 25 24 26 26 26 26 26 28
43 41 37 38 36 33 37 36 33 33 35 36 37 37 36 39 42 41 39 39 45 42 38 38 32 30 28 25 23 23 23 22 22 21 21 21 21 22 24 24 24 24 25 25 24 26 31 27 30 28 27 26 26 25
40 39 38 36 35 33 34 33 34 38 41 38 37 37 34 41 43 43 43 44 43 40 35 32 30 29 25 23 22 21 19 23 27 26 25 23 23 25 25 26 25 25 26 26 26 25 26 26 26 26 27 27 28 27
39 39 36 34 33 34 39 36 33 34 34 38 35 39 39 42 45 44 41 41 38 34 32 30 27 26 26 23 23 23 28 24 26 26 27 25 25 26 25 25 26 25 27 27 28 28 27 27 28 28 28 28 28 28
36 33 34 33 34 33 33 34 35 35 35 36 39 41 39 39 42 40 39 36 34 31 29 28 26 27 29 26 27 26 28 28 30 32 31 30 29 29 26 25 25 26 27 28 28 28 29 29 29 30 30 29 29 28

GFSWCAN_sfc_dewp_030.txt.gz
Dewpoint
51 51 51 50 50 51 51 51 52 52 51 50 51 51 52 52 52 53 51 51 45 41 39 40 39 37 38 35 34 32 31 35 37 35 34 34 30 25 22 25 25 21 23 23 25 26 28 32 34 37 46 45 44 46
51 51 50 51 51 51 51 51 51 51 51 51 51 52 52 52 52 53 49 51 50 44 41 42 42 41 41 39 38 36 33 32 30 33 37 32 26 24 28 21 27 24 26 23 25 26 43 35 35 35 36 39 39 42
51 50 50 51 51 51 51 51 51 52 52 51 52 52 52 53 52 52 51 50 48 43 42 40 39 42 44 40 37 35 35 34 32 35 29 27 30 26 28 23 30 32 31 26 29 30 32 30 30 31 34 34 38 36
50 50 50 51 50 51 51 51 51 52 52 51 52 52 52 52 53 52 52 49 48 44 38 38 40 41 41 37 37 36 36 37 36 33 32 35 32 30 27 27 26 26 29 31 30 30 31 30 32 32 32 34 35 36
50 50 50 50 50 50 51 51 51 51 51 51 52 52 52 52 52 50 54 48 50 45 39 39 41 40 42 42 38 37 35 35 33 35 32 32 32 32 30 29 26 26 27 24 25 34 38 39 36 33 33 33 35 36
50 50 50 50 50 51 50 51 51 51 51 52 52 52 52 52 51 51 48 51 51 50 42 37 40 43 43 43 40 41 45 45 45 41 39 39 36 38 35 33 32 31 33 37 37 39 40 39 36 35 37 37 34 35
50 50 50 50 51 50 50 50 50 52 52 53 53 52 52 51 49 44 43 46 50 50 41 37 38 44 45 43 46 45 46 44 42 39 37 38 39 39 36 32 34 34 37 39 38 39 39 40 38 39 39 40 42 41
49 50 50 50 50 50 51 50 51 52 52 52 52 51 51 50 48 47 47 49 49 45 42 37 36 39 44 41 41 44 40 40 39 37 37 37 38 37 33 36 38 39 40 39 40 39 38 41 41 41 41 41 42 40
50 50 50 50 50 50 50 51 52 52 52 52 50 51 50 49 46 47 50 49 48 44 40 38 36 38 43 42 43 42 40 37 40 35 35 35 34 32 34 34 43 44 41 41 40 40 40 40 41 41 41 40 40 41
50 50 49 49 49 50 50 51 52 52 52 50 49 48 47 47 51 49 47 45 44 44 42 41 41 42 41 41 41 41 40 39 36 40 38 33 32 40 44 45 45 46 42 43 41 41 41 42 42 42 41 41 41 41
50 50 50 50 50 50 51 52 52 52 51 49 48 45 49 51 49 48 47 43 43 46 45 45 43 44 43 41 41 43 41 40 37 39 39 34 34 40 44 45 46 48 46 45 44 43 43 44 44 44 44 46 45 48
50 50 50 51 51 51 52 52 52 51 46 47 47 48 50 47 43 40 42 40 41 42 40 41 46 47 45 44 43 44 43 43 34 34 37 33 39 43 43 44 46 46 46 46 46 49 49 49 50 50 50 50 51 51
50 51 50 50 51 52 52 52 52 52 50 52 46 43 42 41 39 38 36 42 39 40 39 39 46 50 50 46 47 44 30 28 34 36 33 37 43 44 44 44 44 47 46 46 46 46 46 47 48 49 49 49 49 48
49 50 50 51 52 52 52 52 52 52 50 42 38 39 37 35 33 33 34 37 38 38 39 41 43 41 37 38 37 37 33 32 31 34 35 41 44 44 44 42 43 44 46 47 46 46 46 46 46 46 48 48 47 46
50 50 50 51 51 51 52 52 52 52 45 38 37 37 33 29 28 29 31 32 34 35 39 45 39 37 35 34 35 35 34 34 35 35 37 43 46 45 43 40 40 41 42 45 46 47 47 46 46 45 46 46 47 48
50 50 52 51 51 51 51 52 53 46 40 36 34 32 31 28 28 29 31 31 34 34 36 36 35 36 33 33 34 36 35 35 35 39 35 39 45 44 43 42 40 39 39 41 42 44 43 45 45 46 45 45 45 45
50 52 51 51 51 51 51 50 45 39 38 35 34 34 32 31 31 31 31 31 35 33 31 32 32 32 34 31 33 38 36 41 39 40 35 43 45 41 41 38 37 39 40 38 41 41 43 42 40 40 41 41 40 43
51 50 52 51 51 52 48 44 41 38 34 35 34 34 35 33 33 32 32 33 34 33 34 33 31 31 32 30 31 31 31 32 37 36 37 42 46 42 37 37 37 37 36 39 39 40 40 39 39 38 40 41 38 37
51 51 51 51 52 51 43 42 45 37 37 36 36 36 36 34 35 35 33 34 34 33 32 31 28 28 29 31 30 30 30 30 28 31 38 41 43 42 39 35 34 33 32 35 35 30 33 39 33 30 30 32 30 30
51 51 52 52 52 52 40 42 47 40 37 37 40 37 36 36 34 32 33 33 32 31 30 29 29 30 30 33 34 31 32 32 30 29 29 27 27 36 35 30 25 32 26 31 30 31 29 28 28 28 27 28 26 25
52 53 53 54 54 50 42 38 43 40 39 40 39 37 36 36 34 32 32 33 32 31 31 32 31 33 39 39 36 35 35 34 33 31 29 26 26 26 27 26 26 23 24 24 26 27 29 27 27 26 26 25 25 23
53 52 53 53 48 45 44 41 40 43 43 41 38 37 37 35 35 35 35 31 33 34 35 35 35 36 36 40 37 38 39 39 39 31 33 30 24 24 25 24 23 23 23 24 25 25 25 25 23 24 24 24 26 23
53 54 52 48 44 45 42 45 43 39 39 38 38 35 34 35 37 39 34 32 32 36 36 37 40 42 40 40 38 39 37 35 27 26 26 26 25 24 24 24 23 23 23 24 24 23 24 29 26 24 24 24 24 23
51 52 48 42 40 40 41 41 39 37 38 37 36 35 37 40 39 37 31 31 32 36 36 41 35 32 33 42 29 29 31 28 24 24 26 25 22 23 23 23 23 23 23 23 23 23 23 24 28 23 24 22 23 23
47 43 46 41 43 39 33 32 32 32 32 33 31 35 37 38 37 34 30 32 34 36 40 41 39 37 34 29 27 26 32 24 23 24 25 24 23 22 22 22 25 26 23 22 22 22 24 23 23 23 23 22 23 24
39 42 42 35 37 35 33 31 34 32 32 28 29 40 39 37 34 33 33 36 36 39 41 40 38 37 37 33 29 26 25 25 26 24 25 23 23 22 22 22 21 24 24 23 23 23 23 24 23 23 23 24 29 25
37 38 40 39 36 35 36 36 37 41 43 36 31 32 37 39 33 36 39 39 39 42 42 42 39 37 37 32 31 26 25 25 29 25 26 25 23 24 23 22 23 24 22 23 24 23 23 24 24 24 24 26 28 26
41 40 37 39 42 38 39 44 43 38 41 39 33 34 36 36 37 40 38 40 41 41 41 37 38 36 32 31 28 26 23 21 22 24 23 24 24 23 25 24 25 31 26 25 23 23 23 24 25 24 25 26 27 27
46 50 47 44 40 40 40 43 40 38 36 36 32 30 30 43 50 43 42 40 39 41 42 38 36 33 30 29 30 28 24 21 21 22 23 21 22 22 24 24 25 25 25 26 31 28 27 25 26 26 27 27 26 28
46 48 44 35 34 36 40 38 41 32 33 33 33 34 41 43 44 41 39 40 41 43 40 35 31 29 27 24 22 22 19 22 23 23 22 21 22 23 25 25 25 25 26 26 27 28 32 28 31 30 28 27 26 27
39 39 36 36 35 34 37 34 32 31 37 38 35 37 41 46 52 44 43 43 39 40 36 31 29 29 26 22 21 22 19 24 28 27 24 24 25 26 25 27 26 27 27 27 28 27 26 26 27 28 28 29 28 28
38 39 37 35 32 32 34 36 32 31 32 34 34 34 41 43 45 43 42 38 33 30 34 30 26 26 27 24 24 24 30 26 27 27 27 25 25 26 25 26 27 28 28 28 29 29 28 28 30 30 29 29 29 28
36 33 34 32 34 35 31 32 33 33 36 39 46 43 36 39 40 40 38 35 33 28 26 26 25 26 28 27 26 26 30 28 29 33 32 32 31 30 26 25 25 26 28 29 31 31 29 30 29 29 29 29 29 28

GFSWCAN_sfc_dewp_033.txt.gz
Dewpoint
51 52 52 51 51 51 51 51 51 51 51 51 52 52 52 52 52 52 50 50 45 40 40 40 41 41 41 40 37 38 35 36 38 33 34 34 33 29 28 30 30 26 28 26 27 30 34 35 33 39 43 39 40 41
51 52 51 51 51 51 51 51 51 52 51 51 52 52 52 52 52 52 49 51 50 44 42 45 44 44 44 43 41 40 39 37 35 34 35 32 26 31 26 31 32 31 34 34 31 36 35 41 37 35 36 37 37 39
51 51 51 51 51 51 51 51 51 51 51 51 52 52 52 53 53 52 51 50 48 43 42 42 41 46 48 47 45 39 38 37 38 39 34 33 31 30 27 30 30 28 33 30 32 32 32 34 35 34 36 35 35 36
51 51 51 51 50 51 50 51 51 51 51 51 52 52 53 53 53 52 51 49 47 44 38 38 43 44 44 42 42 42 39 38 37 38 34 36 34 35 31 31 30 29 30 29 28 34 36 36 41 41 37 38 37 37
50 51 51 50 50 51 51 51 51 51 51 52 52 53 53 52 52 51 51 48 50 45 39 40 42 45 43 43 43 43 42 40 37 36 35 33 34 34 34 33 30 31 30 30 30 33 39 38 40 41 40 39 41 42
50 50 50 50 51 51 51 50 50 51 52 52 53 53 52 52 51 52 47 50 50 50 42 37 42 42 43 43 43 44 46 45 44 41 40 40 40 38 34 32 32 34 36 36 35 37 37 38 38 40 41 41 41 43
50 50 50 50 50 50 50 50 51 52 53 53 53 52 52 52 50 46 44 48 50 50 42 37 39 43 43 44 46 45 45 42 41 38 36 37 38 39 35 32 36 38 39 39 39 39 38 37 37 41 42 43 43 43
49 50 50 50 49 50 50 50 51 52 53 52 52 51 50 50 49 47 47 49 49 43 42 39 39 41 43 42 41 44 41 41 39 38 37 36 37 36 32 37 40 43 44 45 43 41 40 39 39 40 42 43 43 42
49 50 51 51 51 51 50 51 51 52 52 52 51 51 50 49 47 47 50 49 49 45 41 41 39 40 45 43 43 42 41 37 40 36 36 35 33 32 36 39 41 43 44 44 42 43 41 40 40 40 42 42 42 42
50 50 51 51 51 51 51 52 51 52 52 51 49 49 48 49 51 50 47 45 44 43 42 42 44 42 43 42 41 41 40 39 36 40 37 33 32 41 42 43 43 44 45 46 44 39 39 39 39 41 42 44 44 44
50 50 50 50 50 51 51 52 52 52 50 48 50 49 49 51 48 47 48 46 46 46 45 45 44 46 45 41 41 43 40 40 35 39 38 34 33 41 43 44 44 44 44 45 46 47 46 48 47 45 45 46 49 49
50 50 49 50 50 51 52 52 52 50 53 48 49 53 51 49 47 43 44 44 44 43 44 45 48 48 47 45 42 43 41 41 34 38 35 32 39 42 42 44 45 45 44 43 44 45 45 46 48 50 48 49 49 49
50 49 49 50 51 51 52 52 52 52 52 53 52 49 46 46 39 39 34 40 41 42 41 45 47 50 50 46 46 45 36 32 38 36 33 37 42 43 42 42 44 46 45 43 43 44 44 45 45 47 47 48 47 46
50 50 50 51 51 52 52 52 53 52 51 50 45 37 41 40 38 36 34 36 37 37 37 45 48 44 46 44 40 38 36 35 32 31 33 40 42 42 42 40 39 42 46 45 44 44 43 43 45 45 45 47 46 45
50 50 51 52 51 52 52 52 53 52 51 45 42 38 38 34 32 33 36 36 37 37 39 43 42 40 38 38 37 35 32 33 35 35 39 42 43 42 41 41 39 37 38 46 45 44 44 44 44 44 45 45 45 44
50 51 52 51 51 51 51 52 53 54 50 44 41 35 35 32 31 32 34 34 37 38 39 41 38 36 33 35 33 33 32 32 36 41 42 43 44 43 42 41 41 40 38 37 45 45 44 44 43 44 44 44 44 44
51 53 52 51 51 51 52 55 55 46 42 42 40 38 37 37 35 35 36 35 40 37 35 37 33 33 38 32 32 37 36 39 41 40 44 45 44 44 42 41 41 41 40 40 40 43 42 42 41 38 38 42 43 43
51 52 52 51 51 53 57 53 46 41 36 40 39 42 41 40 40 39 41 41 39 38 38 33 37 31 32 28 32 36 37 36 36 38 44 46 45 46 41 41 41 42 40 39 41 40 39 37 38 41 39 37 34 37
50 51 51 51 51 51 51 47 51 44 41 42 44 43 44 43 46 46 42 46 48 44 42 39 34 32 33 37 36 35 36 35 33 36 44 44 44 42 42 40 38 39 42 38 40 39 38 37 34 33 32 30 27 28
51 51 51 52 52 54 49 48 55 48 40 45 46 44 45 44 44 43 42 41 42 39 38 34 33 36 36 39 41 39 39 40 37 35 36 36 34 37 42 37 35 36 34 40 34 34 32 31 32 32 31 29 29 28
53 55 54 54 56 54 49 46 47 47 46 45 47 45 44 46 41 41 41 44 39 39 37 38 38 42 47 47 46 45 44 41 39 37 36 32 35 33 37 35 34 32 31 29 31 30 30 28 27 31 31 29 28 29
55 53 54 57 51 49 49 52 46 50 49 46 45 46 45 43 43 43 45 41 40 42 43 42 44 44 45 45 43 44 44 43 44 40 36 35 32 29 30 31 31 29 31 30 31 28 29 28 28 30 29 30 30 28
54 55 55 53 44 44 44 52 47 46 43 44 46 40 41 43 44 46 41 42 43 46 44 46 47 48 46 47 49 47 45 44 38 36 35 32 30 32 28 29 28 30 29 32 32 28 30 32 31 28 28 28 28 30
53 53 51 48 44 42 46 46 47 43 44 42 41 37 40 45 46 43 40 39 41 43 46 50 46 43 46 48 42 41 41 35 30 31 31 28 26 29 30 29 27 27 28 29 29 30 30 30 31 27 28 26 29 30
46 45 46 39 45 43 37 39 39 43 43 44 41 40 43 47 43 42 39 40 41 42 45 46 45 42 39 39 35 35 38 30 29 30 30 30 29 26 26 29 29 27 26 26 26 27 29 29 30 28 26 26 30 30
38 44 43 39 41 39 35 37 42 43 43 41 38 42 46 44 40 40 41 42 43 44 43 43 41 39 40 41 34 32 34 34 36 31 32 30 28 25 26 26 25 27 27 27 28 26 27 27 27 28 28 28 30 28
37 41 46 48 43 41 47 47 44 44 41 41 39 39 39 36 39 42 49 48 45 46 47 45 41 38 39 39 39 35 33 36 36 35 34 33 30 30 30 27 26 29 29 26 26 26 26 27 27 27 29 30 29 28
45 48 43 46 45 44 44 45 43 45 44 42 40 33 32 38 42 48 51 48 46 46 42 41 44 39 36 36 35 34 34 31 32 32 29 29 28 29 32 28 30 33 29 29 28 27 26 28 27 28 29 30 31 30
44 51 45 42 42 42 46 43 42 44 44 41 38 34 40 44 48 49 46 46 43 42 41 39 39 37 34 36 37 33 30 24 26 27 26 25 26 25 28 28 28 30 32 30 32 30 30 30 30 30 30 30 32 34
43 45 43 42 42 42 42 39 40 40 42 38 43 46 46 50 49 53 48 46 43 40 39 39 35 34 29 24 23 25 26 27 26 26 25 26 26 26 28 29 30 30 30 32 32 32 33 30 33 32 30 30 30 30
42 45 44 42 41 39 36 37 41 39 43 47 51 50 50 51 52 51 44 44 40 39 36 30 28 28 25 24 26 25 25 29 30 30 28 26 25 28 28 31 30 31 32 31 31 30 30 30 31 32 31 31 31 30
38 38 39 39 35 36 41 36 34 36 38 44 47 51 48 51 45 48 42 38 34 30 34 30 27 26 26 26 28 28 32 28 28 29 30 28 28 28 28 27 28 30 31 31 31 32 33 31 31 32 32 31 31 30
41 39 39 38 39 40 38 36 35 35 40 42 46 48 48 42 38 40 44 39 34 28 28 28 27 30 35 32 31 30 30 29 31 33 33 33 33 32 28 28 28 28 31 32 30 31 30 29 30 31 30 32 32 30

GFSWCAN_sfc_dewp_036.txt.gz
Dewpoint
51 51 51 52 52 52 52 52 51 51 51 51 52 52 52 52 53 52 50 50 45 40 40 43 42 41 41 40 36 39 37 35 34 32 32 33 33 33 33 36 35 35 34 31 34 34 35 42 39 34 35 36 36 41
51 51 51 52 52 51 51 51 51 51 51 51 52 52 52 53 53 52 48 51 50 44 43 46 45 46 45 44 41 40 36 34 37 32 34 34 33 34 30 31 36 33 36 35 36 38 42 47 45 40 39 37 40 38
51 51 51 51 51 51 51 50 51 51 51 52 52 52 53 53 53 52 50 50 48 43 42 42 42 46 48 47 48 41 41 37 35 37 34 34 32 33 30 30 30 33 32 36 32 38 35 44 45 42 39 40 40 40
51 51 51 51 51 50 50 51 51 51 51 52 52 53 53 53 52 52 50 49 47 43 38 39 44 44 45 44 46 46 41 39 36 35 32 33 31 34 31 31 30 31 32 32 30 33 35 39 38 40 38 39 41 42
51 51 50 50 50 50 50 50 51 51 52 52 53 53 52 52 52 51 50 48 48 44 39 40 41 43 44 43 44 44 42 41 39 36 36 34 35 35 34 33 30 34 35 34 31 35 36 35 37 38 38 38 42 43
50 50 50 50 50 49 50 50 51 52 52 53 53 52 53 52 52 51 46 49 49 45 40 36 41 41 43 44 44 43 43 41 43 40 38 39 39 36 32 28 32 37 39 39 38 39 38 39 40 39 38 39 43 43
50 50 50 51 50 50 50 50 51 52 53 53 53 52 52 51 48 45 43 47 49 47 39 36 38 41 42 41 42 41 42 41 40 38 36 36 37 38 35 32 38 40 42 43 44 43 41 41 40 39 40 41 44 44
50 50 50 51 50 50 50 50 51 52 52 52 52 51 50 50 49 46 46 49 48 42 41 37 38 39 44 41 40 43 39 39 39 38 38 36 37 35 32 38 40 41 42 43 45 45 43 42 42 40 40 41 43 46
49 50 50 50 50 50 50 51 51 51 52 52 52 52 50 47 46 45 50 48 47 43 40 40 37 38 43 39 39 40 39 37 40 37 36 35 33 32 38 39 41 42 41 43 44 44 41 41 42 40 40 39 41 42
50 50 49 49 49 50 50 52 52 52 52 51 49 48 47 48 51 50 46 44 44 43 40 40 44 39 41 42 41 40 41 38 35 38 38 34 33 41 43 44 44 43 43 43 42 41 43 41 39 39 40 41 42 44
50 50 50 50 50 50 50 52 52 52 50 47 47 47 48 52 47 47 43 41 41 37 40 41 41 41 44 41 41 42 39 39 34 33 34 33 33 39 42 44 46 44 43 43 43 44 44 46 48 43 45 49 48 48
50 50 49 50 50 50 51 52 52 48 50 47 45 50 48 46 45 40 38 39 38 37 43 44 44 44 44 43 41 42 39 38 29 37 34 32 38 41 42 42 45 46 44 42 42 42 43 44 46 46 46 46 45 46
50 50 50 50 50 51 52 52 52 52 51 50 49 45 42 40 32 35 31 33 37 37 39 42 42 45 44 42 41 42 36 31 37 32 32 35 39 40 40 41 42 46 45 44 43 42 42 43 43 43 44 45 45 44
50 50 50 50 51 52 52 52 52 52 49 49 46 30 35 33 33 32 32 33 36 36 36 39 43 43 45 42 37 35 34 34 31 30 33 38 36 39 39 39 38 41 45 44 43 43 42 42 42 43 43 44 44 43
50 51 51 51 52 52 52 52 52 50 50 48 38 30 31 34 33 33 35 34 35 36 37 39 37 36 35 34 35 31 30 29 29 31 35 39 38 39 37 36 37 37 43 43 44 43 43 42 42 42 43 43 43 43
50 51 52 51 51 51 51 52 51 52 52 45 37 32 33 32 32 33 34 34 36 38 37 37 35 33 32 34 32 32 30 29 37 39 39 41 38 37 38 34 35 37 36 44 44 43 43 43 43 43 44 43 42 41
50 50 52 51 51 51 52 52 54 51 41 40 37 36 35 34 34 35 35 34 38 35 33 33 29 30 34 30 30 35 31 33 36 36 40 39 39 39 37 33 33 34 36 35 43 44 43 43 43 43 41 42 43 42
49 51 51 51 51 51 55 52 49 41 40 38 37 39 36 36 35 35 36 38 35 35 33 30 32 27 28 27 30 33 33 32 32 33 40 40 39 39 34 32 28 32 34 33 37 37 39 39 38 37 36 29 28 31
49 49 50 51 50 48 52 47 47 44 41 40 39 41 39 38 40 39 37 36 40 38 36 34 32 30 32 34 33 34 35 34 31 33 37 35 30 31 37 29 27 32 31 30 34 34 34 30 30 30 28 27 27 30
50 51 51 52 52 52 52 46 49 46 40 40 41 41 43 40 38 38 37 35 35 34 32 31 33 35 35 35 37 37 35 35 35 33 32 33 30 29 34 28 27 27 29 28 28 32 26 25 27 28 27 28 27 28
52 54 53 52 52 51 52 46 41 43 41 41 43 43 42 43 40 40 38 39 35 34 34 35 35 40 39 40 38 39 36 35 34 34 33 33 31 27 29 30 26 26 26 28 26 26 27 24 27 29 26 26 28 27
52 54 53 54 52 53 47 48 41 43 44 44 44 44 42 40 41 43 43 37 36 37 39 37 37 40 41 40 38 38 37 35 35 37 35 32 26 26 26 27 26 27 28 28 26 25 25 24 27 27 26 27 29 30
52 53 54 55 49 40 38 47 43 45 43 40 43 43 41 41 44 43 39 40 40 42 39 39 39 39 38 39 42 40 38 37 32 29 28 26 26 27 28 28 28 27 27 27 28 25 25 31 28 25 30 30 30 31
53 53 51 49 43 37 44 44 49 49 45 42 41 39 40 46 49 44 43 43 42 43 43 42 40 38 39 39 38 36 31 29 29 27 27 26 25 26 28 26 26 26 26 27 28 28 28 28 29 25 29 30 32 32
45 43 44 38 44 43 41 41 42 43 41 43 42 39 45 47 40 40 39 45 45 44 46 44 40 38 36 34 32 30 28 27 28 26 26 26 25 25 28 27 25 25 25 26 27 28 28 29 28 26 27 30 29 29
39 44 39 42 42 42 42 40 42 42 44 43 41 43 46 43 40 38 40 45 46 45 43 40 39 37 37 36 30 29 29 29 28 26 26 26 24 23 25 24 22 23 27 26 26 28 28 29 29 29 29 30 33 30
39 40 44 47 46 47 46 47 47 44 43 43 41 43 43 40 39 41 44 47 47 45 43 41 39 37 37 36 31 28 29 30 27 28 28 26 26 27 26 24 23 26 27 28 27 27 27 28 29 29 29 29 28 30
48 46 42 45 44 48 45 47 45 42 43 48 48 42 42 41 41 44 47 48 45 46 42 41 39 37 37 35 32 32 28 29 29 28 28 27 28 28 27 28 28 32 28 28 28 29 30 30 30 30 30 31 31 31
46 50 45 42 43 47 47 46 44 46 50 47 43 43 45 47 48 47 46 46 47 44 40 40 40 37 30 26 26 26 26 26 25 26 27 25 24 25 28 28 30 30 27 27 32 30 27 28 28 29 31 31 31 31
44 47 43 43 42 42 45 46 44 46 47 48 49 48 48 48 49 51 49 47 45 41 35 28 25 24 24 25 26 27 27 26 27 27 26 26 26 27 29 30 29 30 32 32 32 30 33 32 32 31 30 29 29 30
46 47 44 44 42 43 41 44 47 48 48 49 50 49 48 48 49 50 42 37 33 29 27 26 25 25 25 25 26 28 28 28 27 27 27 26 27 28 28 31 31 34 37 35 32 30 30 33 32 32 31 30 29 29
43 44 44 39 39 40 41 41 42 44 46 46 47 50 49 48 44 42 39 34 31 29 32 28 26 27 28 28 28 28 31 27 26 27 27 28 29 29 28 28 31 35 35 37 35 31 31 33 31 31 31 31 30 28
42 41 41 41 38 38 40 39 39 44 45 45 46 48 48 45 38 40 41 37 32 29 28 29 31 30 28 28 28 28 29 28 31 34 34 33 33 30 27 27 28 30 31 32 31 30 30 30 31 31 30 30 29 28

GFSWCAN_sfc_dewp_039.txt.gz
Dewpoint
50 50 51 51 51 52 51 51 51 51 51 51 52 52 52 53 53 51 49 50 45 40 40 42 42 41 41 40 36 36 33 35 34 32 32 32 31 33 34 34 34 33 33 34 37 36 34 41 41 36 37 39 39 40
51 51 51 51 51 51 51 50 51 51 51 51 52 52 53 53 53 51 47 51 50 44 43 46 45 46 45 46 42 41 39 37 36 33 34 34 33 35 32 28 36 33 35 35 37 37 42 46 46 41 38 37 38 41
51 51 51 51 51 51 50 50 51 51 51 52 52 53 53 53 53 51 50 50 48 44 41 41 42 46 49 48 48 41 40 38 37 36 35 35 32 33 30 31 33 35 37 35 33 35 37 42 44 41 40 39 38 40
51 51 51 51 51 50 50 50 51 51 52 52 53 53 53 53 52 52 50 49 47 42 38 38 43 42 46 47 47 46 44 42 37 36 33 34 34 35 33 32 33 36 36 35 33 34 37 38 38 41 42 41 41 39
50 50 51 51 49 49 50 50 51 51 52 53 53 53 52 52 52 50 50 47 45 40 36 37 40 40 44 43 43 43 42 42 40 36 36 35 37 36 34 33 35 39 37 35 33 36 37 37 40 41 43 43 42 41
50 50 50 50 51 50 50 50 51 51 52 53 52 53 52 52 52 51 47 46 46 44 37 33 39 38 40 43 42 41 43 41 42 39 37 38 39 37 33 33 38 41 42 43 40 41 41 40 39 42 42 44 44 43
50 50 50 50 50 50 50 51 51 51 51 53 52 51 51 51 48 46 42 45 48 46 39 36 37 39 41 40 40 40 40 38 40 38 36 36 37 38 34 33 40 41 42 43 43 44 43 42 41 42 42 42 46 46
50 50 50 50 49 49 50 51 51 50 51 52 51 51 51 50 48 46 46 49 46 41 42 40 39 39 39 37 35 39 37 37 39 37 39 36 38 35 32 40 41 41 42 41 42 43 44 44 42 42 42 41 40 47
50 50 50 49 49 49 49 50 51 51 52 52 51 51 49 48 45 45 49 48 46 42 35 39 39 37 41 37 37 37 37 36 39 37 37 37 34 33 37 40 41 41 41 41 42 42 42 43 42 42 43 41 40 40
50 50 50 49 50 49 49 50 51 52 51 51 48 47 45 47 51 49 46 44 44 43 38 38 41 40 41 41 41 40 41 37 35 37 39 34 33 39 39 42 44 43 43 42 41 40 41 43 46 40 40 41 40 41
50 50 50 49 49 50 49 50 51 51 49 46 46 45 47 51 46 47 42 40 41 35 39 39 41 40 43 41 40 41 38 38 30 34 35 33 28 35 39 40 44 45 44 43 42 42 42 43 44 45 46 46 47 47
50 50 50 50 50 50 50 51 51 47 48 47 45 48 46 47 45 39 34 37 36 35 40 41 43 43 42 45 39 41 38 37 28 36 29 29 33 36 38 39 40 43 44 42 42 42 42 42 43 43 43 43 44 44
50 50 50 51 51 51 52 52 52 51 50 48 48 44 42 39 29 32 26 30 32 34 37 43 44 44 45 42 42 41 34 32 35 32 30 33 40 37 37 38 39 42 43 42 42 42 41 41 42 42 42 43 42 42
50 50 50 51 51 52 52 52 52 52 48 47 45 29 33 30 31 31 32 33 35 36 36 36 43 44 44 41 37 33 35 33 29 27 30 35 37 37 38 37 36 38 41 42 42 42 41 41 40 40 41 42 41 40
50 50 50 50 51 52 52 51 52 50 49 45 39 27 30 32 33 34 35 34 34 36 36 37 36 34 34 33 34 30 29 29 31 28 36 38 39 38 37 36 33 35 41 40 41 41 41 42 42 41 41 41 40 40
50 50 51 51 51 51 51 51 51 51 50 48 40 32 33 31 30 33 33 32 34 37 37 35 34 32 32 32 30 30 27 24 30 36 38 40 38 37 36 36 32 32 36 42 41 41 41 41 41 42 43 41 41 41
50 47 51 51 51 51 51 51 53 50 44 39 38 36 33 33 32 34 35 32 36 33 31 31 27 29 32 29 30 33 29 32 36 35 38 38 37 37 38 34 30 31 33 36 42 41 41 42 42 42 41 41 43 42
47 49 51 50 50 50 52 51 49 43 39 39 37 37 36 35 34 36 35 36 32 34 31 29 31 27 27 26 29 32 33 33 33 32 35 39 39 38 37 32 28 33 32 35 34 35 37 38 39 37 33 29 29 38
47 48 50 50 50 47 50 49 46 42 44 39 38 40 38 37 40 37 36 35 37 37 35 33 31 30 31 33 33 33 34 33 31 32 35 33 31 28 30 32 27 30 32 31 26 26 27 30 33 29 27 28 29 30
50 50 51 51 50 50 50 50 48 44 42 38 40 40 41 40 42 40 39 36 34 33 30 30 31 34 34 34 35 35 34 34 34 30 29 30 32 27 31 27 25 28 27 25 26 30 25 26 27 27 27 28 28 28
50 53 52 51 50 49 50 47 40 43 41 39 41 42 42 42 44 44 42 42 34 33 32 34 34 36 37 37 37 36 35 34 31 32 32 33 32 27 26 28 26 26 27 26 24 25 27 25 27 28 27 27 28 29
49 53 52 52 51 52 50 47 40 41 42 42 44 44 43 43 45 46 46 41 36 37 38 38 36 39 40 39 37 37 37 35 32 31 33 30 25 26 26 28 27 27 28 27 25 24 24 25 26 28 28 29 32 32
52 52 52 53 50 39 38 46 41 45 41 41 43 40 42 43 46 48 43 44 43 43 39 37 38 39 39 39 40 41 37 30 27 25 25 25 27 27 26 26 27 27 26 26 28 25 26 30 31 31 31 31 31 30
52 51 50 49 42 37 43 42 47 46 44 40 41 38 41 44 46 42 41 43 44 43 41 42 41 37 37 39 40 36 31 28 26 26 26 26 25 25 26 24 24 24 26 28 28 28 26 26 31 31 32 31 31 31
44 40 40 35 43 42 42 42 40 41 39 42 41 40 44 45 41 39 38 41 44 43 45 43 39 37 33 30 30 28 28 27 25 23 25 26 26 26 24 23 24 25 26 27 28 28 27 27 28 30 30 30 30 28
39 46 38 41 42 40 41 37 40 41 43 42 43 45 47 44 42 37 39 41 44 44 44 41 39 37 36 33 30 28 27 28 27 24 25 24 25 24 22 22 23 23 27 26 27 29 30 30 30 29 30 30 32 30
40 41 41 44 44 44 43 46 45 43 42 43 43 44 43 40 39 41 43 45 45 46 44 43 39 37 36 36 30 34 29 29 27 26 26 25 25 26 25 24 23 24 27 28 28 28 29 29 29 29 28 29 30 30
48 47 41 43 44 45 41 44 44 42 42 46 44 41 42 40 39 42 44 46 47 45 43 40 39 37 35 36 33 35 29 28 26 26 26 27 27 27 26 26 27 32 28 28 29 30 30 30 31 31 31 31 30 31
46 48 44 39 41 44 45 44 45 46 48 46 42 41 44 47 46 45 45 46 46 43 41 36 28 27 26 26 26 27 26 27 26 25 24 24 24 25 27 29 32 27 28 29 33 31 29 30 29 31 31 31 31 30
43 47 42 42 42 41 44 48 46 48 47 47 47 46 47 46 47 48 46 43 32 28 26 26 25 26 26 25 26 26 27 27 27 26 25 25 26 28 30 32 32 35 34 33 32 31 35 33 32 30 30 29 30 30
46 45 43 43 42 42 44 46 48 48 49 48 49 46 45 46 47 42 34 29 27 26 25 24 25 26 27 27 26 25 24 26 26 27 27 27 27 29 30 32 36 39 38 37 33 32 32 32 32 31 30 29 29 30
45 44 43 41 41 44 43 43 43 44 45 45 46 48 47 45 41 39 37 30 27 26 30 28 27 27 28 28 27 27 30 26 28 28 28 27 27 27 29 33 34 37 36 35 32 31 31 31 30 31 31 28 28 28
43 42 43 40 39 40 42 42 43 43 44 44 45 48 46 43 37 38 35 33 28 27 28 28 28 28 26 26 27 28 30 30 32 33 33 33 32 30 27 27 30 31 30 30 30 30 30 30 31 30 29 28 28 28

GFSWCAN_sfc_dewp_042.txt.gz
Dewpoint
50 51 51 51 51 51 51 50 50 51 52 52 52 52 52 53 53 50 47 49 46 41 41 42 42 42 41 40 34 37 34 36 36 33 32 31 31 33 33 33 33 33 32 34 35 36 35 43 39 36 38 38 37 39
51 51 51 51 51 51 49 49 51 51 52 52 52 52 53 53 53 50 47 51 50 44 43 45 45 46 45 45 43 40 37 38 39 35 35 34 33 34 33 29 37 32 35 33 34 36 40 45 42 41 40 39 40 39
51 51 51 51 51 50 49 50 51 51 52 52 52 53 53 53 53 50 50 50 48 43 39 38 39 44 49 47 49 41 39 40 40 40 37 36 33 35 31 32 35 37 39 36 36 37 39 42 41 39 41 41 41 41
51 51 51 51 51 50 49 50 51 51 52 52 52 53 52 52 53 52 49 49 46 40 34 36 41 40 44 45 47 47 44 43 38 37 34 36 34 37 34 35 35 37 38 35 36 35 39 40 40 41 41 42 43 43
50 50 51 51 50 50 50 50 51 51 52 52 53 52 52 52 53 50 47 45 44 41 34 36 38 39 42 42 41 42 42 40 38 37 34 35 37 36 35 36 35 40 37 35 35 38 39 40 42 42 42 42 43 44
50 50 50 50 50 50 49 50 51 51 51 52 52 52 52 52 52 50 46 45 47 46 37 33 38 38 40 42 41 40 42 41 40 37 36 37 37 38 34 33 39 41 42 43 40 43 43 44 45 45 43 44 44 44
50 50 50 50 50 49 49 50 51 50 50 52 52 51 51 51 49 45 41 43 48 44 39 40 37 38 40 38 39 39 38 37 39 38 36 36 37 37 34 32 40 41 41 42 42 42 40 41 42 45 44 43 44 44
50 50 51 50 49 49 49 49 51 51 50 52 52 51 51 50 48 45 46 49 45 40 39 40 41 40 41 37 35 37 35 36 38 37 39 37 38 36 33 39 40 41 42 41 41 42 42 43 44 44 43 43 42 43
50 50 51 50 50 49 49 49 50 51 52 52 51 51 48 46 44 44 49 48 45 41 33 38 36 39 42 40 36 36 36 36 38 38 36 37 34 32 36 39 41 42 41 41 41 41 42 43 43 42 42 43 41 41
50 50 50 50 50 49 49 49 49 51 52 51 47 46 44 47 50 49 46 44 44 43 37 38 42 39 40 42 41 39 40 36 33 36 39 32 31 36 39 40 43 43 43 42 40 39 41 41 42 43 43 45 43 42
50 50 50 51 50 49 49 49 49 51 48 45 44 44 47 50 46 47 43 41 40 35 39 39 41 40 43 41 40 41 36 37 31 34 34 30 28 33 37 39 41 44 43 42 42 42 42 42 42 42 42 43 43 44
50 50 50 51 51 50 50 50 50 47 46 47 45 46 45 46 43 37 33 34 34 34 38 39 41 43 42 45 41 40 37 33 27 35 28 29 36 35 36 38 39 42 43 41 41 40 41 41 42 41 41 41 41 42
49 50 50 50 50 51 52 52 51 50 49 47 46 43 40 37 27 29 24 29 30 32 36 40 43 43 45 43 41 40 31 31 34 30 29 33 37 38 37 37 38 42 42 42 41 41 41 40 41 41 40 41 41 41
49 49 50 50 50 51 52 52 52 51 47 45 44 32 31 28 30 31 31 32 34 35 35 36 41 41 41 38 36 31 33 32 28 19 22 33 35 37 38 37 34 36 41 41 42 42 41 41 40 40 41 41 40 40
49 49 50 50 51 51 51 51 52 49 47 44 39 28 30 31 32 34 34 34 34 35 36 37 35 34 34 32 32 29 28 27 30 25 31 36 37 38 38 36 34 33 40 40 41 41 41 42 41 40 40 41 41 41
49 49 50 51 51 51 51 51 50 49 49 47 43 33 34 32 30 31 33 33 34 35 36 34 33 31 31 31 29 30 27 23 29 34 36 37 38 38 37 37 33 31 34 40 41 40 40 40 40 40 42 42 41 41
49 46 51 50 50 51 51 50 51 49 45 39 37 37 34 33 33 32 34 34 35 32 30 30 26 29 32 29 29 32 29 32 34 34 35 36 37 37 38 38 32 33 34 36 41 41 41 42 42 41 40 37 42 42
46 47 49 50 49 49 51 50 49 45 40 40 36 37 35 35 33 34 36 36 32 33 32 29 31 28 27 27 27 31 34 34 33 32 32 37 38 35 34 34 32 33 35 35 38 38 40 39 39 39 33 31 33 40
47 48 49 50 49 46 48 49 48 40 42 40 38 39 38 36 41 41 40 36 37 37 35 33 30 29 30 33 33 33 33 33 32 32 34 34 33 32 31 34 31 32 33 30 28 28 28 32 32 29 28 30 29 30
50 51 51 51 50 48 49 49 47 43 41 39 40 39 40 43 43 44 44 40 34 33 31 30 30 33 34 35 35 34 34 34 34 29 30 32 33 29 28 31 28 30 28 28 27 30 28 28 28 28 29 30 29 29
50 52 51 50 49 49 49 47 42 42 42 39 40 42 43 45 45 43 42 43 36 38 33 34 37 36 39 40 37 36 34 34 31 32 32 33 33 27 26 28 28 28 29 26 25 27 28 27 29 28 29 29 30 31
48 52 51 51 50 51 49 49 42 41 41 41 44 44 42 43 42 43 44 41 37 39 38 38 37 40 43 38 38 37 37 36 33 31 33 31 26 27 27 28 28 28 29 28 26 25 26 26 28 29 31 32 33 33
51 51 51 53 49 40 39 45 39 43 40 41 42 40 41 42 44 47 43 43 43 44 40 38 40 40 39 40 40 42 38 31 26 26 27 27 27 27 26 26 27 28 27 28 29 27 28 31 32 32 32 31 32 32
51 50 48 47 43 39 43 40 46 44 42 39 40 38 42 44 46 42 39 40 43 43 43 43 40 36 37 40 40 39 35 28 26 26 27 26 25 26 26 25 25 26 27 29 29 28 28 31 33 33 32 32 31 30
43 38 37 31 41 41 40 41 40 40 39 41 39 40 42 44 40 38 37 39 42 43 43 43 39 37 34 35 33 30 30 26 26 25 27 27 27 26 24 25 26 27 27 28 29 28 29 31 32 32 32 31 30 30
38 44 37 40 41 39 39 37 39 40 42 41 42 43 43 41 39 36 38 40 42 43 43 42 40 38 36 33 29 28 29 29 30 25 26 26 27 24 24 25 24 25 27 28 30 31 31 31 31 31 30 30 33 31
39 41 41 43 42 44 43 44 44 43 42 41 42 42 42 38 38 40 42 43 43 45 45 43 40 37 37 37 34 34 31 30 29 28 27 26 26 29 32 28 27 27 29 30 30 32 32 31 30 30 30 31 31 31
46 45 42 42 44 45 41 43 42 41 43 46 44 40 40 40 39 41 42 44 46 45 41 37 35 35 32 30 31 32 28 27 28 27 27 27 29 34 33 29 31 33 30 31 31 32 32 33 32 31 31 31 31 31
46 48 46 42 41 43 45 44 43 45 47 45 40 40 42 45 46 45 45 45 44 42 31 27 27 27 27 27 27 27 27 27 27 27 27 26 30 27 29 34 37 30 30 32 34 34 33 33 33 33 31 31 31 32
42 46 43 42 41 41 43 47 46 47 47 45 46 46 46 45 46 46 43 34 32 34 30 27 27 26 25 25 25 25 26 27 27 27 26 27 27 29 32 37 39 36 37 35 33 33 34 33 32 31 31 31 31 31
45 46 43 42 42 43 45 47 48 48 48 47 48 45 43 45 44 36 31 29 27 26 26 26 26 27 26 25 24 23 22 27 28 28 28 28 29 31 32 34 38 39 38 36 33 32 32 32 32 31 30 30 31 30
45 44 43 41 42 45 44 43 43 44 45 45 45 47 46 45 40 38 36 28 27 26 30 28 27 28 29 27 27 27 30 27 28 28 28 28 30 32 34 35 35 37 36 35 33 32 33 33 31 31 30 29 30 30
45 44 44 41 42 41 43 43 42 43 44 44 45 46 45 43 39 35 35 32 28 27 27 28 28 27 27 28 29 29 31 30 32 34 34 33 32 30 29 31 32 31 31 32 31 31 31 31 31 30 29 29 30 30

GFSWCAN_sfc_dewp_045.txt.gz
Dewpoint
51 51 51 51 51 50 50 50 51 51 51 52 52 52 52 53 53 52 50 51 47 42 41 42 42 42 40 40 35 38 35 38 37 34 34 33 32 34 33 33 33 31 30 29 30 28 27 41 41 37 39 40 41 43
51 51 51 51 51 50 49 50 51 51 52 52 52 53 53 53 53 51 49 52 51 45 43 45 44 45 46 45 43 41 38 38 39 35 36 35 33 35 35 30 37 33 33 33 33 33 38 42 41 42 42 41 42 41
51 51 51 51 51 51 50 51 51 51 52 52 52 53 53 53 53 51 51 51 49 45 43 42 40 43 48 47 49 41 42 41 41 42 38 37 33 36 32 33 35 37 39 35 35 38 40 41 42 42 42 41 43 44
51 51 51 51 50 50 49 50 51 51 51 52 53 53 52 52 53 52 51 51 48 45 41 37 42 42 44 43 46 46 44 45 43 38 37 37 35 36 35 35 35 37 38 36 37 39 40 41 42 44 44 43 43 44
50 50 51 51 50 49 49 50 51 51 51 52 53 52 52 52 53 51 51 49 49 45 41 39 39 41 43 42 41 41 42 42 39 35 34 35 37 36 37 38 35 39 37 35 35 40 41 41 44 46 44 43 43 44
50 50 51 50 50 49 49 49 50 51 51 51 52 52 53 53 52 50 48 49 48 49 43 39 39 40 42 43 41 41 42 42 42 39 38 38 37 38 35 34 39 41 42 42 40 42 43 42 43 44 44 45 43 43
50 50 50 50 50 49 49 49 50 51 50 52 52 51 51 52 51 46 43 46 48 47 43 42 43 44 44 45 44 44 43 42 41 40 39 39 39 38 36 33 39 41 41 42 43 42 40 43 44 45 44 43 45 44
50 50 50 50 49 49 49 49 49 50 50 51 52 51 51 50 48 46 49 49 46 42 43 43 44 44 44 42 42 43 42 42 41 41 41 38 40 40 35 39 41 40 40 40 42 42 43 43 44 45 46 44 43 43
49 50 50 51 49 49 49 49 49 49 50 52 52 50 50 48 48 47 50 49 47 45 43 42 41 42 44 42 41 43 43 39 42 41 40 40 37 33 38 40 40 41 40 39 38 40 41 41 42 42 43 44 44 44
49 50 50 50 51 49 49 49 49 49 52 51 49 48 48 48 50 50 47 45 45 43 43 40 44 43 44 42 41 40 40 36 35 38 41 35 37 38 40 41 43 42 41 40 38 38 40 40 40 41 42 43 43 44
49 50 50 50 51 51 50 50 49 50 49 47 48 48 49 50 49 47 43 42 42 42 42 42 42 43 46 43 40 41 37 39 33 35 37 34 36 39 39 40 44 43 41 40 39 40 41 41 41 41 40 41 41 42
49 49 50 50 51 50 50 50 50 49 49 48 48 49 49 47 44 40 37 36 38 37 40 44 46 45 46 47 44 41 37 38 31 36 35 34 40 40 41 39 41 42 40 40 40 39 39 39 39 39 40 41 41 41
49 49 50 50 49 49 50 51 51 50 50 50 49 47 42 41 37 32 36 38 32 34 37 42 41 47 46 44 43 41 34 33 35 33 34 38 41 41 42 41 38 44 41 41 40 40 40 38 39 39 39 40 41 41
49 49 50 50 50 51 51 51 52 50 50 48 47 40 36 34 33 34 33 34 36 36 36 37 44 46 46 42 39 34 35 34 29 31 34 38 41 40 42 41 38 37 43 41 41 41 41 42 41 41 40 40 39 39
49 49 50 51 51 51 51 51 52 51 49 45 44 39 35 35 34 35 37 36 37 37 38 40 38 37 36 34 33 31 29 30 33 33 35 40 43 43 41 40 37 34 40 43 42 42 42 42 42 43 43 42 40 40
49 50 51 50 51 50 51 52 51 51 50 47 46 39 37 34 34 34 35 36 37 37 38 36 35 33 33 32 28 29 29 30 33 40 38 39 42 43 43 42 40 35 37 40 43 42 41 42 42 44 44 43 42 40
49 47 50 50 50 51 51 51 51 50 47 44 40 42 39 37 36 37 36 37 38 35 32 33 29 29 34 29 30 36 33 37 36 35 37 41 44 44 42 42 40 37 38 39 42 43 43 44 44 40 35 37 37 41
46 46 48 49 49 50 51 51 51 48 44 44 40 41 40 39 38 39 40 40 37 36 36 33 34 29 29 29 29 33 36 36 37 35 36 40 42 41 37 37 39 38 40 39 38 37 36 38 35 29 34 34 32 36
46 48 49 50 49 49 49 51 52 45 43 45 43 42 42 42 47 48 47 41 40 40 37 35 33 31 36 41 39 36 36 35 33 36 37 40 39 38 37 38 38 37 38 36 35 29 31 36 30 29 29 29 27 30
50 51 52 51 50 50 49 51 51 46 43 44 43 43 43 49 49 48 46 40 38 38 35 39 37 40 42 44 41 38 37 37 36 31 32 34 35 34 34 35 32 36 34 33 31 33 30 29 29 30 28 29 29 30
50 53 51 51 51 50 50 49 47 45 45 44 44 46 47 50 48 47 46 47 38 37 37 42 44 42 42 44 42 39 38 37 34 35 33 27 30 29 30 31 31 31 29 27 27 28 30 28 29 29 30 30 31 32
51 52 53 52 52 53 53 53 47 46 45 44 46 46 46 47 47 48 48 42 40 41 40 41 41 41 42 44 42 41 41 42 40 35 35 33 27 27 28 29 29 29 28 27 28 27 27 28 29 30 30 31 33 32
52 53 53 53 52 46 45 48 43 46 44 44 44 43 46 47 48 50 46 46 46 46 43 42 44 44 44 44 44 44 43 40 35 30 30 28 28 29 27 28 28 29 29 30 30 29 29 32 31 31 31 32 31 31
51 53 51 50 48 45 46 43 47 48 44 42 42 40 44 47 49 43 41 45 45 46 45 47 43 40 41 44 41 42 42 35 29 29 30 28 26 26 27 27 27 28 29 29 29 29 31 32 33 31 31 29 29 29
44 42 43 37 42 43 40 42 42 43 41 43 41 41 46 48 44 41 41 44 44 45 50 49 44 41 39 38 36 36 35 29 29 37 32 28 27 25 27 30 28 27 28 28 27 28 31 32 33 34 30 29 30 30
37 44 42 40 44 42 41 39 40 41 43 42 42 46 48 45 39 38 42 46 44 48 49 45 41 38 38 39 35 32 30 31 35 35 29 28 27 30 33 32 25 25 28 29 29 30 30 31 32 33 33 30 33 29
39 43 46 46 44 45 46 48 47 45 42 42 43 43 44 40 38 43 47 46 47 49 48 44 41 38 38 36 37 37 33 33 33 31 28 28 31 32 29 26 26 28 30 30 31 31 30 31 31 30 29 30 31 30
46 47 43 45 45 46 44 45 44 44 43 48 46 39 37 39 40 44 45 46 47 46 34 31 32 29 29 29 29 29 28 28 28 28 29 29 29 30 30 29 30 34 31 31 31 32 31 30 30 30 30 30 31 32
46 50 49 46 45 45 47 46 45 48 50 48 42 41 43 47 47 45 46 47 48 33 28 27 28 28 28 28 28 28 28 27 27 28 28 28 30 30 33 32 33 31 32 31 35 35 34 31 31 31 31 31 32 32
44 48 46 44 42 42 46 51 50 51 50 46 49 50 49 49 44 43 45 40 39 31 28 27 27 26 26 25 25 26 27 27 27 27 26 28 28 30 32 33 33 34 34 32 30 31 34 32 32 31 30 29 29 29
46 46 45 44 44 45 47 49 50 49 48 49 49 48 46 45 40 34 32 32 30 28 27 26 26 26 25 25 25 24 24 27 29 31 30 29 30 32 33 34 36 37 37 34 31 30 30 31 30 29 29 29 29 29
46 46 45 44 45 49 47 48 45 45 47 46 47 49 46 47 41 38 32 30 29 28 31 28 26 26 26 26 27 27 30 27 29 31 33 33 34 35 34 34 34 33 34 33 31 31 32 31 30 29 29 30 29 30
49 46 46 44 44 45 45 46 43 44 45 44 45 47 46 43 40 36 35 33 30 28 29 29 27 28 30 28 27 27 29 29 33 34 34 33 33 33 32 32 32 32 31 31 31 30 31 31 30 30 29 29 29 29

GFSWCAN_sfc_dewp_048.txt.gz
Dewpoint
52 51 51 51 51 50 50 50 51 51 52 52 52 52 52 52 53 51 50 52 49 44 41 40 41 41 41 41 38 39 36 39 38 35 35 35 34 35 33 35 32 31 31 30 31 28 25 38 37 37 44 43 43 44
51 51 51 51 51 50 50 51 51 51 51 52 52 53 52 52 53 51 48 53 52 47 42 44 43 43 44 45 44 42 38 39 40 36 37 36 34 37 35 32 36 32 35 34 33 34 40 39 39 46 44 46 44 43
51 51 51 51 50 50 50 50 51 51 51 52 52 53 52 53 53 51 49 49 49 43 41 39 38 43 44 42 47 44 41 41 43 43 40 37 34 36 33 35 35 36 37 35 34 37 37 40 43 46 47 45 45 45
51 51 51 51 50 50 50 50 50 50 50 52 52 52 52 52 53 52 49 48 46 43 38 36 41 41 42 42 43 43 43 43 42 40 39 39 36 38 36 36 34 36 38 36 35 36 39 42 42 46 45 46 45 44
50 50 51 51 50 50 49 49 50 50 50 51 52 52 52 52 53 52 50 49 48 43 38 35 39 40 42 43 41 41 40 40 38 37 35 36 38 37 39 39 36 40 37 35 34 39 39 39 45 46 45 44 45 45
50 50 50 51 50 50 49 49 49 50 50 51 52 51 52 53 53 50 48 49 48 48 43 39 40 43 42 46 42 41 40 40 37 36 36 35 38 40 37 35 40 40 41 42 39 43 44 45 45 45 44 46 46 46
50 50 50 51 50 50 49 49 49 50 50 50 52 51 51 52 51 47 45 47 48 48 42 43 44 46 44 46 43 41 43 39 37 36 34 37 37 40 38 35 39 39 38 41 42 42 40 42 42 44 45 44 46 46
49 50 50 51 50 50 49 49 49 49 50 50 52 50 51 52 50 47 49 49 48 44 43 44 44 46 45 45 44 43 41 40 36 36 36 33 35 38 37 35 39 38 37 37 40 42 42 42 43 43 44 45 45 47
49 50 50 50 51 50 49 49 49 49 50 51 52 51 50 48 48 48 50 49 48 45 44 45 45 43 46 45 44 42 41 43 39 41 41 40 40 35 38 38 39 39 37 36 38 39 39 39 39 40 42 42 41 42
49 50 50 50 51 51 50 49 49 49 51 52 50 47 48 49 51 51 48 46 45 44 43 44 46 45 44 43 41 40 38 36 39 37 39 40 38 36 36 37 41 41 38 36 35 36 36 38 38 39 40 42 42 42
49 50 50 50 51 50 50 50 49 50 50 49 47 47 50 51 49 47 45 43 43 43 44 44 45 42 45 43 39 40 37 40 36 37 39 39 37 39 37 36 41 41 39 37 36 36 36 37 37 37 38 41 41 42
49 50 50 50 50 50 49 50 49 50 50 49 50 50 50 48 46 42 39 37 38 35 37 37 40 44 47 46 44 41 38 40 32 36 36 36 40 39 37 35 37 40 40 38 38 38 37 37 37 37 37 37 40 41
49 50 50 50 50 49 50 50 50 51 51 51 50 49 46 44 39 32 40 37 30 32 33 35 37 45 47 44 44 42 35 33 36 33 35 39 37 36 37 35 34 38 41 40 39 38 38 38 39 39 38 37 38 39
49 50 50 51 50 50 51 52 52 50 50 48 46 41 38 35 34 34 33 33 32 35 33 35 41 46 46 43 40 35 34 34 28 34 34 32 40 39 37 36 35 33 36 39 39 39 39 38 39 39 39 38 37 38
49 50 50 51 51 51 50 51 52 51 50 46 45 39 36 35 35 35 36 36 34 36 35 37 38 39 36 34 32 30 29 30 34 34 32 34 41 42 39 36 34 33 33 37 39 38 39 39 38 37 38 37 38 39
49 50 52 50 50 51 51 51 52 52 50 47 46 40 37 36 33 33 35 36 37 36 38 36 34 32 32 31 28 29 30 31 33 37 34 35 42 41 41 39 37 33 34 34 36 36 35 35 34 35 33 33 35 38
49 48 50 50 50 51 51 52 51 50 47 45 39 39 40 39 37 37 38 37 41 36 36 41 35 30 34 32 36 37 36 37 34 32 32 42 42 40 39 38 37 35 34 35 35 35 35 34 33 31 32 34 33 37
46 47 49 49 49 52 52 51 51 48 45 41 39 38 41 41 40 40 43 42 42 38 39 37 41 38 36 35 37 39 39 35 34 33 36 40 42 43 39 38 40 38 37 36 34 34 33 33 29 26 30 32 30 31
45 47 49 50 50 51 49 51 52 44 40 39 41 42 43 43 48 50 47 46 42 41 39 40 39 39 39 42 40 39 40 33 33 35 36 41 42 41 38 38 39 37 36 37 35 28 29 33 28 26 25 26 26 27
50 51 52 52 51 50 47 50 54 48 42 43 44 43 44 46 48 46 44 44 42 39 39 41 40 42 44 43 43 45 36 37 35 33 30 29 30 34 35 33 30 36 34 35 30 31 29 28 27 26 26 28 26 27
51 53 51 52 53 51 50 46 45 45 43 42 45 45 45 49 46 44 42 43 39 37 41 43 44 46 44 42 44 49 41 38 39 34 31 26 26 27 28 30 31 29 28 28 28 29 29 26 27 27 28 28 27 28
54 53 55 53 53 53 53 54 49 49 46 44 45 46 45 46 46 45 46 40 41 43 40 40 40 40 40 44 43 46 44 45 46 37 33 31 26 27 27 27 28 27 28 28 29 27 28 27 28 28 28 29 31 28
53 54 54 53 52 49 46 48 45 45 43 44 45 43 45 47 47 48 42 42 43 44 44 43 47 48 46 45 47 47 46 45 38 33 29 29 31 29 28 27 26 27 27 28 29 28 28 31 30 30 30 30 28 27
50 53 50 50 50 46 48 45 46 47 46 43 42 40 43 46 47 42 39 41 42 44 46 49 48 37 38 42 35 40 42 39 34 30 32 33 27 28 29 26 26 26 27 26 26 28 29 30 32 30 29 28 28 27
46 45 46 41 46 44 40 40 43 44 40 43 41 40 45 48 43 39 39 40 40 40 44 45 46 40 35 35 36 35 42 35 31 35 36 32 28 28 31 30 31 29 28 28 26 27 29 31 32 32 30 29 29 27
39 43 43 37 41 42 40 38 39 41 43 42 41 46 47 45 40 37 41 40 40 44 47 46 41 39 37 37 33 31 32 34 35 41 31 29 32 37 36 33 25 26 27 27 28 30 34 34 35 33 31 29 32 28
38 40 45 47 44 44 45 48 47 44 42 41 43 43 43 36 36 41 44 44 43 47 46 42 39 33 29 27 28 29 30 32 33 30 30 34 32 31 30 27 26 27 27 27 29 31 30 30 32 29 28 28 28 29
42 45 40 43 43 43 43 45 43 42 42 45 45 39 34 36 39 43 42 45 45 38 34 31 29 28 27 27 26 26 28 29 30 31 30 32 32 29 30 29 29 34 29 30 30 29 29 31 30 28 29 30 30 29
43 46 45 44 44 43 46 44 42 44 47 44 42 40 41 44 43 41 43 43 37 32 29 28 28 28 27 27 26 26 26 25 26 28 30 33 30 27 29 31 31 29 28 28 35 34 33 31 30 30 30 30 30 30
39 44 43 41 41 40 43 46 47 50 48 46 46 47 45 42 39 43 40 40 34 30 28 27 27 26 26 24 24 25 25 24 25 25 25 25 25 26 29 29 30 29 28 28 28 30 34 31 32 29 29 29 29 29
45 44 41 41 40 44 46 51 49 49 48 48 50 45 43 37 35 34 35 35 30 29 27 26 26 27 25 24 23 22 22 26 29 28 27 27 27 28 29 31 31 30 30 28 28 28 28 29 29 29 29 29 28 30
44 43 42 42 43 50 49 49 47 46 47 47 48 47 43 40 37 36 33 32 30 28 31 29 27 27 26 25 23 25 30 27 29 30 31 30 30 31 30 29 30 30 30 29 28 28 28 27 28 28 29 28 28 28
46 45 45 43 45 46 48 48 44 45 46 44 44 45 44 43 41 39 36 33 32 28 28 28 28 29 30 26 26 26 28 29 33 34 34 34 34 32 29 28 29 30 29 29 28 28 28 28 28 28 28 28 28 28

GFSWCAN_sfc_dewp_051.txt.gz
Dewpoint
52 52 52 52 51 51 51 51 52 52 52 52 52 52 52 52 52 51 47 52 47 41 39 39 39 40 41 42 39 38 38 39 39 37 36 36 35 37 33 36 36 33 34 33 33 30 28 38 35 33 36 41 39 46
52 51 51 51 51 50 50 51 51 52 51 52 52 52 52 52 53 51 48 51 50 47 41 42 42 41 42 42 44 41 41 41 41 38 38 37 35 37 35 32 38 34 37 36 36 34 41 41 41 41 41 42 42 49
51 51 51 52 51 50 50 50 51 51 50 52 52 52 52 52 53 51 48 49 48 44 41 39 36 41 41 40 42 44 41 42 44 42 41 38 35 38 34 34 36 37 38 35 34 38 40 40 40 42 43 44 48 48
51 51 51 51 51 50 50 50 51 51 50 51 53 52 52 52 53 52 49 48 46 42 38 37 40 41 40 40 41 40 40 41 42 45 41 40 37 39 36 37 35 37 37 36 35 38 38 40 42 42 45 47 48 47
50 50 51 51 51 50 49 49 50 51 50 51 52 52 52 52 54 52 50 49 49 45 41 38 39 39 40 41 41 40 38 38 43 44 41 39 39 38 39 39 35 39 37 34 34 37 39 39 42 45 46 46 47 49
50 50 51 51 51 51 49 49 49 50 50 51 52 52 52 52 52 50 48 50 49 48 43 42 42 42 42 44 44 41 37 36 35 32 32 34 37 40 38 35 40 39 40 42 38 41 40 42 41 45 46 47 48 46
50 50 50 51 51 51 50 49 49 49 50 50 52 52 51 52 50 49 47 48 49 49 43 41 47 45 45 46 43 40 41 38 34 32 31 31 33 38 37 36 38 33 36 41 42 42 39 40 40 44 44 46 48 48
49 50 50 51 51 51 50 49 49 50 50 50 51 51 52 52 51 48 49 49 49 46 44 43 42 47 46 44 43 42 41 43 37 33 33 30 33 34 39 35 38 34 34 35 37 42 42 42 42 43 44 44 43 44
49 49 50 51 51 51 51 49 49 49 50 50 52 51 51 49 48 49 51 49 49 47 44 47 46 41 45 43 42 41 40 43 37 40 38 37 42 36 37 35 38 36 34 34 34 34 36 37 41 42 42 42 41 43
49 49 50 50 51 51 51 50 50 49 49 51 51 48 48 50 52 51 49 46 46 45 45 47 45 45 42 45 40 38 39 35 42 37 37 44 38 41 36 36 41 39 34 34 34 34 34 35 36 37 40 42 43 43
49 49 50 50 51 51 50 50 50 49 51 50 48 47 51 51 49 47 45 43 41 41 42 41 40 42 42 44 42 40 37 39 38 38 38 43 39 40 36 36 38 38 36 35 35 35 35 36 35 36 36 39 41 42
49 50 50 50 51 51 50 50 50 50 49 50 49 49 50 49 47 42 38 35 37 36 34 34 36 41 45 47 43 42 38 40 34 34 34 37 42 38 37 35 35 37 37 37 36 36 36 37 37 37 36 37 38 40
49 50 50 50 50 50 49 50 50 51 51 51 50 48 47 44 41 34 40 38 33 30 31 32 33 43 46 45 43 43 38 37 33 33 38 39 43 37 38 36 35 35 36 38 38 38 38 38 39 37 37 37 38 39
49 50 50 51 50 50 51 50 51 51 51 48 45 43 40 37 36 33 32 32 33 31 31 33 36 48 50 45 44 38 36 29 30 35 35 40 44 37 38 37 36 34 34 39 39 39 38 40 37 38 36 37 37 38
49 50 50 51 50 51 51 51 52 51 50 45 42 41 36 35 34 37 38 39 45 43 37 36 36 43 45 40 37 31 32 31 33 36 38 41 42 41 40 38 36 34 33 36 37 36 38 36 35 34 35 37 38 39
50 49 51 50 50 51 51 51 52 52 49 46 44 38 37 35 34 36 40 39 40 40 40 42 40 39 40 40 37 35 32 32 37 40 35 42 43 41 40 38 37 35 34 34 35 34 34 34 33 33 33 34 37 38
49 48 50 49 50 51 51 53 52 49 46 43 39 38 39 41 38 38 40 41 42 39 36 40 39 38 41 38 36 38 35 39 36 32 33 43 42 40 39 36 35 36 35 35 35 35 34 34 32 32 33 34 32 36
47 48 50 50 49 52 53 52 49 45 43 42 38 39 40 40 42 40 43 42 40 37 39 40 43 40 38 35 38 40 41 39 36 33 37 42 42 42 39 37 36 37 37 36 35 34 34 33 31 26 31 32 30 31
44 46 49 50 50 53 47 50 49 42 40 38 39 40 42 48 50 49 43 43 43 42 40 41 39 40 39 40 40 42 42 36 34 37 36 42 42 40 38 37 36 36 35 39 36 28 29 34 29 26 24 25 26 26
50 50 51 51 51 51 44 45 52 45 42 43 42 41 42 44 46 45 44 40 40 38 43 41 42 43 43 45 45 40 38 38 35 37 37 34 31 33 35 33 28 35 34 37 34 32 32 31 27 26 26 28 27 26
49 53 52 52 53 51 47 43 44 44 42 40 42 43 42 45 43 41 39 41 42 34 36 42 41 42 42 44 38 38 40 39 37 38 41 28 28 29 29 30 30 26 28 32 33 31 28 28 27 27 27 25 26 30
54 53 55 54 51 51 49 47 46 47 46 42 43 43 42 41 42 41 41 37 36 36 37 39 40 39 39 43 40 43 45 44 45 40 32 32 29 30 30 29 30 31 31 32 31 33 30 29 28 30 29 29 30 24
52 54 54 51 50 49 46 49 45 44 42 42 42 40 41 42 43 45 39 40 41 39 40 42 45 48 47 45 47 43 44 43 42 38 34 33 33 31 29 28 27 29 29 35 34 30 31 30 28 30 31 30 30 30
51 52 47 47 49 47 46 44 44 44 44 41 39 38 40 42 45 39 36 38 36 39 40 46 42 41 40 45 35 38 38 33 35 34 35 37 32 29 30 27 29 27 27 27 29 34 35 31 32 29 30 30 28 28
46 44 46 42 45 43 40 39 41 41 40 40 38 37 42 45 41 37 36 36 35 37 38 38 37 39 38 36 30 33 38 29 31 36 38 35 33 31 32 33 33 27 27 31 33 31 40 35 31 32 31 29 30 29
42 43 42 36 37 39 38 35 38 37 38 38 38 43 45 41 37 37 40 40 41 42 41 38 35 32 28 27 25 26 26 29 31 34 32 31 30 31 33 36 30 26 24 25 31 38 36 33 34 38 33 27 33 32
40 38 42 43 42 42 40 41 42 40 38 38 39 40 39 35 37 41 42 43 41 40 38 32 28 25 25 24 25 27 27 29 32 31 33 31 29 30 33 30 27 27 26 29 29 33 31 29 31 31 30 30 29 30
40 40 39 41 40 40 40 41 39 39 39 42 42 38 36 35 38 41 41 43 39 35 30 28 28 27 25 23 24 25 27 28 30 29 30 28 27 26 28 27 27 34 28 32 33 34 33 31 33 30 31 29 30 29
39 39 40 41 41 39 42 40 39 43 44 40 40 41 40 43 42 41 43 39 35 32 30 26 27 26 25 24 24 23 23 23 28 34 32 27 26 26 28 29 29 30 26 29 34 32 32 30 30 30 30 30 29 30
37 38 40 39 38 37 41 44 43 45 46 45 47 46 44 43 44 42 41 39 36 33 30 25 24 24 23 22 23 22 21 21 23 24 27 24 24 25 27 28 27 27 27 27 25 28 33 31 31 30 30 28 28 29
40 39 39 38 36 38 45 46 47 48 48 47 48 45 48 45 38 39 39 40 34 32 29 25 24 24 22 20 21 21 23 24 27 28 26 24 25 28 29 29 28 28 28 28 28 28 28 29 29 30 30 29 29 29
41 41 39 40 44 53 49 47 46 46 46 47 48 49 48 41 39 37 37 35 33 32 32 29 25 24 22 21 22 25 31 27 28 28 28 28 28 29 29 27 27 27 29 28 29 28 29 29 29 29 29 29 28 27
40 39 41 40 40 43 45 45 43 45 44 45 48 46 46 46 43 40 37 35 34 31 30 28 27 26 28 25 26 27 30 31 34 34 34 33 33 32 29 27 27 28 28 28 27 27 27 28 27 28 28 27 27 27

GFSWCAN_sfc_dewp_054.txt.gz
Dewpoint
53 52 52 52 51 51 51 51 52 52 52 52 52 52 52 53 53 50 47 51 47 44 37 37 38 40 39 38 39 36 39 38 36 37 36 35 34 36 34 36 36 33 36 34 35 32 28 38 35 32 36 39 39 39
53 52 51 51 51 51 50 50 51 52 51 52 52 52 52 52 53 51 48 49 50 45 41 43 40 38 40 39 39 38 40 41 40 39 39 38 36 37 36 32 37 34 36 33 35 36 40 39 40 42 42 41 40 40
52 52 51 51 52 51 50 50 51 52 51 51 52 52 52 52 53 52 48 49 46 45 43 43 39 41 39 38 38 37 38 42 44 44 41 39 36 38 34 34 36 34 39 35 35 36 37 40 40 41 41 41 41 42
52 51 51 51 51 51 50 50 50 51 51 51 52 53 52 53 53 53 49 49 48 46 41 44 39 41 40 38 38 38 37 39 45 47 43 40 37 40 36 37 35 38 38 36 35 37 38 39 41 42 43 44 43 45
51 51 51 51 51 51 51 50 50 50 50 51 52 53 53 53 53 52 50 50 51 48 44 41 42 40 40 41 41 42 41 39 44 46 44 41 37 39 39 39 35 39 37 34 33 38 37 38 41 41 42 44 46 48
51 50 50 50 51 51 51 50 50 50 50 51 52 53 52 53 53 50 48 50 50 49 46 39 43 43 41 42 44 43 44 38 38 35 35 36 36 36 39 37 40 42 42 40 39 42 41 41 41 42 43 46 47 48
50 50 50 50 51 51 51 50 50 49 50 50 51 52 52 53 50 48 48 50 50 49 46 40 43 46 43 44 44 43 42 40 39 36 34 34 35 35 37 37 38 39 39 40 41 41 39 39 39 41 41 43 45 46
50 50 50 50 51 51 51 50 50 50 50 50 51 52 53 52 51 48 49 50 49 47 45 41 38 47 45 47 47 43 41 41 40 36 33 31 34 36 39 35 38 36 36 37 39 42 42 43 43 42 42 42 41 42
49 49 50 50 51 51 51 51 50 49 50 50 51 52 50 49 48 50 52 50 49 47 45 46 44 38 44 42 43 41 40 40 43 36 38 37 42 36 39 37 38 36 34 35 35 35 38 39 42 41 41 40 40 41
49 49 50 50 50 51 51 51 50 49 50 50 51 48 48 50 53 51 48 46 46 46 45 44 44 43 41 44 42 39 39 37 42 37 38 44 39 44 41 37 39 38 37 34 34 34 34 36 36 40 41 42 42 42
49 49 50 50 50 51 51 50 50 50 50 50 51 50 51 52 49 48 45 45 45 43 43 42 46 46 40 41 43 40 40 40 38 39 40 42 40 43 38 38 39 38 38 37 37 36 37 38 37 37 38 39 42 42
49 49 50 50 50 51 50 50 50 50 50 50 48 47 49 48 47 44 44 37 36 38 38 35 37 38 42 45 47 46 39 42 35 37 36 37 43 41 38 35 40 38 37 37 38 38 39 38 38 39 38 38 39 41
49 49 50 50 51 51 50 49 50 51 50 51 50 48 47 45 41 37 38 40 43 47 45 41 41 51 49 48 46 44 38 38 38 37 39 39 45 41 41 38 37 36 37 39 41 40 41 37 39 38 37 40 39 40
49 49 50 50 50 51 50 50 50 50 50 49 47 43 41 39 41 44 43 47 42 45 49 45 43 44 51 45 45 39 42 39 34 34 36 44 45 41 43 39 38 37 41 39 40 40 38 35 35 40 39 38 38 39
49 50 50 51 52 51 51 51 51 51 50 45 44 40 37 38 40 41 44 46 44 43 43 41 37 44 43 42 41 37 33 31 34 37 41 46 46 43 41 38 38 36 34 39 39 36 36 36 33 34 40 39 39 39
50 49 50 51 50 51 51 51 51 53 50 44 42 38 42 46 41 41 39 39 40 40 43 42 39 39 38 39 36 34 32 32 37 43 40 43 43 41 44 38 37 36 36 35 37 37 33 33 33 33 33 39 39 40
49 46 51 50 50 51 51 53 53 50 45 42 39 45 47 42 39 41 41 40 39 38 35 35 36 38 39 36 34 37 35 40 35 34 38 45 43 43 41 38 36 35 37 37 35 34 37 35 35 33 34 35 37 41
46 50 50 50 49 52 52 52 49 44 42 42 40 45 42 42 45 48 41 42 39 36 37 37 41 37 35 33 36 41 39 36 41 39 39 42 44 43 39 39 38 38 37 39 37 36 37 34 32 27 35 36 33 41
43 45 50 50 49 51 49 49 47 41 40 44 45 44 41 49 52 46 44 48 45 44 45 41 37 38 39 39 40 42 43 38 38 44 39 43 45 42 39 39 38 37 38 39 37 33 31 36 32 28 25 27 30 28
49 50 50 50 50 51 46 43 50 44 43 46 44 42 42 48 52 52 45 41 42 40 43 38 40 43 45 43 39 37 43 39 41 43 38 43 39 39 41 38 31 35 32 43 44 38 31 31 29 28 25 30 30 27
51 53 52 52 52 51 47 43 45 44 42 39 41 42 44 51 43 39 41 41 36 34 35 37 38 38 43 43 40 38 41 40 36 36 39 36 34 30 33 32 33 34 38 43 40 41 38 31 30 28 27 26 28 31
55 54 54 54 51 48 46 44 44 52 44 43 51 46 50 43 41 39 42 43 37 37 40 37 38 39 44 46 47 46 47 47 44 43 46 43 35 34 31 31 29 33 44 44 40 44 40 30 27 29 29 30 32 27
51 53 52 50 47 46 45 46 45 44 45 41 44 41 44 41 43 45 47 41 39 40 40 40 42 47 46 47 46 45 46 46 38 40 36 34 35 34 31 30 26 27 29 31 33 40 42 37 29 30 31 33 31 33
51 49 47 44 46 45 46 43 43 41 41 42 42 36 39 41 43 44 41 39 38 39 44 45 43 42 44 47 41 41 37 31 34 37 39 36 33 34 37 38 30 28 27 31 36 38 42 42 40 34 30 30 31 29
45 44 46 41 46 47 40 43 41 46 42 44 41 38 39 41 40 41 40 40 38 40 39 38 35 34 33 30 27 28 35 27 31 35 36 35 38 32 31 31 30 28 28 31 34 39 41 43 43 34 32 30 30 31
41 42 42 37 36 39 38 38 38 43 45 39 37 47 44 41 39 39 41 44 46 39 36 34 30 26 25 25 25 25 27 30 35 33 32 29 31 30 33 34 32 28 27 41 41 34 32 33 30 30 30 33 36 33
40 36 41 40 40 41 38 38 45 44 41 38 44 43 40 37 38 43 46 51 51 37 33 28 27 25 23 24 27 29 28 30 32 28 28 26 27 29 31 29 26 27 29 35 35 39 40 38 31 30 30 32 31 31
39 39 38 40 38 38 37 39 45 43 46 50 48 43 43 41 41 44 44 46 41 35 29 27 28 25 24 23 24 26 27 28 30 30 27 25 25 25 27 24 25 34 32 33 37 35 33 31 32 30 29 28 30 32
39 38 37 38 40 37 38 40 43 50 52 49 48 47 48 45 43 43 44 44 37 33 30 26 27 25 24 24 23 21 20 22 31 32 28 24 24 24 26 27 29 27 26 28 32 30 30 30 30 30 30 30 29 29
35 34 37 37 36 36 39 49 50 52 52 46 46 46 46 43 43 43 43 41 37 34 30 24 23 23 21 22 23 21 19 21 23 26 25 23 23 24 25 27 28 26 26 26 26 28 34 31 32 32 30 30 29 32
34 35 36 35 36 49 52 52 51 48 44 47 48 48 48 46 50 43 42 41 37 35 30 24 23 21 19 18 21 22 22 23 28 28 26 24 26 27 27 27 28 28 28 27 29 28 28 30 30 31 30 30 30 28
35 36 36 37 41 53 52 44 45 43 46 49 49 47 46 44 40 39 41 38 36 33 34 29 23 22 21 20 24 27 31 26 31 31 32 27 28 28 28 26 26 26 28 27 27 28 30 28 28 28 27 27 27 27
38 38 45 48 48 49 53 52 47 46 46 47 47 44 45 47 43 41 40 38 37 33 31 28 25 25 28 26 28 29 33 32 33 34 34 34 33 32 29 28 27 27 26 27 26 26 27 28 27 27 28 28 28 28

GFSWCAN_sfc_dewp_057.txt.gz
Dewpoint
54 53 52 52 52 52 51 51 51 52 52 52 53 53 54 54 54 51 52 54 50 46 42 39 37 41 40 40 39 39 39 39 36 34 34 33 32 34 33 34 33 31 31 32 33 31 27 36 36 35 37 38 39 39
54 53 52 51 51 52 51 50 50 52 52 51 52 53 54 54 54 52 50 54 54 48 44 45 44 42 44 42 41 39 41 39 39 37 37 37 34 35 34 29 36 30 36 32 33 33 36 38 38 39 39 38 38 39
53 53 51 51 51 52 51 50 50 50 52 52 52 53 54 54 54 52 49 51 50 47 44 44 42 43 40 40 40 39 41 42 42 44 39 38 34 37 31 33 36 36 38 35 33 36 36 39 39 40 40 40 40 40
53 52 51 51 51 52 51 51 50 51 50 51 52 53 54 54 54 53 49 50 51 49 44 44 42 43 42 39 39 41 40 42 46 44 41 37 35 39 35 36 35 38 38 36 35 37 39 38 39 40 40 40 41 43
53 52 50 50 51 51 51 50 50 50 50 50 52 52 54 54 54 52 50 51 52 50 44 43 44 42 41 41 41 41 42 44 46 43 41 40 37 38 38 38 35 38 37 34 33 38 38 38 41 41 40 40 41 43
52 51 50 50 51 51 51 51 50 50 50 50 51 52 54 54 54 50 49 54 52 52 47 41 44 45 48 43 43 45 45 44 41 41 43 40 39 38 37 36 39 41 42 42 39 41 42 42 42 42 41 41 41 43
52 50 50 50 51 51 51 51 50 50 50 50 50 52 53 53 50 48 48 51 51 54 48 44 41 51 50 48 46 45 45 44 43 43 41 43 38 39 38 34 39 40 41 43 43 42 40 41 41 42 42 41 42 42
51 50 50 50 51 51 51 51 50 50 50 50 50 52 53 53 51 48 50 51 52 49 48 43 41 48 48 48 48 47 42 43 44 41 41 37 41 39 36 38 39 39 39 39 39 42 42 43 43 42 42 42 40 41
50 49 49 50 50 51 51 51 51 50 50 50 50 52 51 49 48 51 55 52 54 50 46 47 45 41 46 46 48 45 44 42 46 43 42 42 41 33 36 38 39 38 36 36 39 39 39 41 41 42 41 40 39 39
50 49 49 50 50 51 51 51 50 50 49 49 50 48 48 51 54 53 48 47 47 46 47 45 47 45 47 49 47 46 45 41 41 43 44 41 36 42 43 42 42 41 39 38 36 36 37 38 39 40 41 41 41 40
49 49 49 50 50 51 51 51 51 50 50 50 51 52 52 54 51 50 47 46 48 46 49 49 49 47 52 46 46 48 44 44 38 40 40 38 37 43 45 43 43 43 41 39 39 39 40 40 39 38 39 41 42 42
48 49 49 50 50 51 51 50 50 50 51 51 49 50 52 50 49 46 47 47 47 45 48 47 46 48 51 52 45 44 42 43 36 43 40 35 41 44 43 42 42 42 41 40 44 42 41 42 40 40 40 39 40 43
48 49 50 50 50 51 50 50 49 50 50 51 51 50 49 49 44 41 40 42 44 49 48 45 43 52 52 48 44 44 40 38 44 37 34 40 45 45 43 43 42 42 42 45 45 43 44 43 42 40 40 41 41 40
48 49 50 50 50 51 51 50 49 50 49 49 49 39 45 44 44 44 46 48 49 47 47 49 48 49 47 45 44 37 41 43 36 34 36 43 43 44 43 43 42 42 42 43 43 43 42 41 41 42 41 40 40 40
49 49 50 49 50 52 52 52 50 51 50 49 47 39 41 44 49 48 48 50 51 48 48 49 46 45 41 40 39 36 33 33 37 37 41 45 45 44 43 41 39 42 42 42 43 42 40 41 39 41 41 40 40 41
49 49 48 52 52 51 51 51 50 52 52 48 46 41 43 45 47 49 48 46 46 46 52 47 42 39 38 38 35 34 33 33 38 43 46 47 45 44 43 44 41 42 41 42 41 39 40 38 38 41 41 40 40 43
49 45 52 51 50 51 51 52 52 51 48 44 42 44 45 47 49 51 51 48 48 42 41 40 38 38 41 37 36 37 38 41 41 44 46 47 46 45 43 44 43 42 43 42 40 43 40 41 38 36 39 41 41 43
46 51 50 50 49 50 52 51 51 47 44 45 43 46 47 51 50 51 52 49 48 45 45 40 44 39 38 35 38 42 45 42 46 47 46 48 47 45 43 44 44 43 43 44 43 42 39 39 40 36 41 41 41 42
44 45 49 50 48 47 52 51 50 42 42 45 47 46 51 52 54 54 51 53 50 50 48 45 39 40 43 43 42 42 47 46 46 48 48 49 49 46 46 44 43 42 45 45 46 45 45 41 36 35 35 38 40 41
49 49 50 49 50 49 48 48 54 50 44 47 48 47 52 55 57 50 49 48 49 47 44 40 40 44 45 45 45 44 44 47 42 42 45 46 47 46 45 42 41 42 43 46 47 45 46 41 41 34 35 37 35 37
51 52 51 51 50 50 49 48 50 52 51 49 50 52 52 54 50 48 47 49 42 42 41 43 43 47 50 51 50 50 49 47 45 44 45 42 46 45 43 38 41 43 42 41 44 43 43 45 42 35 33 35 36 38
54 54 55 53 52 51 51 51 46 54 49 47 53 50 50 48 48 46 49 46 43 45 47 46 48 48 50 50 49 50 51 51 49 48 43 42 38 38 38 36 37 40 41 45 42 42 43 45 40 39 35 34 36 38
53 53 52 52 51 46 46 52 48 47 45 46 49 48 47 46 48 51 48 46 47 50 51 50 51 52 50 51 50 50 49 50 48 44 42 40 40 37 36 38 38 37 42 44 43 41 42 40 39 42 39 37 36 38
52 49 49 45 48 44 47 47 46 45 46 48 47 44 46 48 49 47 42 44 45 47 47 51 52 49 51 52 48 47 45 41 40 40 39 37 36 38 39 39 38 32 41 38 37 39 41 40 40 37 36 34 35 36
46 45 46 39 46 45 43 43 45 43 46 48 44 45 48 51 45 46 42 44 48 47 45 45 43 38 33 32 31 34 41 37 35 35 39 39 36 35 34 33 34 37 37 37 39 37 40 44 44 38 34 35 35 36
40 43 41 37 38 36 38 38 43 46 47 45 45 50 51 47 45 42 45 47 51 46 40 39 36 32 30 32 31 34 36 35 36 30 33 31 34 34 33 31 34 40 38 41 40 39 40 39 39 34 33 34 36 34
40 39 42 46 43 40 44 46 46 46 45 46 48 46 46 40 40 47 47 50 49 42 40 38 35 28 30 31 34 35 32 36 38 32 34 32 31 31 30 28 29 37 38 36 36 38 39 38 32 32 33 33 34 34
38 41 38 42 44 41 39 40 45 46 47 50 49 46 43 42 43 47 46 50 47 39 34 33 34 30 30 32 30 31 31 33 36 31 28 28 29 27 30 30 34 37 37 36 35 37 38 34 33 32 33 33 35 35
38 38 39 40 40 40 44 44 48 51 53 51 48 48 48 49 46 44 48 47 46 36 32 31 30 29 29 30 30 27 28 30 34 32 29 26 26 28 32 32 32 32 31 28 32 31 32 33 34 33 34 34 34 33
34 34 34 36 37 40 46 46 51 54 55 54 52 51 47 45 45 47 48 46 44 40 31 28 28 29 26 25 24 25 24 25 27 29 27 26 25 27 32 32 31 30 30 31 30 31 34 35 35 34 34 33 34 33
33 34 36 37 41 48 50 50 51 55 56 54 53 51 48 44 48 47 46 48 41 38 31 26 24 23 22 24 28 25 23 30 33 34 29 27 27 32 32 34 33 33 34 34 33 32 33 33 33 33 32 31 31 30
35 38 36 45 49 53 53 51 51 53 53 52 50 46 45 45 41 46 48 46 42 36 35 30 25 23 24 27 30 32 34 32 33 33 35 32 33 36 35 32 30 31 33 31 32 31 31 30 30 30 29 31 33 33
44 45 45 48 49 49 52 50 47 50 51 51 50 45 44 43 42 42 48 47 42 33 29 28 26 28 35 33 35 33 33 31 33 35 34 34 33 32 31 32 32 32 31 30 28 29 30 30 30 33 34 33 32 32

GFSWCAN_sfc_dewp_060.txt.gz
Dewpoint
55 54 53 52 51 52 52 51 51 52 52 52 53 54 55 55 54 50 48 51 46 43 44 40 38 39 39 37 35 36 35 36 35 29 31 31 30 32 30 32 30 30 28 29 29 28 26 35 34 32 35 37 37 36
55 53 53 52 51 51 52 52 50 52 52 52 52 54 55 54 54 52 47 50 50 46 43 44 45 42 38 38 38 38 35 36 37 34 34 30 32 33 32 26 37 28 31 28 32 28 35 37 37 39 39 37 37 36
55 53 52 51 50 51 52 52 51 50 51 52 52 53 54 54 54 53 47 48 50 46 44 43 43 42 40 39 40 39 40 40 39 40 36 35 31 33 29 31 33 36 35 33 33 33 34 37 40 40 39 39 37 37
54 53 52 50 50 51 51 52 51 50 50 50 52 53 54 54 54 53 47 49 49 46 41 43 44 40 40 40 39 38 39 44 43 41 36 35 33 35 28 32 34 34 36 34 34 36 37 38 39 41 41 41 39 39
54 53 51 50 50 51 51 52 51 50 50 50 51 53 53 54 53 52 49 49 50 48 42 43 45 45 44 38 38 39 44 44 42 40 38 36 37 35 35 37 34 38 35 34 30 34 36 37 40 41 41 39 41 40
53 52 50 50 50 50 51 52 51 50 50 50 50 52 53 54 53 49 47 52 51 51 47 40 44 43 41 39 39 39 40 42 43 41 39 42 39 35 32 34 35 37 39 38 36 39 39 41 42 43 41 40 41 41
53 52 50 49 50 50 51 51 52 51 50 50 50 51 52 53 48 46 46 50 50 50 47 43 42 46 48 47 45 43 46 44 40 39 39 39 37 37 33 28 35 39 39 41 41 40 39 40 39 42 42 42 42 41
53 51 49 49 49 50 51 51 52 51 50 49 50 50 52 52 50 46 48 49 50 48 48 43 41 44 47 45 45 49 46 44 41 41 40 38 38 36 29 35 37 40 39 39 40 42 41 41 42 42 43 43 40 39
52 50 48 49 49 50 50 51 51 51 50 50 50 51 50 47 45 49 54 53 51 48 44 45 40 39 50 50 49 49 48 42 47 43 40 40 34 28 32 35 37 38 37 37 38 39 39 40 41 41 42 41 40 40
51 49 48 49 49 50 50 51 51 51 50 50 49 48 46 50 55 52 47 44 45 45 45 40 45 41 45 46 43 46 47 43 39 43 44 37 34 36 37 39 39 39 37 36 35 34 35 36 37 38 39 42 41 42
49 48 48 49 49 50 50 51 51 51 50 47 47 48 52 55 49 47 44 45 46 44 44 44 44 42 47 40 40 45 42 41 36 40 40 36 34 40 42 41 41 40 39 37 35 37 37 38 39 38 38 41 42 42
48 48 48 48 49 50 51 50 50 48 48 48 47 49 50 48 48 44 45 45 44 41 47 45 45 46 46 49 43 41 40 42 34 42 36 32 37 44 42 40 41 39 40 40 43 41 41 41 41 39 39 39 39 42
48 48 48 49 49 49 51 50 50 50 49 49 48 47 48 46 38 42 37 40 41 45 48 47 46 46 45 43 39 39 38 36 39 35 32 34 42 45 44 42 40 39 41 43 44 43 43 42 42 40 39 40 40 40
48 48 48 49 50 50 51 50 49 48 45 47 48 38 44 42 44 45 46 46 48 48 46 46 44 43 44 40 40 35 37 41 34 31 33 39 40 43 43 41 41 39 39 42 43 44 43 42 40 40 40 40 41 41
48 48 49 49 50 50 52 51 49 48 47 48 48 38 42 44 49 50 49 49 50 49 47 45 44 42 39 37 38 34 33 31 32 30 36 40 40 42 41 36 40 40 39 41 39 40 39 39 37 39 39 39 41 44
49 49 49 51 52 51 51 51 48 49 51 49 47 42 42 46 47 48 48 47 46 45 46 43 38 37 36 36 34 32 31 28 33 38 41 41 41 42 38 37 39 40 39 39 39 39 40 38 35 35 39 39 42 43
48 47 51 50 50 51 51 50 50 50 50 47 44 44 45 49 49 50 47 47 47 40 36 38 36 35 39 35 32 35 33 36 39 41 43 42 41 46 47 41 38 40 40 40 39 40 41 39 36 33 37 39 41 42
46 51 50 50 47 50 51 49 51 52 48 48 43 44 51 51 48 48 50 50 45 41 40 39 40 36 34 34 33 37 40 41 42 42 41 42 43 45 48 46 42 40 41 42 42 42 42 41 40 35 39 40 40 40
44 45 49 50 45 42 50 52 50 45 44 44 45 48 53 53 53 52 50 48 45 46 43 41 37 37 37 39 39 39 41 41 41 41 41 42 43 42 43 45 45 43 44 43 41 41 42 42 43 39 39 39 39 40
49 49 50 50 48 45 47 49 52 49 47 46 51 50 51 50 53 53 49 48 45 44 39 37 37 40 41 41 42 40 43 41 41 41 40 40 42 42 42 44 44 44 45 44 43 42 41 42 43 40 38 38 37 37
49 50 50 48 47 49 49 48 49 50 49 48 51 50 50 51 50 48 46 45 44 39 38 39 40 43 45 45 45 46 44 43 41 41 41 39 41 38 42 42 42 40 40 40 41 40 41 41 42 41 38 36 38 39
48 53 52 51 51 52 49 50 46 49 46 47 48 50 48 46 46 46 48 43 40 41 43 41 43 45 45 45 44 44 45 45 43 42 39 37 35 36 36 37 38 39 41 40 39 39 41 43 44 43 37 37 38 38
49 53 53 54 51 46 42 51 48 47 43 44 49 49 50 50 52 53 46 45 43 44 43 43 43 44 43 45 44 44 44 44 42 39 37 37 36 35 34 36 40 42 42 42 41 41 40 39 40 43 42 38 38 37
52 50 49 50 49 42 47 45 48 45 47 47 47 46 48 50 52 49 43 43 44 46 43 43 47 45 44 42 39 39 39 37 36 36 36 36 36 36 36 37 40 42 43 37 39 39 40 40 39 40 41 37 37 36
44 43 46 38 46 46 44 43 43 45 45 47 47 47 47 50 47 46 43 43 45 45 41 36 35 34 32 34 36 37 35 34 35 35 36 34 34 33 34 36 36 36 38 38 37 36 39 40 40 36 37 35 36 38
38 43 42 43 40 38 38 41 46 47 47 47 48 50 50 46 44 43 45 46 48 40 34 33 31 31 32 35 34 32 32 32 30 31 32 34 33 32 33 34 34 36 37 39 38 37 37 36 35 33 33 35 35 34
38 42 44 47 42 41 41 45 48 47 46 46 47 48 46 40 39 43 47 50 42 35 34 32 32 30 31 32 33 31 30 29 28 28 30 29 29 29 30 31 32 35 37 36 36 37 37 35 33 34 35 34 34 34
42 41 41 41 41 44 42 43 47 46 47 50 49 46 45 44 44 48 49 50 39 33 30 29 29 31 31 32 32 32 31 31 29 28 28 26 26 28 31 35 35 34 30 32 32 35 34 33 33 32 32 32 32 33
42 43 41 39 40 40 47 48 49 50 51 50 48 46 47 52 49 45 48 46 44 34 30 29 28 29 28 28 29 30 32 31 27 25 25 26 26 28 31 32 32 28 24 24 32 32 31 33 33 33 33 33 31 30
37 38 36 35 38 45 48 51 51 52 53 53 52 50 47 45 45 47 46 45 44 43 36 32 30 27 24 21 21 26 29 30 30 27 26 26 26 29 31 32 31 28 25 27 27 27 34 34 33 32 31 30 31 30
37 37 34 38 48 50 51 53 53 55 55 53 52 51 49 45 46 47 46 47 44 31 26 23 23 27 27 26 24 28 30 32 32 27 27 28 30 31 30 30 30 32 32 32 32 32 32 31 31 31 28 27 28 29
38 37 41 47 50 52 52 50 51 51 52 52 51 51 47 45 43 43 44 43 36 28 31 26 24 28 31 32 32 32 34 31 32 32 32 33 33 32 32 30 29 30 31 33 32 32 30 28 28 27 27 29 30 30
46 48 49 49 49 50 50 49 48 48 50 50 49 46 46 46 42 43 45 43 37 30 27 26 31 33 32 31 31 31 32 31 33 34 34 34 33 32 32 32 32 32 30 29 29 29 28 27 27 28 30 30 31 30

GFSWCAN_sfc_dewp_063.txt.gz
Dewpoint
56 55 54 53 52 51 51 51 51 51 52 53 53 53 54 54 54 48 48 49 44 41 43 39 38 38 39 36 34 35 34 34 33 27 24 30 29 31 28 31 25 27 25 18 28 25 20 35 34 28 33 37 36 35
55 55 53 52 51 51 51 51 51 50 51 52 53 53 54 55 54 50 46 48 49 45 41 45 44 43 40 39 37 37 32 34 35 31 30 32 31 33 29 17 36 29 27 24 27 26 33 36 35 38 39 36 35 35
55 55 53 52 51 50 51 51 51 50 51 51 52 53 53 54 54 50 45 46 47 44 44 43 42 44 40 39 41 37 39 38 37 37 33 31 23 31 29 30 32 34 35 28 29 29 33 34 37 39 40 39 39 39
55 54 53 52 50 50 51 51 51 49 49 50 50 52 53 54 54 52 46 46 47 44 39 41 45 43 41 39 40 40 40 42 41 39 35 32 28 33 26 29 27 31 36 34 33 33 34 36 38 39 39 41 40 39
55 54 53 51 50 50 51 51 51 49 49 49 50 51 53 54 53 50 47 47 49 46 40 41 45 45 45 39 38 42 43 42 40 38 38 35 36 34 32 34 34 36 33 31 28 32 32 32 37 40 40 41 40 40
55 54 53 51 49 49 50 51 51 50 49 49 50 50 52 53 52 48 47 50 50 51 44 40 43 43 43 41 38 43 43 43 43 41 38 41 39 35 34 31 34 35 36 35 34 35 37 38 40 42 41 42 42 41
54 53 52 50 49 49 50 51 51 51 50 50 50 50 51 52 47 45 45 48 50 49 46 40 40 44 47 44 43 41 44 46 43 42 39 41 38 37 36 27 34 36 37 38 39 37 37 39 39 40 41 42 44 42
54 53 52 49 49 49 50 51 51 51 49 50 50 50 51 52 50 45 47 49 49 47 48 40 39 42 45 42 43 47 44 47 46 45 43 39 40 38 34 34 35 37 38 39 40 40 40 40 40 40 41 43 42 40
53 52 50 49 48 48 49 50 51 51 50 50 50 51 48 46 44 47 53 52 50 47 40 40 36 37 46 45 45 44 48 43 47 43 43 42 37 34 35 34 36 38 38 37 38 39 39 39 39 39 40 41 41 39
53 51 49 48 48 48 49 50 50 51 50 50 49 46 45 48 53 52 47 44 44 43 43 40 42 39 43 42 41 44 45 42 40 42 45 38 35 38 36 33 38 38 39 37 35 34 35 35 35 37 37 40 41 40
51 49 48 48 48 49 50 51 50 50 49 46 46 46 49 53 48 46 43 44 45 43 42 43 43 41 45 40 41 44 41 42 34 36 38 34 33 41 42 41 41 40 39 37 36 36 35 35 37 38 39 40 41 41
49 48 47 47 48 49 50 50 50 47 48 48 47 47 48 46 46 45 44 44 43 41 44 43 43 43 44 47 43 42 40 41 34 38 35 26 33 39 42 42 40 41 40 40 40 40 40 40 40 40 40 39 39 40
47 47 47 48 48 48 50 50 49 49 48 47 46 45 46 45 40 42 37 38 42 43 46 45 43 43 44 42 40 39 38 34 38 33 28 30 36 41 42 43 42 41 39 41 41 41 41 42 42 42 41 39 39 40
46 47 48 48 49 49 49 50 49 48 45 44 46 39 44 41 43 44 44 43 45 45 45 45 43 42 42 39 39 34 36 38 33 30 26 35 38 40 41 43 42 41 39 41 43 43 43 43 42 41 41 40 40 41
47 48 49 49 50 50 51 50 49 48 46 45 46 38 43 44 46 48 48 47 48 48 46 43 45 41 38 37 37 34 33 31 30 29 34 39 39 40 41 41 39 40 40 39 40 40 40 39 39 36 38 39 40 43
48 48 48 51 51 51 51 50 48 48 48 47 46 43 42 44 45 47 46 45 47 46 45 42 38 37 35 35 33 31 30 27 31 35 39 40 40 39 42 43 43 43 40 39 40 39 39 40 38 35 38 39 42 42
48 45 51 49 49 50 50 48 48 48 48 48 47 46 44 46 47 47 47 45 46 39 35 37 35 34 37 34 32 34 32 34 37 39 41 40 40 40 45 46 46 45 42 40 38 38 38 39 37 35 37 40 41 41
47 51 50 48 46 50 49 48 50 50 49 48 45 44 49 50 49 49 49 49 46 41 39 37 40 36 33 32 33 36 38 39 41 40 40 40 41 41 44 42 43 43 44 44 44 44 43 40 37 36 37 39 40 38
44 45 48 49 44 39 46 51 48 44 45 46 46 47 50 51 52 51 50 49 47 46 43 41 37 36 36 38 38 38 40 42 39 39 39 40 40 41 41 42 43 43 44 44 44 43 43 41 38 39 39 39 39 39
49 50 50 50 47 41 42 47 51 46 46 46 50 49 49 47 49 50 49 48 45 44 42 38 37 39 39 39 41 40 42 41 40 38 37 39 40 39 39 39 40 40 41 41 42 42 42 40 42 40 38 38 38 38
48 49 50 48 46 47 48 47 48 50 48 47 48 48 48 50 48 48 47 46 46 45 44 41 41 41 44 43 44 44 41 40 39 39 39 37 38 41 42 40 40 39 37 37 38 38 39 39 42 44 39 37 38 39
43 52 50 49 49 50 46 48 44 44 45 45 46 47 47 47 48 49 50 47 43 45 45 45 42 45 44 43 43 43 43 40 39 37 37 37 36 35 37 38 39 39 40 41 39 38 40 44 45 42 40 38 39 39
47 51 52 52 49 46 44 51 48 46 42 44 47 47 48 47 50 53 47 47 45 45 44 42 43 44 44 44 42 42 43 39 38 36 35 35 34 33 36 39 40 39 38 39 39 39 38 39 43 43 41 38 37 37
48 49 48 49 48 43 47 44 48 45 48 46 45 44 47 47 49 48 45 43 43 44 39 44 43 38 38 39 38 36 36 37 37 36 35 35 35 35 36 38 39 39 39 36 38 38 39 41 42 41 42 39 37 35
43 42 45 37 45 47 45 44 43 45 42 44 45 46 46 46 45 45 44 43 44 39 40 38 35 37 36 36 36 35 35 35 35 34 34 34 33 34 35 35 36 36 38 35 36 37 37 38 38 39 39 39 37 36
37 43 41 44 41 40 38 39 44 44 44 45 47 47 47 43 43 41 44 45 44 41 34 34 35 35 35 34 34 32 32 34 34 33 33 34 32 33 33 33 33 35 37 37 36 35 36 35 34 34 34 35 36 33
37 40 43 46 41 40 39 43 48 46 46 46 47 45 45 40 39 41 47 47 42 35 33 34 35 34 33 32 31 30 30 29 32 32 32 32 32 33 34 34 32 34 36 36 36 35 35 34 34 34 34 34 33 32
44 42 41 41 40 43 41 42 45 45 47 48 47 45 44 44 44 47 50 50 37 31 30 31 31 33 32 30 29 29 28 29 27 25 25 26 28 30 34 35 32 34 31 33 35 34 33 33 32 33 32 32 32 33
42 43 40 38 38 39 44 46 46 47 49 48 47 44 45 49 48 45 45 43 32 28 28 29 29 30 30 30 30 30 28 26 23 22 22 24 26 28 32 30 27 24 25 29 34 34 33 33 33 33 30 30 29 28
36 41 36 35 36 41 47 49 49 50 53 51 51 49 45 44 45 46 46 44 36 29 27 26 28 26 25 25 26 29 30 27 24 24 25 25 26 28 31 31 29 24 25 27 28 31 35 33 32 30 29 29 29 28
36 35 33 35 45 47 50 52 52 52 52 50 50 49 46 44 44 46 44 44 43 39 34 29 27 24 22 27 28 28 28 31 31 28 27 27 28 30 31 31 30 27 27 30 31 32 31 31 30 28 27 27 29 28
36 34 34 44 46 50 51 49 50 48 48 50 47 48 46 44 41 42 43 40 28 23 29 28 27 27 27 28 30 30 32 30 28 28 29 30 30 31 31 30 30 31 31 31 32 31 30 28 27 28 29 30 29 29
44 47 48 48 48 47 47 48 47 45 47 46 47 47 46 44 41 42 40 36 31 24 24 28 31 32 31 30 31 31 32 32 33 34 34 34 34 33 30 29 30 31 32 32 31 28 27 27 27 28 30 30 30 30

GFSWCAN_sfc_dewp_066.txt.gz
Dewpoint
55 56 55 54 52 51 51 51 51 51 51 53 53 53 54 54 54 49 48 48 44 40 40 42 38 38 38 35 33 34 33 32 31 25 23 29 28 31 27 25 24 22 18 18 28 25 18 35 32 26 31 36 37 35
55 55 55 54 52 50 50 51 51 51 50 52 53 53 54 54 54 48 45 47 48 45 40 44 44 43 40 38 37 35 32 33 33 30 29 30 31 32 28 17 30 26 25 22 24 24 31 36 33 36 37 37 36 36
54 55 55 54 52 50 50 51 51 51 50 50 51 53 53 54 54 48 44 45 46 43 43 43 42 44 42 40 40 36 38 37 35 35 32 29 23 31 25 25 27 34 32 26 28 28 32 34 37 38 38 38 39 36
54 55 55 54 52 50 50 51 51 50 49 50 50 51 53 54 54 51 45 45 46 43 39 38 45 43 43 40 40 39 39 40 39 37 33 30 27 32 27 27 27 30 34 34 33 32 33 35 37 38 38 40 40 41
54 54 55 53 52 50 50 51 51 50 49 49 50 50 52 53 53 49 46 46 47 45 39 41 43 44 45 39 39 42 41 41 42 39 36 33 33 32 31 32 28 34 32 30 28 32 31 31 36 39 39 40 41 41
53 54 54 53 51 49 50 51 51 51 50 49 49 49 50 52 51 47 45 48 48 49 43 39 42 42 44 41 40 42 42 43 42 41 41 40 38 35 32 32 33 35 35 34 32 34 35 36 38 40 40 41 42 42
53 53 54 53 51 49 49 50 51 51 51 50 50 50 50 51 46 44 44 47 49 47 45 39 38 42 46 41 41 41 45 46 44 43 42 43 41 38 37 30 34 36 36 37 37 38 36 38 38 40 41 42 43 43
53 53 54 53 50 49 49 50 50 51 51 49 49 50 50 51 49 45 46 50 50 47 47 39 38 40 44 41 40 46 46 46 46 44 44 41 41 40 35 37 35 37 37 37 38 39 38 39 40 40 41 41 41 41
52 53 53 52 49 48 49 49 50 51 51 49 49 50 48 45 44 47 53 52 50 47 41 39 36 35 44 43 43 44 47 43 46 43 43 43 38 34 38 38 36 37 37 37 38 39 39 39 40 40 39 39 40 40
53 53 52 49 48 48 48 49 50 50 50 50 48 46 45 47 51 52 47 45 44 43 44 42 40 39 42 41 41 44 44 40 39 41 40 35 34 41 42 40 35 38 39 39 36 35 36 37 37 37 37 39 40 40
53 52 49 48 48 48 49 50 51 50 49 45 45 45 48 52 48 46 44 42 45 41 41 43 40 40 44 39 42 41 37 38 35 34 38 34 33 40 43 41 39 40 40 39 37 37 36 36 36 37 38 40 40 40
50 49 48 47 47 48 49 50 49 47 46 47 47 47 47 46 45 45 43 46 44 41 44 43 42 44 43 44 41 40 40 40 33 37 35 29 33 36 40 41 42 41 41 41 40 39 39 39 39 39 40 40 40 40
48 47 47 47 48 48 49 50 49 49 47 46 45 43 44 43 40 41 34 39 42 44 45 46 42 43 44 41 41 41 38 35 37 34 31 30 35 38 39 41 42 43 41 41 41 42 41 41 43 42 42 43 41 40
47 47 47 48 48 49 49 50 50 48 44 41 44 40 45 39 42 42 43 42 44 44 45 44 43 42 41 41 38 34 36 38 34 31 25 34 37 39 40 41 42 42 42 41 41 42 42 43 43 43 43 41 40 41
47 48 48 49 50 51 50 50 49 47 45 43 44 37 42 45 44 46 48 47 46 47 45 43 43 41 40 39 37 34 33 32 31 28 33 37 38 39 40 41 38 41 42 41 41 41 42 43 42 40 38 40 41 42
48 48 49 50 50 51 50 49 47 47 47 44 43 41 43 43 43 47 46 45 46 46 44 42 39 37 36 35 34 32 31 28 31 35 38 39 39 39 40 41 43 44 44 44 42 42 42 40 41 41 38 39 42 42
48 45 50 48 49 50 50 49 47 46 45 46 45 45 43 43 44 45 49 49 45 43 37 38 35 35 37 35 33 34 32 34 37 39 40 39 39 40 41 43 44 43 43 42 40 41 42 42 41 40 39 40 43 42
47 50 50 47 46 50 49 48 49 49 45 46 43 42 45 46 46 47 49 49 47 41 39 37 40 37 35 34 34 36 38 39 40 41 40 39 40 41 43 41 43 43 43 44 44 45 45 44 42 38 40 43 41 41
44 47 48 49 45 40 43 50 47 42 44 46 46 46 47 49 49 49 49 48 47 46 44 40 39 38 39 40 37 37 40 40 39 39 39 40 40 41 42 41 41 40 41 41 41 43 44 43 42 41 42 43 39 39
49 50 51 50 46 39 38 43 49 45 43 46 46 47 48 47 47 48 48 48 45 45 42 42 42 43 40 40 39 40 41 41 39 38 37 38 40 40 40 40 40 39 39 40 40 41 42 41 44 44 43 41 39 39
48 49 49 47 45 46 47 46 46 48 48 46 47 46 46 47 47 48 48 47 46 45 44 46 45 40 42 42 42 42 40 40 39 38 37 36 39 41 40 40 40 39 38 38 39 39 42 42 43 45 43 39 40 41
42 51 50 50 48 47 45 46 43 42 43 44 45 45 45 44 45 46 49 46 46 46 47 47 44 44 44 43 43 42 40 38 38 37 38 37 35 36 37 37 38 37 39 39 38 38 42 44 44 44 43 41 41 41
46 50 52 52 49 46 44 49 46 46 42 43 46 45 46 45 46 49 47 48 47 46 46 42 44 45 44 42 43 41 39 37 37 35 35 34 34 35 38 39 38 39 38 39 39 39 39 43 44 44 41 41 39 36
46 48 48 49 48 43 47 45 48 47 47 45 45 45 45 45 47 44 42 43 43 42 44 45 43 39 38 38 38 38 37 37 35 35 34 35 35 36 37 37 38 39 38 37 38 39 41 43 43 44 42 39 37 33
43 41 44 37 44 46 46 45 44 45 44 44 44 44 43 45 43 45 43 42 41 42 46 39 38 37 36 35 35 35 36 35 34 34 34 35 35 34 34 35 36 37 38 35 36 36 37 39 40 42 41 40 37 35
36 41 41 44 43 41 39 38 43 43 43 43 45 46 45 43 42 42 44 44 44 40 38 37 36 35 35 35 34 33 34 35 34 33 34 33 33 33 33 33 33 35 36 38 37 36 36 35 36 36 36 35 35 34
36 38 42 45 43 41 39 40 46 45 45 44 44 44 46 41 41 43 48 46 42 40 35 37 36 35 34 34 32 32 34 34 34 34 34 34 33 34 35 34 34 35 37 37 36 35 36 36 34 34 35 34 34 30
44 43 41 41 41 43 40 41 43 44 45 47 46 45 44 44 44 46 48 46 39 34 34 33 34 34 33 32 30 30 29 29 27 27 27 28 30 33 36 33 32 33 35 36 35 35 35 35 34 34 33 33 33 33
39 43 41 38 37 38 39 41 44 46 48 47 46 47 46 48 49 46 46 39 31 31 31 31 31 32 30 30 30 29 28 25 25 25 26 25 27 29 34 30 27 27 31 33 35 35 35 34 33 32 31 31 30 30
34 41 37 35 33 35 43 48 48 50 50 50 50 48 44 43 45 46 39 30 30 30 30 30 30 30 29 28 28 29 30 27 25 25 26 26 27 28 32 32 29 26 29 31 33 34 35 33 32 31 31 31 30 30
37 37 34 32 39 46 49 50 52 51 50 49 49 47 44 44 44 45 44 39 34 33 28 28 28 28 28 28 28 29 28 30 29 28 28 28 28 30 32 32 30 28 31 32 33 33 32 31 31 30 29 30 30 29
39 36 35 41 46 49 50 50 50 48 48 49 46 47 46 44 41 43 44 44 39 37 37 31 27 26 26 29 31 31 32 30 31 30 30 29 30 32 32 32 31 30 30 30 33 32 31 30 29 29 30 30 31 31
39 44 47 47 46 46 47 48 46 45 46 46 46 47 46 45 43 43 40 36 35 31 30 31 30 29 28 30 31 31 32 31 32 32 33 33 33 33 31 31 31 33 33 33 33 32 29 29 28 30 31 32 32 32

GFSWCAN_sfc_dewp_069.txt.gz
Dewpoint
55 55 56 55 54 52 50 51 51 52 51 51 52 54 54 54 54 51 50 51 47 44 41 40 38 39 38 37 37 37 36 34 32 34 34 34 34 33 32 32 31 30 33 34 32 30 28 35 32 31 34 36 35 35
55 55 55 55 54 53 50 50 51 51 51 50 52 53 54 54 54 49 47 49 50 47 42 45 43 42 41 40 38 38 35 37 34 35 35 35 34 33 33 32 34 32 35 35 34 34 34 37 34 36 35 34 35 36
54 54 55 55 54 53 50 50 51 51 50 50 50 52 53 54 54 50 48 49 49 47 43 44 43 45 46 43 40 37 38 38 39 37 33 36 34 36 34 34 34 35 35 37 34 34 34 37 38 38 38 37 37 36
54 54 54 55 54 53 50 50 51 51 50 49 49 50 52 53 54 51 49 49 49 46 41 38 44 44 45 42 41 40 41 41 39 38 37 36 36 36 36 35 36 37 37 37 36 36 35 36 38 39 39 39 39 39
53 54 54 55 54 52 50 50 51 51 50 49 49 49 50 52 53 51 51 50 50 47 43 43 45 45 45 43 41 42 41 40 43 41 37 38 34 35 36 37 38 37 37 38 39 38 38 35 39 40 40 39 41 41
53 53 53 54 54 52 50 50 51 51 51 50 49 49 49 51 51 50 49 50 51 51 46 40 44 45 46 41 42 42 42 42 42 44 43 41 39 42 37 36 39 39 40 40 36 39 38 39 40 41 40 41 41 42
53 53 53 54 54 52 49 49 50 51 51 50 50 49 49 50 52 46 47 49 50 51 46 41 39 44 47 42 42 42 45 47 48 46 44 45 43 42 39 36 38 38 38 40 39 39 38 39 39 41 42 42 43 43
53 53 53 54 53 51 49 49 50 51 51 49 49 49 50 51 50 47 48 50 51 48 47 41 39 43 47 46 47 50 46 48 47 46 46 43 42 40 34 39 43 41 39 39 39 40 39 41 42 42 42 43 43 42
52 53 53 53 52 50 48 49 50 50 51 49 48 50 50 49 48 48 53 52 51 49 45 44 41 39 47 48 49 50 50 45 49 45 44 43 39 34 40 42 42 41 39 39 39 39 39 40 41 42 42 42 41 41
52 52 53 52 50 48 48 49 50 50 50 49 49 49 48 50 53 52 48 46 48 47 49 43 45 44 46 46 46 46 48 44 41 43 43 40 39 43 44 44 45 45 40 40 38 38 39 40 40 41 41 42 42 42
53 53 51 49 48 48 49 50 51 50 49 49 49 50 51 52 50 49 46 44 46 43 46 45 45 44 48 46 45 47 43 44 39 40 38 36 36 43 44 45 45 45 41 42 40 39 40 40 39 39 39 40 42 43
52 50 49 47 47 48 49 50 50 49 48 49 49 49 50 49 47 45 45 46 44 43 46 46 45 46 48 49 46 45 42 42 34 42 38 33 41 41 42 44 45 45 43 42 43 43 42 41 40 41 42 41 41 43
49 48 47 47 48 48 48 50 49 49 49 49 48 46 46 46 40 41 40 42 43 47 48 48 47 48 48 47 44 43 38 37 42 38 34 38 43 42 43 43 43 44 45 44 44 44 44 43 43 43 43 44 44 43
46 47 47 48 48 48 48 50 50 49 47 42 45 38 43 42 44 44 45 46 46 48 48 49 47 48 45 43 42 38 40 41 33 33 35 40 44 44 44 44 44 43 44 44 44 44 44 44 44 45 45 44 44 43
48 48 48 49 50 51 50 50 49 48 47 41 46 38 44 46 47 49 49 49 50 50 49 48 46 45 42 40 39 37 36 34 36 36 39 43 44 45 45 44 44 43 44 44 44 43 44 44 44 45 45 43 43 45
49 48 50 50 50 50 50 48 48 48 48 44 44 44 46 45 46 48 50 50 50 50 48 46 43 39 38 37 36 35 32 32 34 41 44 45 45 46 46 45 45 45 45 44 44 44 44 44 44 43 43 42 43 45
48 47 50 49 51 50 50 49 48 46 43 44 44 46 41 44 45 46 50 51 52 47 44 41 39 36 38 36 35 35 36 38 41 43 45 46 46 46 46 47 46 44 44 44 44 45 44 45 44 43 43 43 43 44
49 51 48 48 48 50 50 49 48 47 45 46 42 39 47 51 50 51 53 52 50 47 44 40 41 38 36 34 36 39 41 41 42 46 46 47 47 46 46 46 43 42 44 44 44 43 42 41 40 42 42 45 44 43
44 47 49 49 45 42 40 49 48 42 43 46 48 49 51 53 54 54 52 50 53 51 46 42 41 40 39 41 38 39 43 41 43 46 45 45 46 46 45 44 44 43 44 44 44 45 45 44 44 43 44 46 43 39
49 50 51 50 47 42 38 41 50 48 46 46 49 49 52 53 51 51 51 52 51 49 45 44 43 44 44 43 43 42 43 43 41 40 41 41 44 45 44 44 41 43 43 44 43 42 44 42 45 45 45 43 39 40
48 49 49 48 46 44 45 47 48 50 50 50 52 52 52 52 50 49 50 48 48 47 46 48 48 48 48 45 44 44 44 43 42 40 39 38 41 41 41 41 41 39 38 40 41 42 43 44 44 45 44 41 41 41
44 50 51 50 48 46 46 46 44 45 42 44 49 51 50 49 49 51 52 50 48 48 50 49 48 46 45 47 45 45 45 44 44 39 38 36 34 36 37 38 35 36 39 42 39 42 42 44 44 46 44 43 43 38
47 50 51 51 49 46 45 51 49 48 44 44 50 48 49 50 51 53 50 50 48 47 48 45 47 48 46 46 43 41 42 43 37 35 35 35 37 38 37 37 37 39 40 42 40 40 42 43 44 43 41 41 35 34
46 50 50 49 48 43 49 48 49 48 48 48 47 45 48 49 51 48 44 44 42 44 46 46 44 43 44 45 40 38 39 37 35 35 36 35 35 37 37 37 37 39 41 37 40 41 42 44 43 43 39 35 33 33
44 44 44 38 47 47 48 46 45 46 44 46 45 46 48 50 45 45 44 38 43 45 46 43 42 41 38 38 38 38 40 35 34 34 36 35 34 34 35 36 36 37 37 33 35 36 40 42 42 41 40 37 34 33
37 40 42 46 45 44 40 40 42 43 45 44 46 48 49 46 43 42 44 45 46 43 41 41 39 37 35 34 34 34 37 37 37 30 34 33 33 30 32 32 32 35 37 37 35 35 35 36 36 35 33 33 34 31
37 38 42 46 44 43 42 42 43 46 44 44 48 47 46 41 41 45 48 48 44 42 41 41 38 34 33 33 35 36 36 36 37 34 35 34 34 36 35 33 33 36 37 36 35 35 34 34 33 33 33 33 31 32
44 44 40 42 43 44 42 41 41 43 46 50 48 45 44 44 44 47 46 44 39 38 38 38 37 35 33 33 33 35 34 32 32 32 32 32 34 36 36 32 33 35 37 36 35 34 34 33 32 31 31 30 29 29
41 43 44 41 39 38 39 39 43 50 52 51 47 46 47 51 50 48 49 40 35 35 34 34 34 34 33 33 33 32 31 28 26 27 26 25 28 32 31 30 31 33 34 34 36 35 35 32 31 30 30 30 30 30
37 41 39 37 35 33 38 48 50 53 54 53 52 49 46 45 46 47 39 34 33 32 32 32 33 32 31 30 30 30 30 28 26 26 26 25 26 30 33 30 27 29 32 33 32 32 35 32 31 30 31 31 30 29
39 39 36 34 33 45 50 52 53 53 53 52 53 50 45 45 46 47 43 37 33 33 32 31 31 32 31 30 29 29 28 29 29 29 29 27 27 30 31 30 28 31 33 34 34 33 32 31 30 29 29 30 30 30
41 38 36 36 45 52 52 52 51 51 52 51 50 50 46 45 43 45 46 43 36 32 33 31 29 29 32 31 31 30 33 29 30 29 31 29 30 32 32 31 28 27 31 29 32 32 31 30 29 30 30 30 31 31
41 39 39 44 48 49 51 51 48 48 49 49 50 47 46 45 44 45 42 43 43 38 36 36 33 32 34 33 33 32 33 33 34 32 33 33 33 33 31 31 31 32 32 31 31 31 31 29 29 30 31 31 32 32

GFSWCAN_sfc_dewp_072.txt.gz
Dewpoint
54 55 55 55 56 55 52 50 50 51 51 50 52 53 54 54 54 50 49 54 48 39 39 38 37 38 37 36 34 38 34 32 28 32 36 40 40 38 37 35 31 31 36 37 34 32 32 34 33 32 37 36 34 35
54 55 55 55 55 55 53 50 51 51 51 50 51 52 54 54 54 52 47 52 52 46 43 45 41 41 41 40 37 38 33 32 32 34 37 37 40 35 36 37 33 36 37 42 36 38 37 38 35 37 34 35 35 35
54 54 54 55 55 55 53 50 50 51 50 49 50 51 53 54 54 52 49 50 49 44 42 41 41 43 43 42 41 37 37 37 38 39 32 33 36 35 38 37 36 34 36 40 37 30 35 38 36 37 36 35 36 34
53 54 54 54 55 55 53 50 49 50 50 49 49 50 51 53 53 52 50 50 49 45 35 38 45 45 45 43 44 40 41 41 41 38 36 36 37 35 37 37 39 36 37 37 38 36 35 36 37 38 38 38 37 36
53 53 54 54 54 55 53 50 50 50 50 49 49 49 50 52 53 51 52 52 52 47 37 37 42 43 44 45 44 43 40 41 40 37 37 37 37 36 36 35 41 36 37 41 42 37 39 34 39 40 39 39 39 38
52 53 53 54 54 54 51 49 49 50 51 50 49 48 49 50 52 49 48 51 53 51 45 36 42 45 45 44 44 45 42 40 40 40 41 44 40 39 41 39 39 37 39 39 36 37 37 37 39 40 39 40 40 39
53 53 53 53 54 53 51 49 49 49 50 50 49 48 49 50 50 46 47 50 51 52 44 36 37 45 46 44 42 42 43 43 41 44 44 46 44 44 40 38 39 41 40 41 41 39 39 38 37 39 40 41 41 40
52 53 53 53 54 53 51 49 49 49 50 49 48 48 50 51 50 48 49 50 51 48 45 40 37 41 47 44 44 46 43 44 44 43 46 45 44 42 37 41 42 43 42 41 41 39 36 38 38 40 41 42 41 41
52 52 53 53 53 52 50 48 49 49 50 48 48 49 51 49 48 49 53 53 51 49 45 45 43 39 46 48 48 47 46 46 50 46 47 45 42 37 41 43 42 43 43 42 42 40 38 39 39 41 41 41 41 39
52 52 52 53 52 50 48 49 48 49 50 48 50 49 49 51 53 52 50 48 47 47 46 45 45 45 45 45 46 47 46 42 42 44 44 43 42 43 43 45 46 45 43 41 40 40 38 38 38 39 40 40 39 38
52 53 53 51 49 48 48 49 51 50 49 48 48 49 52 52 50 49 46 44 46 45 45 45 45 43 47 46 47 46 43 45 40 40 40 39 39 40 42 44 47 45 43 41 43 42 38 38 38 39 39 40 40 39
52 51 49 48 48 48 48 49 50 48 48 49 50 51 51 48 47 45 44 46 45 45 46 45 45 45 48 48 46 46 43 43 34 40 39 37 39 40 42 43 45 45 44 42 42 43 41 41 40 41 40 40 41 40
48 47 47 47 48 48 49 50 50 50 50 50 47 46 46 46 41 41 42 45 45 46 46 48 47 47 48 48 46 44 38 36 40 38 38 39 41 42 44 44 43 45 45 45 45 44 44 44 44 43 43 43 42 42
47 47 47 48 48 48 48 50 50 49 48 42 42 40 43 42 43 43 44 47 46 46 46 50 48 49 47 44 44 39 41 39 33 32 37 36 42 43 44 45 45 42 43 44 45 45 45 45 45 46 45 45 44 44
49 48 49 50 50 51 50 50 50 49 47 40 40 37 37 40 44 47 48 48 48 49 49 48 47 48 45 43 40 37 35 33 34 35 32 38 45 45 45 44 44 43 43 43 43 43 43 45 45 45 47 46 46 45
49 49 50 50 50 50 50 49 48 49 46 42 41 37 38 40 36 43 46 50 51 49 49 50 45 43 41 39 35 34 31 31 29 34 41 46 46 47 48 46 45 43 43 41 41 42 43 44 46 46 47 48 47 46
48 49 49 51 50 50 50 50 48 46 42 40 37 38 35 33 34 35 43 45 51 48 46 44 40 38 39 39 36 35 35 34 35 41 46 49 47 47 46 44 43 41 41 41 41 42 41 41 41 43 46 46 47 47
50 49 48 50 50 49 49 49 48 46 43 41 38 33 37 41 42 43 48 52 50 49 48 43 41 37 39 36 37 36 36 38 45 47 43 47 47 46 43 42 42 41 41 42 42 43 44 43 42 41 42 46 47 47
47 46 49 49 46 42 40 46 49 41 39 39 41 41 43 45 49 51 51 52 51 51 45 47 43 39 39 43 40 38 38 40 43 42 44 46 46 44 44 42 40 39 40 42 42 40 41 45 46 43 44 46 46 45
49 50 51 51 47 42 41 40 51 48 44 43 45 45 47 50 53 50 49 50 52 51 46 45 44 45 44 42 42 41 40 42 38 39 41 40 42 42 42 37 34 37 37 38 38 39 35 45 43 45 45 46 46 43
46 49 49 48 45 43 44 44 45 46 45 45 46 50 46 51 54 46 48 49 49 49 46 49 49 47 50 50 47 45 45 44 40 37 36 34 36 36 36 36 34 31 30 32 36 41 40 43 44 45 46 46 46 44
46 50 51 51 48 47 46 47 43 44 42 39 42 45 44 49 51 50 52 50 50 49 51 51 54 53 50 48 46 46 47 46 43 36 36 35 31 32 32 30 31 32 34 37 39 40 43 44 45 46 42 37 36 36
46 48 48 51 49 47 44 50 47 45 43 45 49 48 50 51 50 51 50 52 48 47 48 47 49 50 49 48 47 45 45 41 34 32 32 32 32 33 30 32 33 33 35 38 39 40 43 43 43 42 37 32 31 31
45 48 49 48 48 43 48 49 49 48 47 49 47 42 48 50 51 48 46 45 43 46 46 47 49 46 45 45 39 39 38 33 31 32 33 31 29 30 32 32 33 33 33 40 40 42 43 42 41 35 32 30 29 28
45 44 45 39 47 47 45 44 44 45 42 43 42 45 48 49 46 45 44 39 44 45 48 47 45 44 40 37 34 36 37 30 29 30 32 30 29 30 32 32 32 33 30 30 31 33 38 39 36 34 35 30 30 29
37 42 43 43 42 42 38 36 38 40 41 39 43 50 49 47 42 42 44 43 46 44 44 42 41 37 32 31 30 30 31 31 30 28 30 29 28 29 29 29 28 31 32 31 30 30 30 30 29 30 29 30 33 31
37 36 40 44 42 41 40 40 39 39 39 40 47 47 46 41 41 44 46 43 43 41 42 40 35 29 29 29 30 31 31 33 34 30 30 30 31 34 32 30 30 32 33 32 31 30 30 29 28 28 28 30 29 28
41 40 37 39 40 39 39 37 36 34 40 50 50 43 42 41 44 47 44 43 37 37 35 32 29 27 27 30 30 30 29 29 31 30 30 29 32 32 34 32 33 36 34 33 31 32 31 30 29 28 28 27 28 28
40 39 40 37 36 33 34 32 32 44 54 53 46 47 46 51 50 46 44 36 32 30 28 28 29 29 30 30 30 30 29 27 28 29 27 26 28 28 30 30 30 31 31 31 35 34 33 30 30 29 29 30 30 30
37 37 35 33 32 28 30 35 45 52 53 51 51 49 46 47 47 48 42 34 30 29 28 27 28 28 28 28 28 29 29 27 27 26 25 25 26 26 27 28 29 30 31 31 30 31 34 32 31 30 31 30 29 30
36 35 34 33 30 34 39 45 51 53 52 50 51 50 46 46 46 47 45 37 31 30 30 29 29 29 28 28 28 29 28 28 30 30 29 25 26 28 29 29 30 30 32 33 33 32 30 30 30 30 30 30 31 31
35 35 32 32 36 48 51 50 48 49 51 51 48 48 46 45 43 45 46 45 37 32 34 32 30 30 31 30 30 30 33 27 30 30 32 27 27 30 30 28 29 30 31 30 31 31 30 30 30 30 30 31 32 32
40 36 34 32 35 45 50 50 48 48 48 47 47 46 45 43 43 46 48 46 43 37 34 32 31 33 35 36 34 32 32 30 33 32 32 33 32 31 28 28 28 29 29 30 30 30 30 30 30 31 31 32 32 32

GFSWCAN_sfc_dewp_075.txt.gz
Dewpoint
54 54 55 55 55 56 55 52 49 50 51 51 52 53 54 54 55 51 48 53 49 37 36 34 34 37 35 34 32 36 31 30 27 31 35 42 40 40 38 38 33 32 36 38 32 32 34 33 31 30 39 39 36 35
54 54 54 55 55 55 55 53 49 50 51 50 51 52 53 54 55 53 46 51 51 45 42 40 37 39 39 39 36 34 35 30 31 33 34 37 41 34 36 38 33 37 35 42 36 38 41 38 36 41 38 39 35 35
53 53 54 54 55 55 55 53 49 50 51 49 50 51 52 53 54 53 47 50 47 42 39 37 36 40 39 38 39 37 36 37 34 38 31 32 34 33 37 36 35 33 34 40 35 34 35 37 36 35 34 34 35 33
52 53 53 54 54 55 55 53 49 50 50 49 49 50 51 52 53 53 48 49 48 42 35 38 41 42 42 39 41 40 40 40 40 37 34 34 37 36 34 35 38 35 36 36 36 35 35 36 37 37 36 35 35 35
52 52 53 53 54 54 55 52 48 49 50 49 49 49 50 51 52 52 50 51 51 48 38 35 39 40 41 42 41 42 40 43 39 37 35 36 38 38 37 36 40 36 37 42 42 38 39 38 38 38 38 37 37 37
52 52 53 53 54 54 55 50 48 49 50 50 50 49 49 50 51 49 47 48 52 50 44 35 42 41 43 43 43 43 42 41 41 41 40 46 42 40 40 41 40 39 40 41 38 39 38 38 38 39 39 38 38 38
53 53 53 53 54 54 53 49 48 49 50 51 50 49 49 50 50 47 48 51 51 51 44 35 35 42 44 43 41 42 43 42 42 42 41 42 46 42 42 40 39 38 40 43 41 40 38 37 36 37 38 39 41 40
53 53 53 53 53 54 52 50 49 49 50 50 49 49 49 51 50 47 49 50 51 49 43 39 37 40 44 41 43 42 41 43 44 43 47 47 44 44 41 41 41 41 43 42 43 40 38 38 37 39 39 40 40 39
52 52 52 53 53 53 51 50 48 49 50 50 49 49 51 49 47 50 53 52 51 50 46 43 41 45 45 42 45 44 44 46 49 47 47 45 45 41 42 41 41 43 44 43 42 43 39 37 38 38 40 40 39 38
52 52 52 53 53 51 49 48 48 49 51 49 49 48 46 51 53 52 51 48 48 47 45 44 44 46 42 43 47 49 48 42 44 45 44 45 45 45 44 42 44 45 45 44 42 44 42 39 37 38 38 39 39 38
52 52 53 52 50 49 48 49 51 50 49 47 45 46 52 52 49 48 46 44 45 44 43 43 43 45 46 46 49 47 44 43 42 42 41 44 40 40 38 42 45 45 46 42 41 41 41 40 38 37 37 38 40 41
51 50 50 49 48 48 48 49 51 49 47 49 51 51 51 47 45 45 44 45 45 44 44 42 45 44 47 48 47 45 42 42 34 38 39 39 40 42 41 40 41 43 43 42 41 41 42 42 39 41 40 38 39 40
48 47 47 46 47 47 49 50 50 50 50 51 47 44 44 45 43 41 41 43 43 45 45 47 48 48 48 46 48 46 38 36 38 37 42 40 42 40 41 40 39 41 44 44 44 45 46 45 46 45 44 44 41 43
49 48 48 47 48 48 48 50 50 50 48 43 41 42 41 41 42 40 43 49 45 44 46 51 53 49 47 46 47 39 41 39 34 34 37 33 45 42 43 42 42 41 40 41 42 42 44 45 45 47 47 45 45 44
49 49 49 50 50 51 50 51 50 48 46 41 37 37 35 35 37 45 47 46 46 45 48 53 52 51 49 45 44 40 34 32 32 34 35 48 48 46 44 42 42 41 41 40 40 42 42 41 41 43 45 47 48 47
48 49 50 50 51 50 50 50 48 47 46 42 40 36 32 32 30 34 41 41 43 45 51 54 47 45 43 42 38 36 34 32 29 34 38 44 47 46 46 45 42 41 40 38 37 37 38 38 39 41 42 45 46 48
49 49 50 50 50 49 50 50 47 45 41 39 35 34 32 32 29 27 31 36 48 50 50 49 42 41 42 40 38 40 37 34 37 37 44 48 47 47 44 41 40 39 39 38 39 40 41 40 41 40 40 42 44 47
51 48 50 51 50 50 49 48 45 43 40 38 33 32 32 34 36 38 41 51 52 53 53 47 44 40 37 35 37 41 40 38 41 41 44 49 48 46 41 41 40 39 38 39 40 40 41 42 41 39 41 41 43 47
46 47 49 49 49 44 40 44 46 40 38 35 35 35 36 37 42 44 46 51 53 53 50 46 41 39 40 43 41 40 40 37 38 41 44 46 45 44 42 40 37 37 38 38 37 34 37 46 46 42 45 46 44 47
49 49 51 51 48 42 41 41 48 46 41 39 40 39 40 40 44 45 47 51 53 53 48 45 45 44 41 40 41 42 40 36 34 40 40 40 39 42 39 36 31 35 30 33 36 39 35 45 46 45 45 45 44 44
46 49 50 50 45 44 43 42 42 42 40 40 40 41 43 50 49 51 53 55 52 51 47 49 44 43 45 49 46 42 44 40 36 35 33 32 33 32 33 34 31 28 27 30 37 37 39 44 45 47 45 45 46 47
47 50 49 51 49 48 47 46 42 43 42 39 40 42 44 50 52 54 52 52 51 49 48 48 54 55 54 52 48 47 48 45 42 33 34 33 30 29 28 28 29 30 32 35 36 38 43 47 44 44 35 35 37 33
46 46 45 48 49 48 45 47 45 43 42 43 47 48 51 52 52 51 53 53 49 49 50 51 52 54 54 50 49 47 44 40 32 30 30 29 30 32 29 30 29 31 32 35 37 40 41 42 40 37 34 33 33 32
46 45 45 46 47 44 44 47 48 44 43 46 46 43 47 51 51 48 46 44 46 47 47 50 49 47 46 48 41 39 37 32 30 31 32 30 27 30 32 29 28 29 33 33 37 44 45 36 39 32 32 31 30 29
43 42 44 42 46 44 41 42 44 44 43 46 44 45 50 53 49 46 44 42 45 45 46 48 48 45 41 36 33 34 36 30 28 29 31 28 28 29 29 28 29 29 28 29 32 34 34 34 33 30 28 26 30 30
41 42 43 39 38 40 36 34 39 42 38 38 44 49 52 48 44 42 46 44 46 46 44 44 44 40 33 31 29 29 30 29 30 28 29 29 29 29 29 28 27 28 29 29 29 29 29 30 30 29 29 31 33 30
38 36 39 40 40 39 38 38 38 37 37 40 47 46 44 41 40 44 44 44 44 44 42 40 36 29 28 28 29 29 29 31 33 29 29 31 31 32 31 30 29 30 32 30 30 29 29 29 28 28 28 29 28 28
40 38 35 36 36 35 35 37 37 36 36 43 44 43 42 42 44 47 42 44 40 37 34 31 28 26 26 28 28 28 27 28 31 28 27 28 31 31 33 31 32 36 33 32 32 31 31 30 30 28 28 28 28 29
40 39 36 36 36 34 33 33 34 35 47 47 46 47 47 47 47 43 42 36 32 29 26 25 25 26 28 29 29 27 26 25 28 29 28 26 28 28 30 29 29 31 30 29 33 32 32 29 30 29 29 31 31 31
39 37 34 33 32 31 31 29 33 42 47 45 50 50 46 45 45 44 37 33 31 28 26 25 25 25 25 25 26 27 26 25 26 26 26 26 26 26 28 29 29 29 30 31 29 30 34 31 31 30 31 31 31 32
36 33 33 33 31 30 29 34 41 44 47 47 49 50 46 45 46 45 40 35 32 31 30 28 28 27 27 27 28 28 26 26 28 29 28 26 25 27 28 29 29 30 32 33 33 31 30 30 31 31 30 31 32 33
35 35 33 33 33 38 46 43 47 51 51 50 49 46 45 44 43 45 45 41 35 33 35 33 31 30 30 29 29 30 33 27 28 29 31 26 27 30 29 29 29 30 31 31 31 30 30 30 30 31 31 31 32 33
38 34 33 31 32 36 43 47 46 48 49 48 47 44 42 41 44 46 48 46 43 38 35 34 33 35 36 35 34 32 33 31 33 33 34 35 34 32 28 27 28 29 29 29 29 29 30 30 30 31 32 32 32 32

GFSWCAN_sfc_dewp_078.txt.gz
Dewpoint
54 54 54 55 55 55 56 56 52 50 51 52 51 53 54 55 55 52 49 52 49 44 36 32 32 34 32 33 32 35 30 30 28 29 33 43 39 39 36 36 36 32 35 36 30 32 35 33 31 29 40 39 35 36
54 54 54 54 54 54 55 56 53 50 50 52 51 52 53 54 55 54 49 51 50 45 42 38 34 35 37 39 37 33 34 34 33 32 34 37 39 32 35 37 33 37 35 44 36 42 44 39 39 42 40 39 37 37
53 53 53 53 53 55 55 56 53 49 50 51 51 51 52 53 54 53 50 48 45 41 39 35 32 36 35 35 36 37 39 37 36 37 34 31 36 32 34 34 33 34 33 38 39 37 39 41 38 38 37 39 37 35
53 53 52 53 54 54 55 55 53 49 50 51 51 51 51 52 53 53 51 48 46 44 36 38 40 37 37 35 37 39 39 40 40 35 32 35 35 36 35 36 41 37 35 34 35 36 35 34 37 36 34 34 35 33
53 53 52 52 53 54 54 55 52 49 50 50 50 50 51 51 52 51 50 49 48 48 45 39 37 38 39 38 38 40 40 40 38 37 36 36 38 38 37 37 41 35 38 43 42 39 41 40 38 38 37 35 36 35
53 53 53 53 53 54 54 54 50 49 50 51 51 51 50 51 51 49 47 47 48 48 44 36 42 41 37 41 41 42 41 41 41 39 39 41 40 39 37 41 39 39 41 44 42 45 44 40 42 38 39 39 37 37
53 53 53 53 53 54 54 51 49 49 50 51 51 51 50 51 49 48 49 51 51 51 45 39 35 41 42 41 40 41 42 42 41 40 40 39 48 40 42 42 37 38 39 41 43 42 44 41 39 38 39 39 42 38
53 53 53 53 53 54 53 50 49 50 50 51 50 50 50 51 50 46 48 50 50 48 45 39 40 43 42 39 39 41 40 42 42 41 46 49 44 42 43 42 41 39 39 41 43 42 44 45 43 38 38 39 39 38
52 52 52 53 53 53 51 50 50 50 50 51 50 50 51 49 47 51 54 53 52 50 47 41 42 41 43 42 45 46 45 46 45 46 48 48 46 41 43 42 41 39 40 41 44 42 44 45 40 39 38 38 38 39
52 52 52 53 53 51 50 50 49 50 50 50 49 47 49 51 54 54 51 49 47 47 46 44 41 47 43 44 49 46 48 46 45 45 46 46 47 45 45 44 44 41 42 43 42 41 44 44 44 42 39 41 41 39
52 52 53 52 51 49 49 49 50 51 49 48 45 45 52 53 50 47 46 44 45 44 43 41 42 42 46 44 49 46 46 45 43 44 41 45 43 40 43 43 44 42 42 43 45 44 46 47 48 43 37 42 41 41
51 51 51 50 49 49 49 49 51 48 49 50 51 51 49 47 43 45 44 44 44 43 45 40 43 42 48 46 50 44 42 42 38 39 39 39 40 44 41 40 41 43 41 41 43 45 47 46 45 44 41 41 40 43
48 47 47 46 46 47 49 50 50 51 51 52 47 43 42 44 42 41 39 42 43 44 44 45 46 52 54 52 50 45 40 39 42 37 43 41 42 44 43 40 38 42 41 46 44 44 43 45 48 45 45 45 46 47
49 48 47 46 47 48 48 50 50 51 49 45 41 39 39 40 40 39 42 44 44 44 48 49 49 52 53 49 50 41 44 43 37 35 37 40 49 48 45 41 39 39 43 41 46 43 44 45 46 48 48 48 49 48
49 49 49 50 50 51 50 50 50 49 47 41 37 36 36 35 34 38 43 46 45 47 47 52 54 51 49 47 47 43 39 37 36 34 37 50 49 49 46 43 41 39 41 43 42 42 42 43 44 45 46 45 44 45
49 48 50 50 50 50 50 49 47 47 44 40 39 36 33 29 29 30 42 40 44 50 48 50 48 47 45 45 41 38 37 36 33 39 50 51 50 48 45 43 42 40 41 39 37 40 39 41 40 41 41 42 42 43
49 49 50 50 49 49 49 50 48 45 41 39 35 34 32 31 31 30 29 28 37 46 49 49 43 42 42 39 38 41 38 37 39 48 52 50 48 46 44 41 40 39 38 38 39 40 44 42 39 39 39 41 40 42
50 48 51 50 50 51 50 48 44 41 40 38 34 32 32 32 33 33 35 42 47 52 52 47 47 43 40 37 39 41 41 41 44 50 49 48 48 47 43 41 39 38 38 40 39 39 41 42 43 44 42 41 42 42
47 47 49 50 49 45 42 44 43 38 38 38 36 34 34 35 37 37 39 52 51 52 48 45 44 42 42 42 42 39 42 42 44 44 46 47 47 44 41 39 37 36 36 38 39 34 38 45 45 40 43 47 46 46
49 49 50 50 48 43 41 40 46 42 39 38 39 37 37 38 41 46 51 55 55 55 49 45 44 44 42 41 42 43 42 39 35 39 42 41 42 43 39 35 31 36 32 39 38 38 36 44 46 42 45 45 44 46
48 48 51 51 45 44 44 41 42 40 39 38 38 38 40 50 52 51 53 58 55 52 48 48 45 44 46 46 48 52 47 44 38 36 34 37 33 32 33 31 31 30 30 33 36 38 40 44 43 41 44 45 46 47
48 50 48 51 48 48 45 44 41 43 42 41 39 39 40 50 52 54 57 54 53 53 50 50 55 54 52 51 47 46 49 45 43 32 35 32 30 29 28 28 29 30 33 37 37 39 44 47 43 38 33 31 38 32
49 48 44 45 45 46 44 45 43 43 40 42 47 47 48 50 51 56 53 52 48 50 54 53 53 54 55 52 49 48 45 40 32 30 30 29 30 31 29 28 29 31 35 36 36 37 41 42 41 43 38 36 35 34
47 46 43 42 45 43 43 43 45 43 45 46 46 43 49 52 56 52 46 45 47 49 50 52 48 47 48 50 42 40 39 34 31 31 32 29 27 31 30 27 27 30 32 35 35 36 37 38 37 35 33 35 33 34
42 41 43 41 46 44 39 40 41 44 42 43 44 47 50 54 49 46 45 44 46 46 46 47 46 45 40 39 35 35 37 30 28 30 32 29 29 29 28 27 28 29 30 33 33 33 33 34 30 31 27 25 27 33
41 41 41 38 37 38 37 37 40 41 41 42 43 50 51 45 43 41 46 44 45 45 45 44 43 40 40 34 30 29 31 30 31 28 29 28 28 28 28 28 27 28 29 29 29 29 29 29 29 30 31 30 33 29
40 37 40 41 40 40 39 36 39 39 37 39 46 46 46 40 40 44 42 44 45 46 47 43 43 41 30 29 30 30 28 30 33 29 29 29 29 31 30 30 30 30 31 29 30 29 28 29 28 27 28 28 28 29
41 39 35 36 35 34 34 34 34 36 36 42 44 44 42 41 42 43 42 43 42 42 39 35 31 27 27 28 27 29 28 29 31 28 27 28 31 31 33 32 33 35 34 33 32 32 31 30 28 28 29 29 30 30
41 41 37 36 36 34 34 33 33 35 46 43 45 47 48 49 44 41 41 38 35 32 29 26 26 26 27 28 28 26 25 26 28 28 27 26 28 28 30 28 26 30 29 28 32 29 30 28 30 30 30 31 31 32
39 38 35 34 33 32 33 32 31 35 44 43 50 52 50 46 43 41 37 34 32 28 26 25 25 25 25 25 26 26 24 24 26 27 27 26 27 27 29 30 30 30 30 30 28 29 33 31 32 31 33 32 32 32
37 36 35 34 32 32 30 29 30 39 44 46 50 50 44 49 43 41 37 35 33 31 28 26 25 25 25 25 26 27 25 25 26 29 28 26 25 27 28 29 29 30 31 32 32 31 30 30 30 31 31 32 33 33
37 36 32 31 30 33 34 37 41 52 48 54 47 50 45 48 45 43 42 37 35 33 35 32 29 29 29 28 29 29 34 27 28 29 31 26 27 30 30 28 28 29 31 31 31 30 30 31 30 30 31 32 34 33
35 34 33 31 31 33 36 39 44 50 50 49 47 46 47 45 48 53 49 44 45 40 35 35 34 35 37 35 35 33 33 31 34 34 35 34 36 33 29 28 28 30 30 30 28 29 31 30 30 31 31 32 32 33

GFSWCAN_sfc_dewp_081.txt.gz
Dewpoint
54 54 54 54 55 55 54 55 57 55 51 51 52 52 53 54 55 53 51 56 53 49 45 37 35 41 38 41 39 37 36 36 34 33 39 42 40 41 36 36 35 35 35 35 32 31 30 38 34 35 40 37 38 38
54 54 53 54 54 53 53 55 56 55 51 52 52 52 53 53 54 54 53 56 56 51 47 45 40 43 43 41 42 37 37 40 39 37 40 43 41 36 37 35 36 33 38 38 36 38 41 41 42 42 41 39 39 38
53 53 53 53 53 53 54 55 56 55 51 51 52 52 52 53 53 53 51 55 53 49 45 41 34 38 37 37 37 42 43 41 43 42 40 38 37 39 35 37 36 37 35 39 37 41 42 41 40 40 41 39 39 38
53 53 53 53 53 53 53 55 56 54 51 51 52 51 52 52 53 52 51 52 52 51 45 40 39 41 38 36 40 42 43 42 43 43 36 38 38 39 38 38 39 40 39 36 37 37 38 40 42 40 37 40 38 38
53 53 53 53 52 53 53 54 55 52 51 51 51 51 52 52 52 51 51 52 54 51 47 45 42 38 39 41 41 43 43 43 45 42 40 38 40 41 40 39 39 39 40 40 40 43 44 42 43 41 39 36 38 36
53 53 53 53 53 53 54 54 54 50 51 51 52 51 51 52 52 50 52 54 51 54 49 44 45 42 40 42 43 44 46 46 44 43 41 42 45 41 38 41 41 40 44 44 43 44 45 45 45 45 41 40 40 40
53 53 53 53 53 53 54 54 51 49 51 51 52 52 51 51 49 50 51 52 51 56 50 45 43 44 43 44 44 45 45 46 44 44 42 42 45 43 41 39 41 41 41 43 42 43 43 44 44 44 45 42 44 40
52 53 53 53 53 53 54 52 49 49 51 51 52 52 51 51 51 48 52 51 51 52 51 45 44 45 44 43 43 47 45 47 47 43 46 47 46 44 41 43 43 44 43 42 43 44 44 44 45 46 43 44 40 40
52 52 52 53 53 53 52 51 50 50 51 51 52 51 51 49 51 54 55 55 56 54 49 47 45 43 45 45 47 47 46 45 50 45 47 48 45 39 43 44 44 45 43 42 43 43 44 45 45 45 44 43 41 40
52 52 52 53 53 52 51 49 50 50 50 51 49 48 49 53 56 56 53 52 51 51 50 47 49 47 47 46 46 49 49 47 45 46 50 46 44 47 47 48 47 48 42 42 42 43 44 44 45 47 46 45 42 42
53 53 53 52 51 50 49 49 49 50 50 49 48 50 55 54 53 51 46 46 48 45 47 45 44 44 50 47 49 51 47 48 42 45 44 43 42 44 47 48 49 44 44 43 44 45 45 46 47 47 46 45 43 43
51 51 50 50 49 49 49 49 50 48 51 49 49 52 54 51 48 44 45 47 45 43 48 45 46 48 52 52 49 49 45 46 40 45 42 38 43 46 47 44 43 43 44 44 46 47 47 48 47 47 46 47 47 46
49 47 48 48 48 49 49 49 50 50 50 53 51 47 45 47 39 39 38 41 44 47 47 47 50 52 54 53 50 47 43 42 46 42 39 41 46 46 47 47 45 43 45 46 46 47 47 49 50 49 50 49 49 49
50 50 51 49 48 48 49 49 50 50 49 48 45 36 41 39 40 41 42 46 50 52 51 52 51 51 53 49 50 42 44 44 38 37 39 45 47 47 47 48 48 44 45 45 46 47 46 45 45 45 48 47 47 47
49 49 50 50 50 51 51 49 50 49 49 46 42 36 38 39 39 40 43 51 48 52 50 51 50 51 48 46 45 42 39 37 38 38 43 48 49 49 48 47 43 43 43 42 42 43 44 43 43 43 44 43 43 44
49 49 49 49 49 50 51 48 47 47 47 43 42 38 38 36 34 38 40 47 51 53 54 52 49 47 46 45 39 38 36 35 37 45 49 50 49 48 47 45 44 43 42 42 42 41 41 42 42 42 43 43 43 43
48 49 49 50 50 49 49 49 49 46 42 40 38 38 36 36 36 37 41 39 51 48 51 51 43 43 43 40 39 40 38 42 45 50 51 50 49 48 46 45 43 42 44 42 42 42 43 43 44 43 44 43 43 43
48 48 50 50 49 50 52 48 46 43 40 40 38 38 39 40 43 40 41 47 52 51 53 47 51 43 42 39 40 41 43 46 48 51 51 51 50 48 45 43 42 42 40 41 42 43 44 44 42 42 41 43 43 44
47 47 49 49 48 46 45 47 47 39 38 41 42 42 42 43 49 52 54 54 55 56 52 48 46 44 43 43 44 45 46 45 46 51 51 50 50 46 44 45 43 43 44 43 42 42 45 44 42 42 42 45 45 46
49 49 50 49 48 44 42 42 50 45 40 43 43 42 45 45 51 54 54 54 52 52 50 48 47 47 46 46 47 48 47 49 45 47 48 45 45 46 42 40 39 40 41 40 40 41 42 43 42 41 43 44 45 45
49 49 50 50 47 43 44 45 47 45 44 43 43 43 42 52 53 52 53 53 50 49 49 52 51 50 52 52 53 52 51 49 44 42 45 42 43 43 42 43 38 38 38 38 39 40 41 42 41 41 43 44 45 46
49 50 49 51 48 49 46 47 43 46 45 43 43 44 43 51 53 52 55 52 52 53 55 55 54 56 55 53 53 50 51 49 43 37 37 36 39 38 36 35 35 37 38 39 40 41 43 45 45 44 43 39 40 41
49 49 46 46 46 44 44 48 44 45 42 43 49 47 50 52 54 54 51 53 55 58 58 57 56 56 54 54 52 52 50 47 42 39 40 35 38 40 36 36 37 38 38 39 40 42 44 42 42 42 41 42 41 38
49 46 45 44 44 42 43 46 46 44 44 43 47 47 48 52 54 51 49 50 51 56 54 54 51 50 52 52 47 47 45 46 39 42 41 36 34 39 37 34 34 36 39 40 39 40 41 40 41 39 40 40 39 37
43 40 42 38 45 43 40 40 41 43 43 44 46 47 49 54 49 48 46 48 49 51 50 51 49 48 45 45 43 43 45 40 34 36 41 37 36 36 36 34 37 37 38 38 38 38 37 36 37 36 33 31 32 36
39 42 40 38 39 38 37 39 42 42 43 42 43 51 54 46 43 44 46 48 49 47 48 47 46 46 45 41 36 35 39 42 42 34 38 35 34 33 33 33 31 37 36 36 36 34 33 34 34 35 34 32 32 34
40 39 41 44 41 41 40 43 41 40 39 39 49 48 47 42 41 43 48 49 47 49 49 49 45 43 40 36 37 38 38 40 43 37 39 37 36 37 37 36 35 38 38 35 36 34 33 33 32 32 33 33 34 33
42 42 38 40 40 38 36 35 34 34 37 47 48 45 41 43 45 47 46 49 48 48 47 46 45 43 32 33 32 34 35 34 36 35 36 37 38 36 37 36 38 37 37 36 36 36 35 35 34 33 33 33 35 35
40 41 41 40 39 36 38 36 35 37 48 45 47 48 45 49 48 44 48 46 45 44 39 32 32 32 32 33 34 32 31 29 31 33 33 31 32 34 33 30 34 36 34 33 31 32 34 33 34 35 36 37 38 38
39 40 39 39 37 33 35 34 36 40 44 47 50 54 52 50 49 43 41 42 39 37 33 30 29 29 29 28 28 29 28 28 29 30 31 31 31 31 32 32 34 34 31 31 29 29 33 34 34 36 36 37 37 38
40 39 38 36 34 35 33 34 33 38 48 50 52 51 51 52 50 42 41 43 38 36 31 28 27 28 28 28 29 30 28 30 34 37 35 32 31 33 36 37 37 38 37 34 32 31 30 32 34 36 37 36 36 35
38 38 36 36 34 38 38 34 36 51 48 52 50 51 52 49 44 47 49 43 38 36 37 33 30 29 30 29 31 31 35 29 34 35 38 34 36 37 37 35 34 34 37 36 36 34 34 35 35 35 36 37 38 38
38 36 38 36 36 37 37 42 45 51 52 51 51 51 53 49 49 54 58 56 53 45 42 39 36 36 42 42 41 36 37 35 35 35 34 33 37 37 34 34 34 36 35 35 33 33 34 35 34 36 36 36 36 37

GFSWCAN_sfc_dewp_084.txt.gz
Dewpoint
54 54 54 54 54 55 53 53 54 56 55 52 52 53 53 54 54 52 47 51 47 45 45 40 34 36 38 39 34 33 32 36 33 31 36 34 32 35 31 35 32 32 29 28 29 26 26 39 37 31 36 38 41 41
54 54 54 53 53 54 52 53 54 56 55 52 52 52 53 54 54 53 50 52 53 45 44 44 42 37 38 38 37 34 36 37 35 36 38 38 34 35 34 29 34 29 34 34 34 34 40 41 39 41 38 38 39 43
54 54 54 54 52 51 53 52 55 56 54 52 52 52 52 53 53 52 48 50 50 47 45 41 39 33 36 34 38 37 40 38 37 38 37 37 33 36 33 33 34 36 35 34 34 39 37 38 39 39 38 38 38 38
53 54 54 54 53 53 53 52 55 56 53 51 52 52 52 53 53 52 48 50 51 48 45 40 37 34 35 34 38 41 39 39 40 36 30 34 34 37 36 35 35 36 36 32 33 35 36 40 39 37 36 38 38 35
53 53 54 54 53 52 51 52 54 56 51 51 52 52 52 52 52 50 48 49 51 48 45 45 45 38 36 36 38 40 38 40 40 37 36 34 39 38 38 36 35 37 35 36 36 40 38 38 41 41 36 37 37 35
53 53 53 53 53 52 52 52 55 54 50 51 52 52 52 52 51 49 49 52 49 52 45 42 44 38 37 37 37 39 41 41 40 39 38 41 43 37 35 33 38 39 41 42 39 42 43 42 45 45 39 36 38 36
53 53 53 53 53 53 54 54 54 50 51 51 51 52 52 51 48 48 49 51 50 51 47 44 43 41 39 40 41 40 42 42 41 40 39 40 41 40 37 33 38 39 41 42 42 41 40 42 41 45 45 41 43 38
52 53 53 53 53 53 54 54 51 49 51 51 51 51 51 51 50 45 48 50 49 49 49 44 42 40 40 39 39 44 42 43 42 40 43 43 43 41 36 40 41 41 41 42 41 41 40 42 43 43 44 45 41 40
52 52 52 53 53 53 54 52 50 50 50 50 51 51 50 48 48 51 54 53 52 50 47 46 41 41 43 41 43 44 43 40 46 41 42 43 39 36 40 41 42 43 42 40 41 43 41 43 43 44 44 43 39 39
52 52 52 52 53 53 51 50 50 50 50 50 49 48 47 52 56 55 51 49 49 49 48 45 47 44 43 44 44 45 46 43 40 43 46 40 40 43 43 44 43 43 42 40 39 40 41 42 43 45 45 47 45 46
52 52 52 52 51 50 49 49 49 50 50 48 47 48 55 55 50 49 43 44 45 42 46 45 43 41 49 43 45 48 45 45 35 40 41 35 39 43 45 46 46 46 43 40 41 43 44 43 44 45 46 48 48 48
49 49 50 50 49 48 49 49 49 47 49 47 48 50 52 50 47 41 40 44 43 41 45 44 44 43 49 50 47 47 44 46 40 46 42 36 41 44 44 45 46 41 41 41 43 44 45 46 46 46 46 46 49 49
50 50 48 47 48 48 48 48 49 49 49 50 49 47 47 43 37 38 36 39 42 45 48 49 48 49 50 49 44 44 42 42 45 41 37 39 43 45 43 42 43 42 42 44 45 45 45 46 48 48 48 48 48 47
50 50 49 50 48 48 48 48 48 49 47 47 45 36 39 38 40 41 40 44 47 49 49 50 48 48 48 45 44 40 44 43 39 36 36 41 42 43 44 44 46 43 44 43 44 44 44 44 46 48 49 48 49 49
49 49 49 50 50 50 51 50 49 47 47 46 44 32 39 39 41 44 47 47 50 51 49 46 45 48 46 45 44 43 40 37 36 35 39 43 43 46 44 45 40 39 40 39 40 40 41 40 40 40 41 41 41 42
49 49 48 50 49 50 50 49 47 46 47 46 42 39 39 37 37 36 39 48 52 52 51 47 43 45 44 44 40 39 36 34 35 41 44 45 48 46 41 40 39 39 39 38 38 38 40 41 41 41 42 42 42 42
48 48 49 50 50 49 49 48 48 45 45 42 40 39 38 37 36 36 38 43 52 50 46 46 41 40 43 39 38 40 37 38 43 46 47 45 44 42 40 37 39 39 38 38 39 40 41 41 41 40 39 40 41 41
46 48 50 49 49 50 50 48 47 48 44 43 39 39 39 40 39 40 51 52 51 51 49 43 46 40 38 36 36 39 41 43 47 46 48 45 43 41 38 36 37 38 37 37 40 42 41 40 39 39 39 40 41 42
47 47 48 48 48 45 46 49 49 43 41 41 42 42 43 43 52 52 50 50 50 52 48 46 42 42 41 42 41 41 43 45 45 46 46 45 43 41 38 37 39 39 38 39 42 42 41 40 39 39 40 41 40 42
48 49 49 49 48 45 43 44 49 44 42 42 42 41 42 43 51 51 50 48 48 49 46 45 46 45 45 44 44 44 45 46 47 46 44 45 44 40 39 37 38 38 37 39 41 41 39 39 39 39 39 41 40 40
48 49 50 49 47 45 43 45 46 45 44 43 43 43 43 49 48 48 50 49 47 46 46 49 51 50 47 46 47 47 43 46 46 46 44 42 42 41 38 37 38 38 38 39 40 40 40 38 38 39 39 40 42 45
48 51 50 49 49 48 46 47 45 45 43 43 42 42 41 49 48 47 51 48 48 48 49 49 50 50 48 48 46 42 41 34 32 38 42 43 40 37 37 37 37 37 38 38 39 39 39 41 40 40 41 39 38 38
48 49 47 49 48 44 41 48 44 44 43 42 46 46 46 46 50 52 48 50 51 54 52 51 50 50 49 48 47 44 39 37 34 33 33 34 32 34 36 37 37 37 37 37 39 41 42 41 41 40 40 39 38 36
50 47 46 45 44 40 44 44 47 44 45 41 44 46 47 48 51 48 46 49 52 53 51 50 50 49 49 47 45 43 39 36 33 36 33 31 31 34 36 37 37 37 36 38 39 39 40 40 41 39 38 37 36 36
42 41 41 36 43 44 42 41 41 42 42 43 45 47 48 49 47 47 46 48 51 51 50 50 48 48 46 46 44 39 40 34 32 31 34 32 32 33 32 35 35 36 38 37 37 38 38 37 38 37 35 34 33 33
38 41 38 40 41 39 39 40 43 43 43 44 45 49 50 46 42 43 44 48 48 49 49 49 47 47 45 45 39 37 33 36 35 33 33 32 31 32 29 33 35 35 37 37 36 34 34 33 34 32 31 29 34 33
39 41 44 45 42 41 41 43 43 41 40 41 46 46 45 42 42 44 48 48 47 48 48 49 48 46 45 39 36 35 36 35 33 30 32 33 35 35 32 31 32 33 35 35 32 30 30 30 33 32 31 32 31 32
42 43 41 41 42 42 40 39 38 38 40 48 48 45 42 42 43 46 48 48 48 48 48 48 46 41 34 34 35 35 33 33 32 31 31 35 35 35 35 36 35 37 35 34 34 33 33 33 32 31 30 30 33 34
42 43 43 41 41 42 41 39 38 39 43 47 47 46 45 48 48 47 47 47 48 47 45 35 35 33 32 34 34 31 31 30 28 27 27 29 33 33 33 32 33 32 30 28 32 32 30 32 32 33 34 34 35 35
39 41 40 40 40 40 40 39 37 37 45 49 51 50 49 49 53 50 45 46 45 43 32 30 30 29 30 29 29 29 29 28 30 29 29 29 30 32 30 30 32 33 30 27 24 26 32 31 31 31 32 34 36 35
41 41 39 39 39 39 39 38 38 48 50 50 50 48 48 51 52 48 46 42 37 34 30 29 29 28 28 28 27 27 27 29 29 30 31 32 32 29 31 32 33 33 30 29 28 27 27 29 32 32 32 34 32 33
40 39 38 38 39 40 42 39 37 47 50 49 50 51 51 51 49 52 54 51 42 34 35 31 28 28 28 28 28 28 31 28 32 32 31 32 33 34 33 35 34 34 33 33 32 30 30 29 31 33 34 35 34 34
41 41 40 39 38 38 39 39 47 48 49 48 49 51 52 50 49 52 56 55 50 50 50 46 44 39 31 31 30 30 35 34 34 36 36 36 36 36 33 31 32 34 34 33 33 34 33 33 32 33 35 35 35 36

GFSWCAN_sfc_dewp_087.txt.gz
Dewpoint
54 54 54 54 54 53 54 54 53 54 56 54 51 53 53 53 54 51 46 50 45 43 42 44 39 36 38 36 31 32 31 35 32 33 35 31 31 33 29 33 31 30 27 26 28 25 24 37 36 28 32 39 41 43
54 54 54 54 54 53 52 53 52 54 56 54 52 53 53 53 54 52 47 48 52 43 40 45 41 39 38 38 36 35 34 36 34 35 37 36 32 34 30 28 33 29 34 33 33 32 36 40 40 40 38 39 40 41
53 54 54 54 54 54 52 52 52 54 56 53 52 52 52 53 53 51 46 49 48 46 43 43 39 39 36 36 39 38 39 36 36 37 38 37 31 35 32 32 32 35 36 33 34 38 37 39 39 38 38 39 42 43
53 53 54 54 54 54 53 52 52 54 56 51 51 52 52 53 52 51 44 47 50 48 43 41 44 36 35 37 40 40 38 40 39 34 30 35 34 36 34 34 34 36 32 32 32 34 36 39 39 38 39 40 39 41
53 53 53 54 54 53 53 52 52 54 55 50 51 52 52 52 52 49 46 47 50 46 44 44 44 42 37 40 39 38 39 40 38 36 35 34 38 37 37 36 34 37 34 35 35 34 35 34 39 41 39 38 39 37
53 53 53 53 53 53 52 52 53 55 51 50 51 52 52 52 51 50 48 51 48 51 43 41 44 40 37 39 40 40 40 41 40 37 37 40 41 36 34 31 36 38 39 39 37 40 41 41 43 43 39 37 39 36
53 53 53 53 53 53 53 53 53 53 50 51 51 51 51 51 47 47 48 50 49 50 45 44 43 41 39 39 41 40 43 41 40 39 39 39 40 39 36 31 35 38 39 42 43 42 40 43 41 44 45 44 42 38
52 52 52 53 53 53 53 54 54 50 50 51 50 50 50 51 50 44 47 50 49 48 48 43 41 39 41 38 38 43 41 41 41 39 42 42 41 39 34 38 40 40 41 42 41 40 38 41 43 43 43 44 43 39
52 52 52 53 53 53 53 53 51 50 50 50 50 51 49 47 47 50 54 52 53 49 46 45 40 38 43 41 42 43 43 39 43 39 41 42 37 36 39 39 41 42 41 40 41 41 42 41 41 43 43 43 43 42
53 53 53 52 53 53 52 50 49 50 50 50 49 48 48 51 55 54 50 48 47 48 47 43 47 44 41 43 43 44 46 43 38 41 44 39 39 42 43 42 42 43 44 41 38 38 39 40 43 43 43 45 44 45
50 51 52 52 51 50 49 49 49 50 50 48 48 50 53 54 50 48 43 43 44 42 44 45 45 42 47 42 45 48 44 42 38 39 40 35 38 42 44 45 45 44 44 42 39 39 42 43 43 44 44 46 46 47
49 48 48 49 49 49 49 48 48 47 49 47 47 49 50 49 46 42 40 41 42 40 44 43 44 42 48 48 45 44 41 41 38 44 43 36 39 43 43 45 46 46 44 41 42 43 44 44 44 45 46 45 47 47
50 49 49 49 47 48 48 48 48 49 49 49 49 46 47 43 37 37 34 37 40 45 46 47 46 46 47 46 43 43 40 39 43 41 38 38 40 44 43 42 42 43 43 44 44 45 45 45 46 48 48 48 46 47
49 49 49 49 50 48 48 48 48 48 47 46 44 34 38 37 39 39 40 41 44 48 48 47 48 47 46 44 42 38 41 41 40 37 36 39 42 42 42 44 44 43 43 44 44 43 43 43 44 46 49 48 48 47
49 49 49 49 50 49 50 50 48 46 46 45 44 34 39 40 42 44 44 45 48 49 47 44 44 45 44 41 41 40 40 38 38 36 37 41 41 42 44 43 40 39 39 40 40 40 39 39 40 42 42 42 42 42
50 49 48 50 49 50 50 48 45 45 45 45 44 40 39 38 36 36 39 43 49 49 47 44 41 41 41 40 38 37 38 34 35 38 42 42 42 43 42 39 39 38 37 37 37 39 41 41 40 39 39 40 40 41
48 47 49 49 50 49 48 48 46 44 43 43 42 41 39 38 38 37 37 46 50 47 43 44 40 39 41 37 36 40 37 36 38 42 44 43 44 41 39 38 39 38 37 38 39 40 40 40 39 39 37 39 40 41
45 49 50 49 49 50 50 47 48 48 44 44 41 39 39 39 39 39 49 50 49 47 48 45 44 39 37 35 36 39 40 41 43 44 44 43 42 40 37 37 39 37 37 39 41 40 39 38 37 37 37 39 39 40
47 46 48 48 47 43 45 48 47 42 43 42 42 42 42 42 46 48 49 50 48 49 47 44 41 39 40 41 39 40 41 44 44 44 45 42 41 39 37 37 37 37 39 40 40 39 39 38 37 38 39 39 38 39
49 49 49 49 48 44 43 44 50 44 41 42 41 40 41 41 48 49 48 46 46 46 43 43 43 44 44 44 43 42 43 45 46 43 43 43 43 39 37 39 38 38 40 40 39 39 38 37 38 37 38 39 38 39
48 49 50 48 46 44 43 43 46 46 44 43 43 42 42 48 46 46 46 47 44 43 43 47 47 48 47 46 45 45 46 46 46 45 43 42 41 38 37 37 37 38 39 39 38 37 37 35 35 38 38 39 39 42
47 51 48 48 47 48 43 45 44 44 43 42 42 42 41 45 45 45 48 45 45 46 47 47 48 48 47 46 43 44 46 46 45 45 43 41 39 37 37 37 37 37 39 39 38 37 38 39 39 39 39 39 38 36
49 48 47 49 47 45 41 47 44 43 41 42 45 44 45 44 47 49 45 47 48 50 51 49 48 47 47 44 39 34 37 39 40 43 42 42 39 37 37 37 37 37 38 38 39 39 39 40 40 40 40 38 37 35
48 46 47 45 45 40 43 42 46 45 45 41 41 44 45 46 48 44 44 46 50 51 49 48 48 46 44 42 39 38 38 33 34 35 37 36 35 36 37 37 37 37 37 36 38 40 41 41 40 39 37 36 35 35
42 41 41 35 43 44 42 41 40 40 41 43 45 46 47 47 43 46 44 46 48 48 48 48 47 44 43 43 43 40 39 34 32 31 32 32 34 34 35 36 37 36 37 37 37 38 38 38 38 39 38 35 35 34
39 43 38 41 40 40 41 40 42 44 45 44 45 49 48 44 42 42 43 46 48 48 48 48 47 46 45 44 41 37 38 34 32 31 32 32 34 33 34 35 35 35 37 37 37 37 37 36 35 35 31 30 34 32
39 41 43 44 42 41 41 43 45 42 40 42 46 47 45 41 42 43 47 48 48 49 50 49 48 47 45 45 42 37 35 35 32 31 32 32 32 32 34 34 34 34 37 37 37 35 34 34 34 33 31 32 31 32
43 42 40 41 42 42 39 40 38 37 40 46 46 43 44 42 41 45 47 48 48 48 48 49 48 47 46 43 41 35 34 34 32 34 34 34 34 35 33 34 35 36 36 37 34 32 31 32 34 32 31 30 31 33
43 43 42 41 41 41 41 40 39 39 43 45 46 46 46 47 48 47 47 47 48 47 46 44 41 35 35 34 33 32 32 31 31 31 30 31 31 32 33 34 35 34 34 34 35 34 33 33 33 32 32 33 34 34
40 42 40 39 39 39 41 41 39 39 45 47 48 48 47 48 50 52 48 47 46 45 43 39 32 32 32 30 29 29 29 28 28 29 31 31 31 32 33 32 32 31 30 29 27 27 34 31 31 32 33 34 35 34
40 40 38 37 37 39 40 41 40 47 48 48 48 46 46 48 50 52 52 52 43 33 31 30 29 30 30 29 28 28 27 28 29 29 30 31 32 33 32 32 32 32 30 29 26 26 28 30 30 30 31 32 34 35
40 38 37 36 38 41 41 40 39 46 47 47 47 49 50 51 49 52 53 49 37 31 34 31 28 28 29 30 30 30 32 28 29 30 30 32 32 32 30 30 32 32 30 28 28 27 27 28 30 32 32 32 34 33
39 39 39 39 38 37 40 41 45 46 47 47 48 49 49 48 48 52 55 54 52 50 49 49 48 46 38 30 29 29 32 29 31 34 34 35 35 33 30 32 33 33 32 30 30 30 29 29 29 30 31 32 34 35

GFSWCAN_sfc_dewp_090.txt.gz
Dewpoint
53 54 54 54 55 54 53 52 53 53 54 56 53 52 53 53 54 50 46 49 45 42 40 43 37 35 38 34 30 30 31 32 30 34 33 30 30 32 29 32 31 26 26 25 27 26 22 37 36 29 33 41 43 46
53 54 54 54 54 54 54 52 52 52 54 56 53 52 53 53 53 52 46 48 51 43 39 45 43 41 39 37 35 36 32 34 33 36 36 34 31 33 28 25 33 30 33 32 30 31 34 38 38 40 39 40 43 44
53 53 54 54 54 54 54 53 52 53 54 56 51 52 52 53 53 51 45 48 47 46 37 41 39 40 37 37 37 36 38 36 36 37 39 35 30 35 31 31 31 34 35 34 34 37 39 39 40 40 41 42 44 44
53 53 53 54 54 54 54 53 52 52 54 55 50 51 52 53 52 51 42 45 49 47 39 38 46 43 36 39 40 39 38 39 38 34 31 35 32 35 33 34 33 35 34 32 32 33 37 38 40 40 41 43 44 44
53 53 53 53 54 54 53 53 52 53 55 52 51 51 52 52 52 48 45 46 48 46 42 44 44 43 37 39 38 39 39 39 38 36 34 34 37 37 36 35 34 36 34 34 34 35 37 36 40 41 40 41 43 43
53 53 53 53 53 54 53 52 52 53 55 50 51 51 52 52 50 49 46 50 48 50 40 39 44 41 38 39 39 39 40 40 39 37 36 39 39 36 34 31 35 37 37 38 36 38 38 42 44 44 40 40 41 41
53 53 53 53 53 53 53 53 53 54 51 50 50 51 51 50 46 47 46 48 49 49 42 40 42 42 39 40 41 41 43 41 39 39 38 39 39 38 35 30 35 37 39 41 41 43 41 43 41 44 44 45 45 41
53 52 52 53 53 53 53 53 54 53 50 51 50 50 50 50 49 44 47 50 49 48 47 43 41 38 41 37 37 43 41 41 40 39 41 40 40 38 34 37 39 40 40 41 42 42 39 40 42 44 44 44 44 42
53 53 52 52 53 53 53 54 52 51 51 50 50 51 48 46 47 50 53 53 52 45 42 44 39 37 42 41 42 43 42 39 42 39 39 41 36 36 38 39 40 42 41 41 42 42 42 42 42 42 44 44 43 42
51 52 53 53 53 53 52 50 50 50 50 50 48 47 46 50 55 54 50 47 46 47 47 43 45 43 40 42 42 44 46 42 37 40 42 38 37 41 42 42 42 43 43 42 39 38 39 39 42 43 43 44 44 44
49 49 50 51 50 49 49 48 48 49 50 48 47 49 52 53 49 48 44 43 43 42 44 44 45 43 47 41 42 47 44 43 36 38 40 35 38 41 43 44 45 44 44 41 40 40 39 41 42 43 44 45 46 46
50 49 48 48 49 49 48 48 48 48 50 47 47 49 50 48 45 42 41 41 42 40 43 43 44 42 47 46 46 46 43 42 37 43 43 35 40 42 43 44 46 45 44 44 42 42 44 44 44 44 45 46 47 48
50 49 49 49 49 47 47 47 47 49 49 50 50 47 47 43 37 38 34 38 39 43 45 47 45 46 45 45 45 44 41 40 42 41 39 37 40 43 43 43 43 43 44 44 45 45 46 45 47 47 47 48 47 47
50 49 49 49 49 49 48 49 48 47 47 46 43 34 39 37 39 39 38 40 43 47 47 46 45 44 44 43 43 39 41 41 40 38 35 40 41 42 42 44 44 44 44 44 44 44 44 44 44 44 43 43 45 46
50 49 50 49 49 49 49 50 48 45 45 43 44 37 39 40 41 43 43 43 47 48 46 45 44 44 42 42 40 39 40 38 38 37 39 41 41 42 43 41 41 41 41 40 41 40 40 42 42 41 41 41 41 41
50 49 48 49 49 50 50 47 44 44 44 43 42 40 41 39 37 37 38 41 47 47 45 44 41 41 41 39 37 36 36 34 35 38 41 41 41 42 42 39 39 39 37 37 38 41 41 40 39 39 39 40 41 41
49 46 49 49 49 49 48 48 45 41 39 42 41 42 39 39 38 37 36 40 48 45 42 42 39 38 40 37 35 38 36 37 38 40 42 42 42 43 39 39 38 37 38 39 40 40 40 39 39 38 39 40 40 40
45 49 50 49 48 50 49 47 48 47 43 43 41 39 40 40 38 39 44 48 47 46 46 43 43 39 37 35 36 39 40 40 41 43 43 43 42 40 39 39 39 38 38 39 41 40 39 38 38 39 39 40 40 40
47 47 48 48 47 43 44 48 46 42 43 44 43 43 41 41 43 43 47 48 48 47 46 43 39 38 38 40 40 39 40 43 43 43 44 43 40 39 38 39 39 37 39 40 40 40 39 39 39 40 40 40 40 41
50 50 49 49 48 44 42 44 49 44 41 41 41 39 38 38 44 47 46 46 46 46 43 42 42 42 43 44 43 42 42 44 44 43 42 41 40 38 37 37 37 38 40 40 39 39 38 39 39 39 39 40 40 41
47 49 50 48 45 44 43 41 43 46 44 43 43 42 41 47 46 45 45 45 44 43 42 44 45 47 47 46 44 44 45 46 44 43 43 42 42 39 38 38 38 40 40 39 37 37 38 36 36 37 39 40 40 41
46 51 47 47 46 47 42 43 42 44 42 41 42 41 39 43 44 45 46 44 43 44 45 46 47 48 47 45 44 45 46 46 44 43 42 41 38 37 37 37 38 39 39 39 36 36 37 38 39 40 40 40 40 37
49 48 47 48 46 44 43 46 44 44 41 41 43 42 44 44 45 48 44 45 46 48 48 48 48 48 47 44 41 42 46 46 45 43 41 40 38 38 37 38 38 38 38 39 38 37 37 39 40 41 40 39 38 36
50 48 46 45 45 40 43 41 45 44 44 41 40 41 43 45 49 47 45 46 47 49 49 48 46 43 40 39 38 39 40 44 43 43 42 39 37 37 38 37 37 38 39 38 38 39 39 40 41 41 39 37 37 36
42 39 40 35 43 44 41 41 41 42 40 41 44 44 46 49 45 45 44 44 48 48 47 47 45 42 39 39 40 39 35 38 39 39 39 40 37 36 37 37 37 37 37 37 37 39 39 40 39 39 39 38 36 36
36 43 37 39 39 39 40 41 43 43 44 43 46 49 49 45 43 42 43 45 47 48 47 46 44 43 41 40 40 38 35 35 35 36 35 36 38 37 36 36 36 36 37 37 37 38 39 38 38 37 37 35 33 34
39 41 42 43 41 42 41 42 44 45 43 43 46 47 45 42 41 43 46 47 48 49 50 48 46 44 42 44 42 38 38 34 34 34 34 34 35 36 36 36 35 36 38 37 38 38 38 38 37 35 35 34 34 34
41 42 40 40 42 43 40 40 39 38 41 47 47 42 40 41 41 44 46 48 49 50 50 49 48 47 46 45 43 36 35 34 34 34 34 34 35 34 35 36 37 37 38 38 38 38 37 37 37 36 35 33 34 34
42 43 42 40 41 41 41 41 40 40 42 46 44 44 44 47 48 48 47 48 48 49 48 48 47 45 41 41 40 36 34 33 33 32 32 31 32 33 35 35 35 37 37 38 37 37 37 34 35 35 35 34 35 36
40 43 41 39 38 38 40 42 42 41 43 45 47 47 47 47 50 50 48 48 48 47 47 47 43 41 40 38 34 33 33 33 32 32 31 32 32 33 34 35 35 35 35 36 34 33 36 34 35 35 35 35 35 36
40 41 39 38 36 37 38 40 41 44 48 47 47 46 46 48 50 52 52 52 46 39 40 38 34 35 34 32 33 32 30 31 31 34 34 33 33 34 35 35 34 34 33 32 31 30 30 31 32 34 34 35 36 35
40 39 38 37 38 41 42 40 40 44 46 46 46 48 48 48 48 51 53 50 39 36 35 33 31 31 32 31 32 32 33 30 31 32 34 34 34 36 35 34 33 33 33 32 30 29 30 31 31 32 32 33 35 35
40 39 39 38 38 38 41 44 45 46 46 46 48 49 49 47 47 50 54 54 51 49 48 47 48 49 50 49 37 32 33 32 37 33 34 34 35 35 33 32 33 34 32 30 29 29 29 30 30 33 34 34 35 35

GFSWCAN_sfc_dewp_093.txt.gz
Dewpoint
52 53 54 54 54 54 55 55 53 52 53 54 56 53 53 53 54 52 50 52 49 43 43 44 37 38 37 35 33 35 34 34 34 38 38 41 42 40 38 37 36 30 34 35 32 30 30 38 36 32 38 42 43 48
52 53 54 54 54 54 54 55 54 52 53 54 56 52 53 53 53 52 50 50 52 47 42 46 44 43 41 39 37 37 37 38 36 39 41 38 39 37 32 35 37 38 37 43 35 36 39 42 42 42 41 42 44 46
53 54 54 54 54 54 54 54 54 52 53 54 56 51 52 53 53 52 46 50 50 47 40 42 40 42 39 38 38 38 40 39 40 41 39 37 35 37 34 34 35 37 38 41 40 41 42 42 41 40 42 42 44 45
53 53 53 54 54 54 54 54 54 52 53 54 55 51 52 52 52 51 45 48 51 48 39 39 47 41 41 40 41 40 41 40 39 38 37 38 37 38 36 38 39 37 39 39 38 38 41 42 43 42 41 43 45 46
53 53 53 53 54 54 54 54 53 52 53 54 52 51 51 52 51 50 48 48 50 48 39 43 44 42 38 42 42 42 41 42 41 38 37 35 38 39 39 38 38 38 39 41 41 41 43 41 44 44 42 42 45 45
53 53 53 53 53 54 54 54 52 52 53 54 51 51 51 51 50 51 46 51 51 52 44 39 45 42 41 42 43 43 43 43 41 40 39 40 42 40 38 42 41 40 41 42 40 42 43 44 44 44 42 42 43 45
53 53 53 53 53 54 54 53 53 53 54 51 51 51 50 50 48 47 46 50 50 52 44 38 43 43 41 42 42 43 45 43 42 41 41 42 43 41 40 44 38 40 42 43 43 44 43 44 43 45 45 45 44 42
52 53 53 53 53 54 54 54 54 54 53 50 51 50 50 50 50 46 49 50 50 49 49 44 43 39 41 40 41 45 43 43 43 42 43 45 43 42 44 42 42 43 42 43 44 44 43 45 45 46 46 45 44 44
51 52 53 53 53 53 53 54 54 53 51 51 50 51 50 47 48 51 52 52 53 48 42 46 44 39 43 43 44 44 44 44 46 42 46 47 46 42 43 44 44 45 43 42 45 45 42 43 44 43 43 44 43 44
49 50 52 52 53 53 52 52 50 50 50 50 49 47 48 52 55 55 52 49 48 47 48 45 46 46 42 44 43 46 48 45 45 44 47 46 46 46 47 46 46 45 45 44 43 44 44 42 42 44 44 46 45 45
50 49 49 49 50 49 49 49 49 49 49 48 47 51 54 53 50 48 45 44 44 42 45 44 46 44 48 45 46 50 47 47 44 45 45 45 41 45 45 47 48 48 47 45 44 44 44 44 44 44 45 46 47 47
49 50 49 49 48 49 49 48 48 50 50 48 48 50 52 49 46 44 43 43 43 39 44 44 44 46 50 51 50 49 45 46 40 45 45 40 44 46 46 46 48 48 46 45 43 43 45 45 46 47 47 47 48 49
50 50 49 49 49 49 48 48 48 50 50 52 51 49 48 45 40 40 37 39 41 43 46 47 47 50 50 51 48 47 43 43 45 43 42 42 45 45 47 46 47 48 47 46 45 46 47 48 48 49 49 49 49 49
50 50 49 50 50 49 48 50 48 48 48 49 46 39 42 40 40 41 38 42 44 50 50 51 50 50 50 48 47 42 45 45 41 39 40 42 47 47 47 47 46 46 47 47 47 47 47 46 46 45 45 44 44 44
50 50 49 49 49 49 49 49 48 47 47 44 46 39 40 41 42 43 44 46 50 52 51 50 49 49 47 45 44 43 41 39 39 38 41 46 48 48 48 47 46 46 45 44 43 43 44 44 43 43 43 42 42 42
49 50 49 50 49 50 50 48 45 45 45 42 44 43 43 40 39 39 42 43 52 52 50 49 47 45 44 45 42 40 39 37 37 41 47 48 49 49 47 46 45 44 43 41 42 42 43 42 42 41 41 41 41 43
49 46 49 49 49 49 48 48 45 40 38 40 39 43 42 41 39 39 39 40 49 47 47 47 41 41 43 42 40 42 40 40 41 43 47 50 49 48 46 44 43 42 42 42 43 43 43 42 41 41 41 42 41 43
46 50 50 49 48 50 49 47 48 46 41 39 37 38 43 43 42 41 46 50 51 50 48 46 46 43 42 40 41 41 43 43 43 46 49 48 49 49 44 44 43 43 43 43 44 43 43 41 40 39 42 43 41 41
48 47 49 48 48 45 44 48 47 41 43 45 46 45 44 43 44 45 46 52 53 53 48 46 44 42 42 43 43 43 43 43 43 48 49 49 49 46 45 44 43 42 43 44 43 41 39 41 39 40 41 43 43 44
51 50 50 50 48 43 41 43 49 46 42 42 43 41 41 42 45 50 52 52 52 51 49 47 45 44 44 46 46 46 44 45 45 45 46 45 43 44 44 41 38 41 41 43 42 40 40 40 40 40 41 42 43 43
48 49 50 48 45 43 42 41 43 46 46 44 45 44 44 47 50 50 50 52 51 50 49 50 50 48 49 50 48 47 47 46 45 44 44 43 41 39 40 40 40 39 40 40 39 38 38 36 36 38 41 44 41 42
47 50 47 48 44 46 44 45 42 44 43 43 43 44 42 47 49 50 50 50 50 50 51 51 49 51 52 51 49 48 48 50 49 45 43 42 40 39 39 38 39 40 40 40 37 36 37 37 38 40 41 39 40 38
49 49 47 47 46 44 42 47 45 45 42 41 45 45 46 48 50 51 50 50 51 53 53 53 53 54 53 51 49 48 50 49 46 45 44 41 41 41 39 39 39 40 39 39 37 35 35 38 39 40 40 39 38 37
50 48 46 45 45 41 45 44 45 45 44 43 43 42 46 48 51 50 47 49 52 54 53 52 50 48 46 47 46 46 48 47 46 45 44 41 39 39 39 38 38 38 37 37 37 36 36 38 40 40 40 39 37 36
42 41 42 36 44 44 42 40 41 44 42 44 43 43 47 51 47 46 46 46 48 50 51 52 50 48 46 45 43 44 47 46 45 45 43 41 37 38 38 38 38 38 38 37 37 37 38 40 40 40 39 38 35 35
36 41 39 40 40 41 40 40 41 42 42 42 44 48 49 47 44 44 46 47 49 50 50 49 49 47 44 44 42 41 40 43 46 45 44 41 38 36 36 37 36 37 38 38 36 37 37 38 38 38 36 36 34 33
38 41 43 44 42 42 41 41 43 44 42 43 45 46 48 43 42 47 50 49 49 51 51 50 48 45 44 42 42 40 36 40 42 41 44 43 41 40 39 38 38 38 39 38 38 36 37 36 37 36 36 34 33 33
41 43 40 42 43 43 40 40 40 43 43 48 48 45 42 41 43 46 48 50 51 52 51 50 48 46 44 43 40 39 36 35 36 35 37 39 39 39 41 39 40 38 39 38 38 38 38 37 37 37 36 34 33 34
43 44 43 41 41 41 42 41 40 42 45 48 43 45 44 48 50 50 52 49 50 51 50 49 49 48 46 45 42 40 37 33 33 34 33 31 32 33 35 36 37 37 37 38 38 38 40 38 38 37 35 34 34 34
42 43 41 40 39 38 39 42 43 43 44 45 48 51 50 49 53 54 51 49 49 50 50 49 48 47 46 45 43 38 36 35 34 34 34 33 32 33 35 35 36 35 37 38 37 37 37 36 35 34 34 34 34 33
41 41 40 39 36 37 38 39 39 40 45 50 51 49 49 52 52 51 50 50 50 47 46 44 43 43 44 46 47 47 46 45 42 37 36 35 34 36 37 37 37 36 37 36 36 36 35 34 34 34 34 34 34 33
41 40 39 38 39 41 42 40 40 44 48 49 50 51 50 50 49 51 51 47 42 44 43 43 39 36 35 40 35 34 34 33 36 35 38 36 37 39 38 36 35 34 36 35 35 34 34 33 32 33 33 34 34 34
40 40 39 37 37 39 42 45 46 48 50 50 50 50 50 50 48 53 56 54 51 49 50 50 50 48 47 45 41 39 38 36 36 35 35 36 36 37 35 35 34 34 34 33 32 31 32 32 31 32 32 33 33 34

GFSWCAN_sfc_dewp_096.txt.gz
Dewpoint
51 52 53 54 54 54 54 55 55 55 52 53 54 56 53 53 53 51 51 56 51 43 42 40 35 37 36 33 30 37 33 33 31 32 33 40 39 40 37 36 34 30 31 32 31 29 29 37 35 34 42 42 42 47
52 53 53 54 54 54 54 54 55 55 52 52 54 56 52 53 53 52 50 53 53 48 43 46 42 42 40 39 36 37 37 34 34 32 36 38 36 36 34 36 39 38 34 41 31 35 43 43 43 43 41 43 43 46
52 53 54 54 54 54 54 54 55 54 52 52 54 56 52 52 52 51 47 52 50 44 40 39 38 41 40 38 36 35 38 39 40 44 36 35 33 34 29 29 31 39 40 39 36 37 39 41 42 41 42 41 41 44
53 53 53 54 54 54 54 54 54 54 53 52 53 55 51 52 51 51 46 50 51 43 36 36 44 41 41 38 39 40 42 42 42 41 34 34 33 37 34 37 35 34 39 37 37 39 42 43 43 41 41 41 40 44
52 53 53 53 53 53 54 54 54 54 52 53 54 52 51 51 52 49 47 49 51 48 34 36 43 42 37 42 40 39 40 40 37 35 33 32 37 37 38 37 34 37 35 36 34 36 39 36 41 44 42 41 41 42
52 53 53 53 53 53 54 54 54 52 52 53 54 50 50 51 50 49 42 48 51 52 43 32 43 41 41 42 41 42 41 42 39 35 36 38 43 39 35 39 40 38 39 41 38 41 40 43 43 44 42 43 43 43
52 53 53 53 53 53 54 54 53 53 53 54 51 50 50 50 46 44 44 50 50 54 44 36 39 41 42 43 41 41 44 43 41 40 38 40 41 40 37 43 36 38 41 44 43 44 43 43 42 44 44 44 44 43
50 52 53 53 53 53 53 53 53 54 54 52 50 50 50 50 49 41 48 49 51 47 45 42 42 39 41 38 39 44 41 41 43 42 43 41 43 41 44 43 43 43 43 43 44 44 43 45 45 46 45 43 41 41
50 50 52 53 53 53 53 53 54 54 53 52 50 50 49 47 43 46 52 52 52 49 40 42 41 38 42 41 43 42 43 39 45 40 43 44 44 48 44 45 44 45 44 43 44 43 42 44 44 44 42 41 39 40
50 49 50 51 51 51 51 50 50 50 50 50 48 44 41 48 55 54 52 48 48 46 45 41 46 42 40 40 39 41 43 41 42 43 46 45 47 48 48 48 49 46 45 44 44 44 43 43 42 42 40 42 42 43
49 50 49 49 49 50 50 49 49 49 49 46 44 50 53 52 50 48 43 41 40 39 43 40 43 43 44 40 39 45 43 43 42 44 44 47 45 46 47 48 50 49 47 46 44 43 45 45 42 42 42 43 43 44
50 50 50 49 48 48 49 48 49 49 51 48 50 52 53 52 46 43 39 40 39 35 41 40 41 45 46 50 47 48 44 45 37 44 43 44 44 48 47 46 47 49 48 46 44 44 44 43 42 43 43 43 45 46
50 50 50 49 49 49 48 48 48 51 51 53 53 49 48 44 40 35 35 36 36 40 44 44 43 47 49 48 46 47 41 40 44 43 44 43 48 48 49 48 48 49 47 46 45 45 46 47 47 46 48 49 48 48
50 50 50 49 50 50 49 49 48 49 51 49 45 39 43 39 38 37 34 34 41 44 45 42 45 43 47 49 47 38 42 43 40 40 40 40 49 49 50 48 48 47 47 47 47 48 49 50 48 48 46 44 44 45
50 50 50 49 49 49 49 50 49 50 48 46 47 39 40 38 40 41 40 44 48 49 51 46 45 44 43 44 46 44 42 39 38 38 39 44 51 50 49 48 48 48 48 48 48 47 46 45 45 44 43 42 42 43
49 50 49 50 50 50 50 49 46 45 42 40 43 41 41 38 36 39 41 43 50 51 53 49 47 43 41 45 43 40 38 37 37 39 43 49 52 51 50 48 47 47 46 45 44 43 42 40 41 42 42 41 41 43
49 48 49 50 49 48 48 47 44 41 36 36 34 35 39 41 39 36 39 40 48 50 49 46 41 40 44 43 40 41 39 39 41 42 45 50 53 52 50 48 47 46 44 43 42 42 42 42 41 41 41 42 41 43
47 51 50 49 49 50 49 48 46 43 37 35 33 32 38 38 39 39 42 47 46 45 46 44 45 42 41 39 41 39 41 43 45 45 46 52 53 52 48 48 46 45 44 43 43 43 44 42 41 38 41 42 40 41
49 50 48 49 48 47 46 48 47 42 41 42 42 40 40 38 40 41 42 47 49 51 47 44 44 39 39 42 40 40 42 44 44 46 48 52 52 51 48 47 46 43 43 44 44 40 39 41 37 36 36 37 36 38
50 50 50 50 47 43 41 42 49 45 41 41 41 40 41 40 42 42 43 46 48 47 45 44 41 40 39 40 44 42 45 47 46 46 47 47 48 49 47 43 37 41 41 44 43 41 37 37 37 36 37 39 36 37
49 50 50 50 45 44 41 41 44 45 46 45 44 43 43 43 43 44 45 50 48 45 43 44 43 42 47 48 49 49 50 48 46 45 45 44 44 42 42 37 38 37 37 38 37 37 36 34 34 35 37 37 37 36
48 50 47 47 43 44 44 44 42 44 43 43 44 44 43 46 50 50 50 47 44 43 44 43 45 44 45 54 52 53 51 53 51 46 44 43 41 39 39 36 35 35 36 37 35 34 34 34 34 35 35 34 36 34
49 50 48 45 44 44 43 47 43 42 40 40 42 42 42 44 48 49 47 46 44 46 47 47 50 54 52 52 54 53 53 52 48 45 44 42 40 40 39 36 34 35 35 35 33 32 33 36 37 35 35 34 34 33
50 48 46 44 43 41 46 45 46 43 43 41 40 39 44 49 51 49 46 44 45 50 48 53 52 50 51 53 50 49 50 48 45 44 44 40 39 40 39 35 34 34 33 33 31 32 33 34 36 34 34 34 33 31
42 42 43 39 45 44 41 38 39 39 38 42 41 42 47 50 47 45 46 50 46 47 49 51 50 48 47 47 47 48 51 45 43 44 44 42 40 38 35 34 35 33 33 32 31 32 33 34 34 34 35 34 33 31
38 42 41 40 40 40 39 38 40 41 41 40 43 48 50 46 42 42 48 48 46 47 49 50 49 48 48 47 46 45 47 45 45 43 45 43 40 36 35 34 34 35 34 32 32 32 32 34 33 35 33 33 34 30
38 40 43 43 42 41 41 41 41 43 42 41 43 44 46 44 41 46 49 49 48 49 52 50 49 48 47 46 45 44 44 46 47 44 46 44 41 40 37 35 34 34 36 34 33 33 33 33 32 32 32 32 31 31
39 41 40 42 41 40 39 39 41 43 44 48 48 44 43 41 44 50 49 50 50 51 51 50 49 48 46 44 42 40 42 39 39 40 41 43 42 39 38 36 35 37 36 35 34 34 34 33 32 32 32 32 32 32
40 41 41 40 40 40 40 38 45 44 48 50 42 42 45 49 50 50 51 54 53 50 48 47 47 47 46 44 41 38 35 33 31 34 34 34 38 40 42 42 40 38 37 37 37 36 36 34 34 32 33 32 32 32
40 41 40 38 37 37 38 39 42 43 43 42 43 43 46 49 51 51 48 49 50 50 50 48 47 46 44 43 41 41 37 31 29 30 30 30 30 31 37 37 36 36 35 35 35 36 38 38 36 35 33 31 32 32
41 40 39 38 36 37 36 36 38 39 38 42 49 48 48 51 50 50 49 48 46 48 49 48 47 46 45 45 44 45 41 44 42 41 37 35 34 34 35 36 35 36 36 36 35 34 35 35 34 33 32 32 32 31
39 38 37 38 38 41 41 39 37 39 45 49 49 48 48 48 49 50 51 48 45 44 43 44 41 40 44 47 48 43 41 47 50 46 41 38 36 37 38 37 36 34 35 34 34 34 35 34 32 32 31 32 33 34
40 38 38 37 37 39 40 43 44 48 49 48 48 46 47 48 48 52 52 49 47 46 47 50 52 45 46 48 50 49 37 37 39 38 36 36 36 37 35 35 34 34 35 33 32 31 33 34 31 32 32 33 33 34

GFSWCAN_sfc_dewp_099.txt.gz
Dewpoint
52 52 52 52 54 54 54 55 54 54 55 54 53 54 56 53 53 51 48 55 51 41 37 34 32 33 30 31 30 35 30 30 28 31 30 35 34 37 33 34 34 32 34 31 31 36 31 35 32 32 44 42 43 45
52 52 53 53 54 54 54 54 55 55 55 53 52 54 56 52 53 52 46 53 52 48 43 42 36 37 36 37 33 34 35 34 33 30 33 36 34 33 32 31 36 35 33 37 33 40 44 41 44 43 42 44 43 44
52 52 53 54 54 54 54 54 54 55 55 53 52 54 56 52 52 51 47 49 47 44 38 37 34 38 35 33 29 33 32 37 35 40 34 32 33 31 32 32 34 34 40 37 37 38 36 37 39 39 41 41 40 43
52 53 53 53 54 54 54 54 54 55 55 53 53 54 54 51 52 51 46 46 48 45 35 32 39 39 37 32 33 34 40 39 40 34 32 31 31 36 31 35 32 31 39 36 37 39 39 39 39 40 40 39 37 41
52 52 53 53 54 54 53 54 54 55 54 53 53 55 51 51 52 49 46 46 49 48 37 32 37 36 36 37 36 36 36 36 33 32 30 30 34 37 31 33 32 33 35 32 34 37 42 39 42 41 40 39 39 40
52 52 53 53 54 53 53 54 54 54 53 53 54 53 50 50 51 46 42 44 48 48 45 35 40 40 36 38 37 38 38 38 35 34 33 36 39 34 32 36 38 38 36 38 37 39 41 40 41 42 40 40 41 40
51 51 52 53 54 53 53 54 54 52 53 53 54 50 50 50 46 43 45 50 50 51 41 32 36 41 40 40 38 38 39 39 38 38 37 36 39 37 34 39 39 36 38 40 42 44 41 41 41 42 41 42 45 41
50 50 52 53 53 53 53 54 54 53 54 54 50 49 50 50 49 40 44 48 50 46 39 33 37 40 41 37 36 39 38 40 41 39 42 38 43 41 40 41 43 42 41 42 44 43 41 44 43 44 44 43 41 40
50 50 50 51 53 53 53 53 54 54 54 53 51 50 48 46 40 42 53 52 51 48 38 34 35 34 39 37 36 40 40 37 43 39 38 44 41 48 44 45 45 46 44 44 44 43 42 43 44 45 43 41 40 40
50 50 49 50 50 50 50 50 50 51 52 50 47 44 40 41 55 55 51 50 44 39 43 40 35 41 37 36 38 39 40 37 40 40 45 44 45 48 49 48 49 46 45 44 44 43 42 43 43 44 42 42 40 40
50 49 50 49 49 49 50 49 49 49 49 45 43 46 55 54 48 44 38 37 39 37 36 33 37 39 41 38 37 40 41 40 39 41 41 47 48 46 49 49 51 49 47 45 44 44 44 44 43 43 41 41 41 42
50 50 50 50 49 48 49 49 50 49 49 48 51 53 53 48 46 39 37 36 35 32 37 34 37 43 43 45 44 44 42 41 37 42 39 45 44 50 49 47 49 50 48 46 45 45 44 46 44 43 43 42 43 44
51 50 50 50 49 49 49 48 49 51 51 53 53 50 49 44 40 35 34 34 32 34 39 36 33 42 47 44 44 44 41 37 41 41 44 44 50 50 50 48 48 48 47 46 45 45 44 44 44 44 44 46 44 44
51 50 50 50 50 50 49 49 49 50 52 50 46 39 42 40 38 36 35 35 35 37 41 41 40 40 40 44 41 37 37 39 38 39 39 45 52 51 50 49 48 46 46 45 45 45 46 49 49 49 47 47 45 45
51 50 50 50 50 50 51 50 50 51 50 46 47 40 41 41 40 38 38 39 40 40 39 39 43 44 40 40 38 39 39 36 35 35 38 49 53 52 50 48 47 46 46 46 46 48 49 48 47 46 44 43 42 43
50 49 49 50 49 50 50 50 48 49 47 44 45 43 40 39 36 37 37 38 44 50 51 47 45 40 37 36 37 35 35 35 35 37 44 52 54 53 52 49 48 46 48 47 47 47 47 46 44 43 41 41 41 43
49 49 50 50 50 50 50 48 45 41 39 38 34 34 37 40 40 40 39 44 49 55 50 49 42 39 38 39 39 36 35 37 38 39 43 53 55 54 52 49 48 47 47 46 46 46 44 43 41 40 40 42 40 43
48 51 50 49 50 50 50 47 43 39 37 35 32 31 33 36 42 37 40 43 45 49 49 44 44 44 39 38 38 39 39 40 41 43 46 54 55 54 50 50 49 48 48 47 45 43 43 41 41 38 42 42 40 41
50 51 49 48 48 49 48 47 47 42 41 38 36 34 35 35 39 42 40 44 46 48 49 47 45 38 37 39 39 39 39 41 45 46 49 55 55 53 51 50 49 48 46 44 43 39 39 43 37 36 35 36 34 35
50 50 50 50 49 45 42 43 49 45 42 40 41 40 39 38 37 38 40 41 44 46 50 44 40 38 39 41 39 39 41 44 44 44 50 51 50 51 50 46 43 43 40 42 41 41 37 37 36 35 36 36 34 35
51 51 51 51 48 44 42 41 44 45 45 44 43 42 40 41 40 39 38 40 41 42 40 41 41 40 45 52 46 45 46 47 45 47 47 47 48 46 45 43 40 37 36 37 37 37 37 34 34 34 35 34 35 33
50 51 49 48 44 44 43 43 42 45 44 42 44 44 45 46 48 45 44 46 43 40 40 40 41 41 42 49 47 52 49 53 54 48 45 46 46 43 42 38 35 34 34 36 35 35 34 33 33 34 34 33 33 31
49 49 48 44 42 44 43 48 44 42 39 40 40 40 41 44 52 49 51 46 44 44 42 42 49 50 49 49 51 53 54 54 48 48 46 45 44 42 40 37 35 34 33 35 35 34 33 36 35 33 33 33 31 33
50 49 45 44 43 42 45 45 45 44 41 40 40 41 45 50 50 48 43 40 41 43 43 53 46 45 48 54 48 49 51 51 47 47 46 44 41 40 39 37 35 33 34 34 33 32 33 34 35 31 34 33 32 31
43 42 44 40 43 41 39 38 39 40 39 41 41 42 48 50 48 45 45 46 48 49 51 52 49 48 46 46 45 45 52 49 45 46 44 41 39 38 38 37 34 33 32 32 31 31 32 33 33 32 32 32 33 32
38 42 42 40 40 39 37 37 38 39 40 39 44 49 49 46 39 40 45 49 45 42 43 44 47 47 48 52 51 45 48 48 48 44 44 41 39 39 39 35 32 32 32 31 30 30 32 32 32 34 32 33 34 30
38 40 41 41 41 40 40 41 42 44 41 42 44 44 45 42 43 48 51 46 44 44 47 48 46 44 50 50 53 53 48 47 48 45 46 45 42 41 36 34 33 33 33 31 31 31 31 32 32 32 32 32 32 30
39 39 39 44 41 38 37 39 43 42 43 46 46 44 44 44 47 54 58 50 49 49 48 47 47 45 47 48 45 44 44 44 45 46 45 44 43 39 39 36 36 36 35 33 32 32 32 32 32 32 32 32 33 32
38 37 37 39 41 40 38 38 45 47 50 49 47 46 46 50 50 48 49 49 51 48 47 46 44 45 44 44 43 43 43 42 41 41 42 40 39 36 35 35 35 34 34 33 35 35 36 33 33 32 32 32 32 32
37 37 37 37 36 35 36 38 44 47 48 48 42 43 45 50 49 49 47 48 48 48 48 48 48 46 45 42 41 40 39 38 37 35 34 32 35 37 39 38 37 35 34 34 34 34 38 36 35 34 33 32 31 31
39 38 37 37 36 36 36 36 36 39 41 40 47 50 50 53 50 50 49 48 46 46 46 46 47 47 45 43 42 41 37 33 41 39 37 30 29 32 35 37 35 35 34 34 33 34 34 34 33 33 33 33 32 30
37 37 36 36 37 37 38 36 36 37 41 50 49 47 47 51 51 55 48 45 44 44 44 45 45 45 46 43 45 46 43 46 49 46 44 42 38 37 36 34 33 32 34 34 33 32 32 34 34 34 32 34 33 33
40 37 37 36 36 37 37 39 40 47 49 49 46 43 43 45 46 52 47 46 46 46 46 47 47 46 48 47 49 46 44 45 46 43 43 41 40 37 34 34 33 32 32 31 29 29 30 32 33 35 33 33 32 32

GFSWCAN_sfc_dewp_102.txt.gz
Dewpoint
52 52 52 52 53 53 54 55 55 55 55 55 55 53 54 56 54 51 46 53 49 48 43 35 28 31 30 30 31 34 29 30 26 30 29 34 33 41 39 37 36 36 34 34 37 39 37 42 40 33 49 43 44 46
52 52 52 52 54 54 54 54 55 55 55 55 55 53 54 56 53 52 44 51 52 48 46 45 35 32 32 35 34 36 36 40 33 30 32 32 32 31 34 30 34 34 37 39 38 46 49 46 48 47 44 45 44 45
51 51 52 53 53 54 54 54 54 55 55 55 55 53 54 56 52 51 47 49 48 42 36 36 36 36 35 29 29 29 33 33 38 37 37 31 35 31 30 30 33 35 38 37 38 45 41 39 39 40 41 41 40 42
52 52 53 53 53 54 54 54 54 55 55 55 54 53 54 55 52 51 46 46 46 45 38 30 28 34 33 30 31 29 35 39 37 37 29 30 29 35 29 36 32 34 39 33 35 40 39 38 38 40 40 38 36 40
52 52 52 52 53 54 54 54 54 54 55 54 53 53 55 53 53 50 47 46 46 46 43 40 34 35 33 33 32 32 34 37 32 31 30 31 32 36 34 31 31 30 33 32 32 42 48 41 42 40 40 38 38 39
52 52 51 52 53 54 54 54 54 54 54 53 53 53 54 51 52 46 42 44 44 46 46 39 38 37 35 33 36 35 36 37 35 31 32 34 40 38 30 35 39 35 36 37 37 39 41 39 42 42 40 39 41 40
52 52 51 52 53 54 53 54 54 54 53 53 53 54 52 51 46 44 44 49 48 52 44 39 38 39 37 35 36 36 37 36 35 34 34 35 39 36 31 38 39 39 38 40 39 42 41 40 42 41 40 41 45 40
52 51 51 51 52 53 54 54 54 53 53 53 54 52 51 50 48 40 43 49 49 47 39 30 37 44 39 34 35 37 37 37 39 38 38 38 44 41 40 41 41 41 40 40 42 42 42 43 43 44 43 43 43 41
52 50 50 50 51 52 53 53 53 54 54 54 52 51 48 45 40 39 55 53 52 49 40 32 30 37 39 36 35 37 38 37 38 37 37 38 38 48 44 46 44 46 44 44 43 43 41 42 43 45 43 42 40 40
52 49 50 49 50 50 50 50 50 52 53 52 48 42 40 39 55 54 50 49 44 41 45 42 34 48 45 35 34 39 38 37 40 42 40 42 44 51 49 49 50 47 46 44 44 44 43 43 45 47 47 47 42 40
52 50 49 49 49 49 49 49 49 49 50 46 43 44 55 55 46 43 38 42 40 32 32 36 39 44 52 37 39 41 40 38 38 43 41 43 44 48 50 49 53 50 48 45 45 45 48 50 48 48 46 43 41 41
52 51 50 49 49 49 49 49 50 50 48 49 49 57 51 42 44 39 38 35 37 33 34 31 31 46 51 48 41 44 44 40 37 39 40 46 43 51 51 48 49 50 47 45 45 48 47 49 46 45 47 46 44 44
52 51 50 50 50 49 49 48 49 50 51 52 52 50 48 43 41 39 36 36 33 33 33 34 31 44 47 43 46 44 44 37 37 40 42 44 52 52 51 49 48 49 48 46 46 46 48 48 49 47 47 48 46 45
52 51 51 50 50 49 50 49 50 51 51 50 47 39 43 40 40 37 36 37 36 35 38 35 34 44 43 40 39 35 35 35 38 37 37 39 55 53 52 50 48 47 47 46 46 48 48 48 49 49 48 47 46 45
52 52 51 50 51 51 50 50 50 52 50 48 47 40 41 42 43 42 40 39 42 38 39 37 34 35 48 40 39 38 34 35 34 34 38 53 57 56 52 49 48 46 46 47 49 49 50 50 50 48 46 45 44 43
51 50 49 50 50 50 51 50 49 50 49 46 46 44 44 43 42 42 41 39 43 45 44 43 44 42 45 47 35 33 32 33 34 42 50 55 58 55 55 51 48 50 48 48 49 51 50 50 50 49 44 42 42 41
50 49 50 50 49 50 50 48 47 45 45 44 41 43 42 44 42 41 42 43 50 51 47 50 43 42 47 41 34 34 32 35 40 48 52 57 59 58 55 51 50 49 49 49 49 52 51 48 45 44 42 42 41 43
49 50 50 50 49 49 48 48 44 40 39 40 39 39 40 37 42 43 43 51 54 48 51 43 43 42 39 35 36 37 37 43 51 51 52 57 60 59 53 52 53 52 51 51 50 47 46 44 43 40 43 43 41 42
50 51 50 49 49 50 47 45 44 41 38 37 38 34 34 35 45 45 44 48 53 54 51 46 44 43 39 42 40 48 44 43 44 47 54 58 58 55 55 52 50 49 49 49 47 42 41 45 40 38 39 39 36 37
50 50 50 50 48 47 43 44 49 44 43 42 40 39 39 37 36 37 37 39 49 50 49 48 44 44 47 51 49 46 44 47 47 48 50 51 53 55 53 50 46 47 46 46 42 41 39 41 38 37 36 37 35 34
50 51 51 51 48 46 43 42 43 43 43 43 42 44 44 42 39 37 37 38 39 39 40 43 45 44 53 55 51 51 50 45 44 45 47 49 52 50 50 48 48 44 41 38 38 37 38 36 36 35 36 36 33 33
51 52 50 49 47 46 43 43 42 46 42 42 43 46 44 46 43 42 42 42 39 39 40 39 44 42 46 52 53 53 52 53 52 47 47 49 49 49 47 46 43 39 36 37 37 37 37 35 34 35 35 34 35 32
51 51 50 46 42 43 41 44 45 41 39 41 41 40 40 43 44 46 50 44 43 44 46 44 51 55 52 54 57 53 53 52 47 45 49 48 49 49 46 45 41 37 34 35 36 36 37 37 36 34 34 33 33 32
50 49 45 45 42 40 43 45 44 42 42 39 40 41 44 48 47 51 46 43 43 45 45 54 48 45 48 55 45 51 54 51 47 46 48 48 47 47 46 43 37 35 34 34 35 35 35 34 37 33 33 33 31 31
44 42 44 41 44 41 38 37 39 40 40 42 41 42 48 52 48 45 41 43 51 48 51 52 52 50 45 47 48 46 54 49 44 49 48 47 47 45 43 40 37 36 33 33 34 33 33 35 34 33 31 32 33 32
38 42 40 39 39 39 38 35 37 39 39 39 42 50 51 47 41 39 48 51 52 50 50 49 51 51 51 53 50 46 50 48 46 46 47 46 44 41 40 39 38 36 33 33 33 31 32 34 33 33 31 34 35 32
39 39 41 41 42 41 39 42 46 45 41 42 43 45 43 39 41 48 50 54 51 45 45 44 43 50 48 51 53 55 52 54 53 47 48 49 44 41 40 39 40 35 34 32 32 31 31 32 32 32 32 33 33 31
39 40 39 44 42 40 37 41 42 41 42 45 46 42 42 43 47 52 53 54 50 52 46 44 44 47 47 48 48 50 53 50 52 47 47 46 43 43 47 42 41 37 36 33 31 31 31 32 32 32 32 32 33 34
38 37 37 37 41 41 40 43 45 46 49 48 47 45 47 52 55 52 49 49 49 48 55 54 50 45 48 46 48 46 45 44 45 46 45 44 44 46 44 42 36 36 36 32 36 36 36 32 33 33 33 33 34 34
37 36 35 37 38 38 38 46 49 50 47 47 48 52 53 54 48 49 48 48 47 46 50 48 48 48 46 44 43 43 43 43 42 42 42 45 48 52 49 38 36 35 35 34 32 35 37 36 35 34 34 33 33 32
38 38 36 37 37 37 36 39 43 47 49 50 51 51 52 55 52 50 46 46 45 45 45 44 45 50 48 47 45 43 40 39 39 39 38 35 41 42 39 38 37 35 34 34 33 32 32 33 33 33 33 33 32 31
36 37 37 37 37 38 39 37 35 39 49 48 46 44 45 51 52 47 45 44 43 43 45 45 45 45 45 46 48 50 42 44 45 46 44 39 38 37 36 36 36 34 34 33 33 33 34 35 34 34 33 34 34 33
38 37 38 37 37 39 38 38 41 47 49 47 44 45 45 44 44 46 46 46 45 44 45 46 46 46 47 48 49 49 47 48 46 44 43 41 39 39 37 34 34 32 32 32 32 32 33 33 31 34 36 35 34 36

GFSWCAN_sfc_dewp_105.txt.gz
Dewpoint
52 52 52 51 52 53 54 54 55 55 54 55 55 55 55 54 56 51 47 49 53 51 48 48 44 40 36 37 39 38 36 35 35 35 39 43 42 42 40 43 43 40 41 40 39 37 37 44 42 36 45 46 49 58
51 52 51 51 52 53 54 54 55 55 55 55 55 55 54 54 56 53 47 52 54 54 48 44 41 40 39 38 40 42 43 44 42 39 41 41 38 41 40 37 41 37 40 43 43 42 45 46 47 49 48 44 45 46
52 51 52 53 53 53 54 54 55 55 55 55 55 55 54 54 56 51 48 49 51 51 43 37 34 41 35 35 30 37 42 44 45 43 44 42 37 38 37 37 40 40 42 44 44 44 46 46 44 45 45 41 42 44
51 51 52 53 52 53 54 55 55 55 55 55 55 54 53 54 56 51 48 50 49 50 46 37 31 35 39 34 34 34 37 44 43 45 41 38 38 38 36 39 38 41 39 35 44 46 42 42 44 43 41 41 40 43
51 52 53 52 52 53 54 55 54 54 55 55 55 54 53 55 54 51 49 48 48 49 46 46 47 46 33 35 35 38 37 42 45 40 39 38 44 42 40 36 36 38 39 36 41 47 46 44 46 46 42 42 42 44
51 52 53 51 52 53 54 54 54 54 55 54 53 53 54 54 52 47 47 50 48 52 50 45 47 44 38 38 38 43 42 44 45 42 40 44 44 42 35 40 40 39 41 42 46 46 44 46 47 44 43 44 43 46
51 52 53 51 51 53 54 54 54 54 54 53 53 54 54 52 48 45 46 50 48 48 50 45 44 45 41 40 41 41 41 46 45 43 42 42 44 42 37 37 43 43 45 45 47 46 43 45 45 45 46 46 46 46
51 52 52 51 51 52 54 54 54 54 53 53 54 54 52 51 49 44 42 48 49 53 50 44 42 46 47 41 41 44 43 44 47 44 46 45 47 46 41 43 45 47 46 45 44 44 45 44 47 45 46 47 44 42
50 52 51 51 50 51 51 53 54 54 54 54 54 52 49 46 44 46 56 53 56 54 47 42 39 43 44 43 43 44 46 43 46 42 42 46 44 46 47 46 49 48 46 45 46 46 46 46 48 47 46 45 44 44
50 52 50 50 50 50 50 50 49 51 53 52 51 44 43 44 55 55 53 53 51 48 51 47 44 47 50 47 42 44 44 43 42 44 48 46 47 50 51 49 51 52 48 48 46 45 45 46 47 47 47 46 46 46
51 52 51 49 50 50 50 49 49 50 50 48 44 49 56 55 51 48 44 46 45 40 41 43 45 47 53 47 44 49 45 44 42 45 44 46 45 48 51 53 53 52 51 48 49 49 51 50 48 46 45 44 45 47
50 52 51 50 49 50 50 49 49 50 49 50 50 54 57 49 46 41 43 41 42 36 40 33 40 49 52 52 48 51 47 46 41 45 44 44 48 54 53 52 53 54 50 50 49 49 51 50 49 46 46 45 47 49
50 52 51 51 50 50 49 48 49 50 51 54 52 50 49 47 40 39 36 39 39 42 41 37 37 49 54 54 50 48 45 44 46 43 43 45 54 55 54 53 52 52 51 50 51 51 50 50 50 49 49 49 49 49
50 51 51 51 51 50 50 49 50 51 50 49 46 39 43 40 39 41 40 40 41 45 42 43 42 49 51 49 48 44 44 45 40 40 40 46 54 54 54 53 52 51 51 51 51 50 51 51 51 51 51 50 50 49
50 52 52 51 51 51 50 50 50 52 50 47 47 39 40 42 42 44 48 46 45 45 45 43 43 48 49 46 44 41 38 36 38 39 42 52 55 55 54 53 52 51 51 50 49 50 51 50 49 49 49 47 47 46
51 51 50 51 51 51 51 50 50 51 49 47 46 44 43 43 44 43 45 45 47 48 46 47 46 44 44 47 41 38 34 35 38 51 54 55 55 55 55 54 52 52 50 49 50 51 51 50 48 47 47 46 44 46
51 49 51 50 49 50 50 50 47 46 46 44 41 43 43 46 44 44 46 48 53 51 48 49 44 42 47 43 41 41 37 39 51 54 57 57 57 57 56 55 52 51 51 51 52 51 51 48 47 46 45 45 45 46
49 51 51 51 49 49 48 47 48 43 41 42 41 42 45 46 45 49 48 53 55 51 48 47 48 44 44 41 40 41 46 53 55 55 57 58 59 58 56 53 53 53 52 52 51 51 49 49 48 47 47 46 46 45
51 51 50 50 49 51 49 46 48 42 40 41 43 42 42 43 45 45 50 53 54 55 52 51 46 43 45 49 48 48 50 51 53 56 57 58 59 57 56 53 53 52 52 52 51 49 49 47 45 45 44 45 42 44
50 50 50 50 49 48 45 44 48 43 41 47 44 43 43 45 48 46 47 52 54 51 48 46 45 45 46 53 53 55 53 55 53 54 55 57 58 57 56 53 50 52 51 52 49 46 46 46 45 45 44 43 42 41
49 50 51 51 48 47 45 44 44 44 44 44 45 46 45 48 47 45 45 51 51 47 46 48 46 47 54 54 53 55 54 54 55 53 53 53 54 53 54 51 49 47 47 46 44 44 43 43 43 42 41 42 39 37
51 51 51 50 47 46 45 45 43 48 46 43 44 46 45 47 45 45 49 47 45 46 48 48 48 51 53 49 49 55 53 52 56 53 52 53 52 51 50 48 46 45 45 44 42 41 42 44 41 42 40 39 38 38
51 51 49 48 45 43 41 45 44 43 40 42 44 42 44 47 49 52 50 48 46 50 52 54 55 52 50 51 52 53 53 51 53 53 53 52 52 51 49 48 46 45 43 42 42 42 41 42 40 40 39 39 39 35
50 49 46 45 42 39 43 46 48 43 42 40 40 40 44 47 51 51 44 45 46 49 49 55 53 52 55 55 52 55 55 54 54 54 52 51 50 50 49 47 46 46 41 43 41 43 41 40 41 39 39 37 38 36
43 40 43 37 45 42 39 40 43 43 41 44 41 43 49 53 49 47 46 48 50 51 52 53 52 53 50 51 51 49 56 53 50 51 50 51 50 49 47 47 47 42 39 39 38 39 39 40 40 39 38 37 38 37
38 41 39 40 39 41 39 38 39 40 40 40 43 51 52 49 43 42 50 53 52 51 51 51 55 53 53 53 55 55 54 49 55 50 51 50 49 48 46 46 42 42 40 41 39 38 38 38 37 38 36 35 35 35
38 39 41 43 44 43 44 44 47 45 41 42 45 46 45 40 42 48 51 54 54 54 55 54 55 50 51 52 53 55 54 55 55 53 53 49 48 48 46 42 42 44 40 38 38 37 37 37 36 35 34 35 37 37
39 42 39 45 44 42 39 40 41 42 41 44 44 42 41 43 44 51 54 56 57 56 56 53 56 54 52 51 51 51 52 52 51 50 49 46 52 46 45 46 43 38 39 37 37 37 37 37 36 35 35 36 40 37
40 39 40 39 42 43 44 44 43 44 48 46 47 45 48 53 53 53 55 56 57 57 55 54 52 56 52 52 53 49 48 47 48 49 47 46 47 47 48 46 44 40 39 37 37 38 39 37 37 37 38 38 39 41
36 37 36 37 37 39 45 49 48 49 49 48 53 52 51 52 55 55 51 50 50 51 53 53 54 52 48 46 45 44 43 44 46 47 47 49 51 52 51 49 47 40 36 37 37 37 39 38 38 38 38 39 39 40
37 38 36 36 36 39 42 45 46 47 51 52 53 51 50 53 55 47 47 47 46 46 46 45 46 46 47 49 47 40 41 44 45 45 42 43 50 49 48 48 48 42 38 35 35 36 36 37 38 38 38 38 39 37
35 35 37 36 36 39 43 41 41 47 51 51 51 50 53 53 50 47 49 46 45 45 46 46 46 45 46 47 47 47 45 51 53 50 47 44 47 46 45 44 41 39 39 37 36 34 36 36 36 37 36 39 39 38
37 36 37 37 38 39 40 41 45 49 51 49 48 44 45 45 45 49 50 48 46 45 46 46 46 46 48 48 49 49 47 49 47 44 42 39 38 38 39 40 40 40 39 37 36 35 37 37 35 36 37 37 37 38

GFSWCAN_sfc_dewp_108.txt.gz
Dewpoint
53 52 52 52 51 52 53 53 54 54 54 54 54 55 56 55 55 52 48 48 46 49 48 46 45 43 40 37 33 31 32 32 32 33 36 38 38 40 37 39 41 41 37 39 35 32 30 43 45 41 44 50 54 54
52 51 52 51 51 53 53 53 54 55 55 54 55 55 56 55 55 53 46 48 48 50 48 47 46 42 37 37 38 37 36 38 39 37 38 41 39 40 37 34 41 37 42 43 44 39 42 45 44 48 48 54 55 53
52 52 52 52 52 53 53 54 54 55 55 55 55 55 56 54 55 54 47 48 48 50 47 44 33 30 34 34 32 30 34 39 35 39 40 38 31 39 35 34 36 39 42 41 39 40 45 46 45 48 48 42 45 53
53 52 51 52 53 52 53 54 54 55 55 55 55 55 55 54 55 55 48 48 46 47 44 43 44 39 40 38 36 30 34 40 39 38 35 32 33 34 34 35 37 37 35 38 41 42 44 43 40 39 41 43 46 47
52 52 51 52 53 52 52 54 54 54 55 55 55 55 54 54 55 53 50 48 48 46 44 43 44 45 43 38 34 31 35 37 39 32 32 30 40 36 36 32 31 37 32 36 39 42 39 40 42 41 40 42 46 45
52 51 52 52 52 52 53 53 54 54 55 55 54 54 54 55 52 46 44 48 47 46 46 44 47 45 36 34 31 32 35 37 38 36 35 40 41 34 31 34 36 35 39 41 44 44 41 44 45 43 42 45 45 44
52 51 52 52 52 51 52 54 54 54 55 54 53 53 54 53 48 44 44 49 48 45 48 44 44 44 41 36 37 37 36 38 37 37 39 40 37 35 34 33 36 39 42 43 44 42 42 42 41 43 45 46 47 46
52 51 52 52 51 51 52 53 54 54 54 54 53 54 54 51 48 42 41 46 46 48 48 41 39 44 44 37 35 41 37 38 38 39 41 42 43 41 36 36 41 41 43 43 43 42 42 43 43 45 45 43 42 44
51 50 52 52 51 50 51 51 52 53 53 53 54 54 49 46 43 43 54 51 49 48 42 41 36 41 47 41 40 40 41 35 40 37 38 42 41 39 39 41 48 43 40 41 42 41 43 43 44 45 44 43 44 45
50 51 52 52 51 50 50 50 50 50 52 53 51 46 41 44 53 54 50 49 48 45 49 46 46 42 48 44 38 39 40 38 38 41 43 38 38 44 46 45 48 46 44 44 42 41 42 46 44 43 43 44 44 45
50 51 52 51 50 50 50 50 49 50 51 49 45 45 52 55 46 45 42 44 45 39 40 44 41 42 50 46 42 46 42 39 36 38 39 41 41 44 47 46 48 48 44 44 43 43 44 46 45 44 43 45 46 46
50 51 52 52 51 50 50 50 49 50 49 49 48 50 53 50 46 39 41 40 42 37 38 37 42 46 49 50 45 48 43 45 38 44 41 38 44 45 48 50 50 47 47 47 48 49 47 45 43 43 46 46 46 47
50 50 52 52 51 51 50 49 49 50 51 52 51 49 47 44 35 38 35 37 37 40 39 38 43 46 49 49 46 45 41 41 49 41 39 40 44 50 49 50 51 51 48 48 49 49 47 46 46 46 47 48 47 46
50 50 52 52 51 51 50 49 49 51 50 48 46 39 41 38 39 40 41 40 41 42 43 35 46 44 48 44 45 40 43 44 39 37 37 42 50 50 50 50 49 48 49 49 48 48 47 48 48 48 47 46 45 44
50 50 52 52 52 51 50 50 50 51 50 47 46 39 42 43 42 45 48 48 48 48 43 41 46 46 46 45 47 44 43 40 37 37 40 44 52 50 50 49 48 48 49 49 49 48 48 47 46 46 46 44 44 44
50 51 50 51 51 51 50 50 50 50 48 47 46 44 44 43 43 45 46 48 51 49 46 46 42 45 43 44 42 38 34 33 34 43 47 52 52 51 49 49 49 49 48 48 48 48 47 45 43 43 42 42 43 44
50 49 51 50 51 51 51 49 48 46 46 45 43 44 43 43 44 44 48 49 54 51 46 47 39 39 44 41 40 41 36 35 50 52 52 52 52 50 51 50 49 48 48 49 49 48 47 45 43 41 40 42 44 43
49 50 51 50 50 49 48 48 47 44 42 43 41 41 43 44 45 48 47 52 51 48 47 47 46 40 40 39 38 40 41 49 52 53 53 54 54 53 52 49 48 48 49 49 48 48 45 43 43 41 41 42 42 42
51 50 51 50 50 49 48 46 48 43 42 42 43 43 44 44 46 47 52 52 53 52 49 46 44 42 42 44 45 48 48 49 52 52 53 55 54 53 51 51 51 50 50 49 48 47 45 45 44 43 43 42 41 42
51 50 50 50 49 48 45 45 48 45 42 44 44 43 43 42 43 44 50 51 52 48 45 45 44 45 45 48 48 49 51 53 53 51 51 54 54 53 51 51 50 50 49 49 47 47 44 43 43 43 43 42 41 42
50 50 50 50 48 48 46 45 44 45 44 43 44 44 44 44 44 47 49 51 49 47 45 47 46 45 48 51 50 53 53 53 53 52 52 53 54 53 51 50 50 50 48 47 44 43 42 41 41 43 43 42 42 41
51 51 50 50 47 46 46 46 44 46 44 44 43 43 43 43 43 44 50 48 48 45 46 46 46 46 50 48 51 53 54 54 54 53 50 52 53 52 51 49 49 48 46 45 43 42 43 42 42 40 41 41 36 35
51 51 49 48 45 43 41 45 43 43 40 40 43 40 42 43 44 47 44 45 44 46 46 48 50 49 49 49 52 52 52 50 53 54 54 54 54 52 50 48 47 46 45 44 43 41 42 42 41 39 38 37 36 35
51 49 46 45 44 38 43 43 45 44 43 41 40 40 41 43 47 45 43 44 45 46 47 46 50 49 49 49 49 49 50 51 52 55 56 55 53 51 49 47 46 46 44 43 42 41 40 41 40 38 38 37 36 34
43 39 42 36 44 42 41 42 43 42 41 42 41 41 43 46 43 43 43 46 50 50 51 52 51 50 49 50 50 50 52 52 49 50 55 53 51 51 48 48 46 45 43 41 41 41 40 40 38 39 37 37 37 34
36 40 38 41 41 42 41 39 41 41 40 40 42 45 47 44 42 42 47 48 50 52 52 51 52 52 52 52 51 51 52 56 55 52 53 52 51 49 48 46 46 45 43 40 41 40 39 38 37 37 35 36 37 35
37 39 43 44 43 44 43 44 45 43 42 43 45 45 45 42 43 47 49 50 52 53 54 55 55 53 51 51 52 52 53 54 55 53 55 56 56 55 54 49 46 44 41 39 40 39 38 37 36 35 35 35 34 34
41 40 39 43 43 45 41 41 42 42 41 44 43 42 44 44 42 48 50 54 55 56 55 56 55 54 53 53 53 52 52 53 54 53 50 52 53 54 52 47 44 39 39 38 38 38 37 37 36 35 34 34 35 37
42 43 42 39 41 43 44 43 43 44 46 45 44 46 46 50 53 53 53 55 55 56 55 54 54 54 53 50 50 49 48 47 45 45 44 46 46 47 48 43 38 37 37 37 38 38 37 37 36 35 35 36 37 38
38 39 38 38 37 44 46 50 48 49 48 50 51 49 50 51 54 54 53 52 52 53 53 50 47 48 47 46 41 43 44 46 48 47 46 45 46 49 50 49 47 46 45 44 45 42 41 38 38 37 37 37 37 38
38 38 37 37 36 45 47 48 48 51 52 52 52 49 49 51 53 47 46 46 47 47 47 46 45 46 46 46 44 42 44 48 50 48 50 51 50 49 48 47 45 46 46 47 47 40 35 35 35 35 35 35 35 35
37 36 37 37 38 41 45 45 46 50 51 51 50 50 51 51 47 46 48 46 46 46 46 46 46 46 47 48 48 48 44 48 49 46 45 44 48 49 49 48 47 43 42 38 36 35 35 35 36 36 35 35 35 35
39 37 38 37 39 40 43 46 48 49 49 48 47 48 47 46 44 47 48 48 46 46 46 46 46 46 47 47 48 48 46 48 46 41 39 37 37 42 45 44 44 44 42 38 36 35 35 34 35 35 35 35 36 36

GFSWCAN_sfc_dewp_111.txt.gz
Dewpoint
54 53 52 52 51 51 52 53 53 54 54 54 54 53 55 56 55 54 50 49 45 45 47 48 44 43 39 36 29 28 31 31 30 32 36 37 36 39 35 36 39 37 36 35 34 31 28 43 44 39 42 51 52 53
54 53 51 52 52 51 53 53 53 54 54 54 54 54 55 56 55 55 48 47 47 43 43 50 49 48 46 41 36 37 34 35 35 36 37 41 37 39 34 32 41 39 39 39 40 38 41 44 45 46 50 53 54 56
54 53 53 52 52 52 53 52 53 54 55 55 55 55 55 56 54 54 49 47 47 48 48 45 44 35 45 39 36 32 34 39 37 38 39 38 33 39 35 36 37 38 43 41 38 41 43 46 47 48 50 50 53 57
54 53 53 52 52 53 52 52 53 54 55 55 55 55 56 55 54 54 50 48 45 44 44 43 46 44 42 43 34 30 37 39 39 36 33 31 31 35 34 34 37 39 39 40 40 43 45 45 42 43 47 50 52 56
52 53 53 52 52 53 51 52 53 54 54 55 55 55 55 54 54 55 52 50 47 43 42 43 44 42 44 44 36 36 39 39 36 31 30 29 37 36 34 32 33 37 32 38 37 41 40 41 41 44 46 47 49 51
50 53 53 52 52 53 52 52 53 54 54 55 55 53 53 54 54 46 42 48 48 47 44 42 46 46 44 40 31 34 35 39 37 35 34 37 41 32 31 29 32 35 36 38 39 43 40 41 42 44 45 45 47 52
50 52 52 52 52 53 52 52 53 55 55 55 53 53 53 54 48 44 41 46 47 45 45 43 43 45 44 35 37 36 37 39 36 37 35 38 37 36 34 34 35 38 40 43 44 43 42 42 40 43 46 47 48 48
51 53 52 52 52 52 51 52 53 54 54 54 53 53 54 52 48 43 43 48 46 42 49 43 40 44 43 35 35 39 36 37 38 37 41 39 41 39 32 31 35 40 44 42 41 41 41 42 44 44 46 46 47 50
52 52 51 52 52 51 50 50 50 52 53 53 53 53 48 46 42 41 52 50 45 46 40 38 35 40 48 41 39 40 38 33 40 37 37 40 40 38 37 37 44 42 41 41 42 43 42 42 43 43 44 46 46 46
52 51 51 51 52 51 50 50 50 50 50 52 51 45 39 44 50 54 49 48 46 44 47 44 46 42 49 44 42 41 40 36 36 38 41 39 39 41 41 41 45 43 41 42 40 41 42 43 43 43 44 45 45 44
50 50 51 52 51 50 50 50 49 49 51 49 45 44 49 53 46 45 43 41 43 40 41 44 44 40 48 46 43 46 39 39 35 36 38 38 37 41 46 44 47 44 43 43 41 42 44 44 44 43 44 45 45 45
50 50 51 52 52 50 50 50 49 49 49 49 49 50 51 49 44 39 40 40 41 37 39 37 40 40 48 51 48 48 44 44 37 44 41 36 42 43 46 46 48 46 45 45 44 44 46 45 44 44 45 46 45 45
50 50 50 52 52 51 50 50 49 49 50 51 51 48 44 41 34 35 34 37 36 41 39 42 43 45 47 48 46 46 43 41 45 39 38 39 40 45 46 48 49 48 47 47 48 47 46 45 46 46 46 47 46 46
49 50 50 51 52 51 51 50 49 50 50 48 46 37 39 36 39 38 39 39 40 42 44 41 45 43 46 43 44 40 42 42 38 36 36 40 42 44 48 50 50 48 47 47 49 47 46 46 47 48 47 46 45 44
50 50 50 51 52 51 51 50 50 51 49 46 46 38 41 41 43 44 45 46 47 48 46 43 46 45 45 42 44 42 41 38 39 37 40 41 41 49 49 49 49 48 48 48 47 46 47 47 46 46 45 44 44 44
50 50 50 51 51 51 50 50 50 50 48 46 46 43 44 42 42 44 46 48 50 49 49 48 44 42 41 43 42 39 38 37 35 40 42 44 47 50 49 49 48 49 48 48 46 47 47 46 45 44 43 43 43 43
50 49 51 51 51 51 50 48 48 47 46 45 43 44 44 43 42 43 46 49 52 49 45 47 42 41 44 40 38 41 37 35 43 49 50 49 49 50 50 49 48 48 48 46 46 45 45 44 43 42 41 43 43 43
48 50 51 51 50 50 48 48 47 44 43 43 40 41 43 44 44 46 47 51 50 49 47 46 47 41 40 39 39 41 45 45 49 50 51 50 50 51 52 49 49 48 48 48 46 45 43 42 41 41 41 43 42 41
50 51 51 50 50 48 45 46 47 44 43 42 43 43 43 44 45 44 49 52 52 52 50 46 43 41 42 44 44 46 47 47 48 50 51 51 51 53 50 48 48 48 48 47 46 44 43 42 41 41 42 42 41 42
50 50 51 51 50 47 45 44 48 44 43 43 43 43 43 42 43 44 47 50 50 48 45 42 43 43 43 46 47 46 45 50 50 50 50 53 53 50 50 49 49 49 48 47 47 44 44 43 42 42 42 42 41 41
50 50 50 50 48 47 46 45 43 44 44 43 44 45 44 46 46 48 47 49 46 45 43 44 45 45 46 48 48 48 48 51 51 50 50 51 53 51 50 50 49 49 48 47 46 45 43 43 42 43 42 42 42 41
50 51 49 50 47 46 46 46 45 45 44 43 43 43 42 43 43 45 49 46 46 45 46 45 46 45 46 48 49 51 51 51 51 51 48 51 52 52 50 50 49 48 48 47 46 45 44 43 43 43 42 42 41 41
50 50 49 47 44 42 41 45 42 42 39 40 43 40 40 42 44 48 44 45 46 47 46 46 46 47 47 49 50 51 53 52 51 50 50 51 52 53 52 50 50 48 47 46 46 45 43 41 41 42 42 41 38 36
51 48 46 45 43 39 42 42 44 43 43 41 39 39 41 42 45 43 41 43 45 47 48 48 49 48 48 48 48 49 51 51 51 51 52 53 52 52 52 50 49 48 48 46 43 43 43 42 41 39 40 39 37 35
42 40 43 36 45 43 40 42 43 42 40 41 41 40 41 45 41 41 41 44 47 49 50 50 50 49 47 47 48 48 49 51 50 49 51 54 52 52 52 52 52 48 47 45 45 42 41 42 42 40 38 37 36 35
36 39 39 41 40 41 42 41 42 40 40 40 41 44 45 43 41 41 46 49 48 49 50 50 52 50 51 51 49 50 51 53 52 50 51 53 53 51 50 48 47 48 49 46 46 43 41 41 40 40 39 37 37 35
36 38 41 44 43 45 42 43 45 42 41 41 43 44 44 41 42 46 48 49 50 51 52 53 52 51 51 52 51 51 52 54 54 53 55 55 56 55 54 52 51 53 50 45 44 43 42 40 39 38 38 37 37 36
41 41 39 44 42 44 41 41 40 41 42 44 43 43 43 44 42 46 48 50 53 55 56 55 53 52 52 52 52 52 52 53 53 53 52 52 53 55 56 54 53 45 48 47 43 45 42 40 39 37 37 36 35 36
41 43 42 40 41 44 44 43 42 44 45 44 43 44 45 48 52 53 54 54 53 53 52 49 49 49 49 46 46 48 50 50 51 49 47 48 49 49 48 48 42 44 46 41 40 43 42 43 39 37 36 35 35 37
38 41 38 37 40 43 46 49 49 49 49 50 50 50 50 51 52 52 51 48 48 48 49 46 46 46 45 43 44 46 48 48 47 48 47 44 44 46 48 48 47 48 49 49 49 47 45 47 43 41 37 36 36 36
38 37 37 37 40 47 47 50 52 52 52 51 51 49 48 51 52 49 46 46 46 46 45 45 46 47 46 45 44 45 45 47 50 51 52 50 51 50 50 51 50 49 48 49 49 47 45 45 45 42 37 36 36 36
36 35 35 35 38 47 49 50 50 49 50 51 50 51 51 50 46 45 46 46 46 46 45 45 45 46 47 47 47 46 43 45 47 44 45 48 51 52 51 46 46 46 47 46 46 45 45 44 38 37 35 35 35 35
37 36 36 37 38 44 47 49 47 48 49 48 49 49 48 47 43 45 46 46 45 46 45 45 45 46 47 47 47 47 45 46 43 39 38 37 40 45 47 46 45 43 43 41 40 41 40 39 37 35 35 35 35 35

GFSWCAN_sfc_dewp_114.txt.gz
Dewpoint
55 55 54 53 51 51 50 51 53 53 54 54 54 54 54 55 56 54 50 50 48 42 43 46 46 43 41 37 29 28 30 30 29 32 34 36 35 38 34 35 37 35 35 34 34 31 27 44 45 41 43 53 54 55
54 55 54 53 52 52 51 52 53 53 54 54 55 54 54 55 56 55 50 47 48 45 41 47 46 46 47 45 39 36 33 31 31 34 37 39 37 38 33 31 39 37 37 37 37 36 40 43 44 47 51 53 53 55
52 53 54 54 53 52 52 53 52 53 54 55 55 55 55 56 56 54 51 47 45 43 45 46 44 44 48 48 42 33 37 39 37 38 40 39 34 37 34 35 37 39 43 41 38 41 43 46 47 50 53 53 55 55
49 50 53 54 53 52 52 53 52 52 54 54 54 55 55 56 55 54 52 50 45 43 42 43 46 44 43 40 40 37 34 39 38 36 32 33 31 37 34 34 37 39 41 39 39 43 46 46 47 46 50 54 57 55
47 49 50 53 53 52 52 53 52 52 54 54 55 55 55 55 54 54 53 51 47 42 41 42 44 41 43 44 42 34 38 37 34 30 30 28 35 36 34 33 34 37 38 39 37 42 41 41 44 50 51 53 56 56
47 49 50 52 53 52 52 53 51 52 54 55 55 54 53 54 54 48 42 48 51 46 43 40 43 45 44 41 36 37 37 38 36 33 32 34 40 34 31 30 31 34 37 40 38 43 41 43 44 48 50 51 53 54
49 50 50 52 53 52 52 52 51 53 54 55 54 53 53 53 50 44 40 45 49 46 43 42 42 45 45 35 37 36 39 38 36 36 35 38 37 35 34 32 35 39 39 40 44 43 42 42 41 45 48 49 53 56
50 50 51 53 52 52 52 51 52 52 54 54 54 53 53 53 50 47 47 50 48 41 47 43 40 41 44 35 35 39 36 37 38 38 41 38 41 36 31 33 35 40 43 44 44 43 42 43 46 46 48 51 53 54
50 51 52 52 52 52 52 50 50 51 51 53 53 53 50 48 43 41 51 52 45 46 42 39 36 37 47 41 40 41 37 33 40 37 37 40 39 37 36 35 36 43 42 41 43 43 43 43 45 46 48 50 50 49
51 52 52 51 51 52 51 50 50 50 50 51 52 45 39 42 49 51 49 45 42 45 46 43 45 42 48 44 42 40 39 36 34 37 41 39 38 41 41 40 40 44 43 43 42 42 43 44 44 46 47 49 49 48
52 51 51 51 51 52 50 50 50 49 51 50 46 44 48 52 47 46 42 43 43 40 41 43 44 38 46 45 44 46 38 39 35 36 37 37 37 38 41 43 44 45 43 43 43 43 43 44 44 45 46 48 47 47
50 50 50 51 52 52 50 50 49 49 49 48 48 50 51 48 44 40 39 40 41 36 38 38 41 40 46 50 47 48 43 43 35 43 40 37 41 41 41 45 45 45 44 44 44 44 45 45 45 46 46 46 46 47
50 50 50 51 52 52 51 50 49 49 50 51 49 49 46 42 36 36 35 37 37 41 40 42 42 45 46 48 47 46 42 40 45 40 38 40 40 42 44 46 46 48 46 46 46 46 47 46 47 46 47 47 47 47
49 50 50 50 51 52 51 50 49 50 49 47 46 37 39 37 38 38 38 38 40 43 45 42 44 42 44 42 45 42 44 45 39 35 35 40 43 41 46 48 48 48 47 47 48 48 47 47 47 48 47 47 46 46
49 49 50 50 51 52 51 50 50 51 49 46 45 38 41 41 41 43 44 45 46 47 45 45 45 44 42 41 43 42 41 38 38 37 38 40 40 42 45 48 49 48 48 48 48 47 47 47 47 47 47 46 46 46
50 50 49 50 52 52 50 49 50 50 48 46 46 43 43 42 41 43 44 45 49 48 48 46 43 39 39 40 41 38 38 37 38 42 42 44 43 45 47 49 50 49 48 47 46 47 47 47 46 46 45 45 45 45
50 48 50 51 51 51 50 48 49 46 46 45 43 44 43 42 41 42 44 46 49 46 43 44 39 39 42 39 39 41 38 37 42 45 49 49 49 47 48 49 49 49 48 47 47 47 46 46 45 44 43 44 44 45
48 51 51 51 50 50 48 48 47 45 43 44 41 41 42 43 43 43 46 48 47 46 46 45 48 43 41 39 40 41 43 46 47 48 50 50 50 49 50 49 50 49 47 47 47 46 45 45 44 44 44 44 43 43
50 51 51 51 49 47 45 45 47 43 43 42 43 43 42 42 43 43 46 49 50 51 49 45 44 43 43 45 44 46 47 47 47 49 50 50 50 50 50 51 51 48 47 46 45 45 45 45 44 43 43 43 42 43
50 50 51 51 50 48 45 44 48 44 42 43 43 43 42 42 43 46 46 50 50 48 46 45 43 43 43 46 46 46 45 48 50 49 50 51 51 50 50 49 49 48 47 46 45 43 43 42 42 43 43 43 42 42
50 50 51 50 48 47 46 45 43 43 43 42 44 45 44 46 48 48 48 50 47 46 43 43 43 45 46 47 47 47 47 48 50 50 49 50 52 51 50 49 49 48 47 46 44 44 43 43 42 43 43 43 43 43
49 51 49 50 47 46 45 46 45 45 43 43 43 43 42 43 44 46 49 45 45 45 45 45 45 45 45 46 46 48 49 48 49 50 47 50 51 51 50 49 49 48 47 47 46 45 45 44 43 43 42 42 42 42
50 50 49 47 45 43 41 45 43 42 40 39 43 41 40 42 43 48 44 45 45 47 46 46 46 47 46 47 48 50 50 50 50 51 51 51 52 53 51 50 49 49 48 48 48 46 46 43 42 43 43 42 42 41
51 48 45 44 43 40 43 41 43 42 43 41 39 39 41 42 45 43 41 43 45 48 49 49 49 48 47 47 47 47 48 52 51 51 52 51 51 52 52 50 50 50 49 49 47 47 45 44 42 43 43 42 41 41
42 41 43 37 45 42 40 41 42 41 40 42 41 40 41 45 42 41 41 44 46 48 49 50 50 49 48 47 48 48 49 51 50 49 51 52 52 52 52 53 53 51 50 47 46 46 45 44 43 42 42 42 41 40
36 39 38 41 41 41 42 41 42 41 40 40 41 44 45 43 41 41 47 49 49 48 50 51 51 50 49 50 50 50 50 51 51 50 50 53 53 52 51 50 50 51 52 52 50 48 47 46 43 42 40 40 39 40
36 37 39 43 43 45 42 43 45 43 41 42 43 44 45 41 42 45 48 48 49 51 53 54 53 52 51 51 51 52 52 52 51 51 54 54 54 55 54 52 51 53 53 52 51 50 48 47 43 42 41 40 39 39
40 40 38 42 42 43 40 41 40 41 42 43 43 43 43 43 42 47 48 50 51 53 54 55 53 51 50 50 51 52 52 52 53 52 52 53 53 54 55 55 55 46 52 52 51 51 50 48 45 42 41 41 40 39
40 43 43 40 41 44 44 43 43 44 45 44 43 43 44 48 51 52 53 53 53 52 50 49 48 48 48 49 50 50 52 52 52 50 50 50 52 52 51 53 53 53 51 46 42 47 50 50 48 45 45 43 40 39
38 42 40 38 41 41 45 48 48 49 49 50 49 49 49 50 52 51 47 47 47 47 46 46 46 45 44 45 47 49 50 50 49 51 50 48 47 47 48 47 46 47 48 48 47 46 45 47 45 46 45 42 39 38
39 38 37 40 44 46 47 51 52 51 52 50 51 49 49 51 51 49 46 47 47 46 45 45 46 46 45 45 45 44 43 44 48 49 49 48 50 49 49 49 49 49 49 48 50 50 49 50 50 49 48 45 39 37
36 35 35 35 43 49 51 50 50 49 50 50 49 50 50 49 45 45 45 46 46 45 44 45 45 46 46 46 47 46 42 45 46 44 45 45 48 52 52 48 48 48 49 47 47 47 47 46 45 45 45 46 44 39
37 36 36 40 45 46 49 47 46 48 49 48 49 49 48 47 42 45 47 46 46 45 45 45 46 46 48 48 48 48 46 46 45 41 39 38 41 46 46 46 47 48 47 46 45 45 45 44 42 42 41 40 39 39

GFSWCAN_sfc_dewp_117.txt.gz
Dewpoint
52 54 55 55 54 52 52 50 51 53 53 53 54 55 54 54 55 54 50 51 47 42 41 43 47 44 42 39 32 33 33 32 35 36 35 41 39 42 37 38 39 39 41 43 38 38 32 43 43 43 45 51 54 58
49 51 53 54 54 53 53 52 52 53 52 53 54 55 55 55 55 55 50 48 51 48 45 45 44 44 46 45 43 40 38 38 36 37 40 41 40 39 38 35 41 42 40 44 42 39 44 46 46 48 51 53 55 58
48 49 50 52 54 53 53 52 53 52 52 52 54 55 55 55 55 55 51 49 47 44 42 43 40 42 44 43 41 37 40 41 40 43 43 41 41 39 35 37 40 43 44 43 42 44 46 47 49 50 54 53 57 58
48 48 48 50 52 53 53 52 53 52 52 53 55 55 55 55 56 55 52 51 48 45 42 42 46 45 46 46 46 42 39 41 41 41 39 39 36 41 38 39 40 41 45 44 42 45 47 47 50 48 53 56 55 56
48 48 48 49 50 53 53 52 53 53 52 54 55 55 55 55 55 55 54 51 49 45 41 39 41 43 44 43 45 46 42 42 40 37 36 35 39 40 38 39 38 42 45 40 34 48 49 48 47 52 55 56 55 55
50 49 49 48 50 52 53 52 52 52 52 54 55 55 54 53 54 52 47 51 52 50 44 39 43 44 45 44 43 42 41 42 40 38 36 37 42 40 36 38 39 42 44 47 43 47 46 47 49 49 53 56 56 55
50 50 50 49 50 52 53 52 52 51 53 54 55 54 53 53 53 47 43 46 51 49 43 41 41 45 45 39 38 39 42 42 41 40 39 42 41 39 37 38 39 40 43 44 45 47 44 46 47 49 51 55 56 56
50 50 50 50 51 53 52 52 51 51 52 54 54 53 53 53 53 50 50 50 49 46 43 45 42 40 47 38 37 41 40 41 42 41 42 41 41 39 39 41 41 42 44 44 46 46 44 48 48 49 51 55 56 57
51 51 50 51 52 52 52 52 50 50 51 51 53 53 51 51 48 43 50 51 48 44 43 43 39 40 47 43 42 41 42 39 42 40 41 42 42 46 43 46 42 46 46 46 47 45 44 46 48 49 50 52 54 57
51 51 51 52 52 51 52 51 50 50 50 50 52 49 46 44 48 52 48 44 43 43 47 45 45 41 50 45 42 40 41 37 35 39 43 42 43 49 49 48 49 48 48 47 45 45 45 45 47 48 49 50 52 55
52 52 52 51 51 51 52 51 51 50 50 50 48 45 50 51 50 48 45 43 41 42 43 44 43 38 49 49 45 48 39 40 38 40 39 42 42 45 49 50 51 48 49 48 47 46 47 48 47 49 49 51 52 54
51 51 50 51 51 52 51 50 50 50 50 48 48 51 52 52 46 42 43 41 41 37 40 38 41 42 48 54 50 49 46 46 38 44 42 44 45 50 48 48 50 50 48 47 47 48 47 48 48 49 50 51 52 54
49 50 50 50 51 52 52 50 50 49 50 51 49 48 47 44 39 39 36 39 39 42 42 42 41 44 51 52 50 48 41 43 47 43 43 44 48 48 50 48 48 50 49 48 47 48 48 49 50 50 51 52 51 52
48 49 50 50 50 52 52 51 49 49 49 46 46 37 42 38 39 39 39 40 42 44 48 42 45 44 47 47 48 42 43 44 41 38 37 42 51 53 51 50 49 49 49 48 48 49 49 50 50 51 51 51 51 51
49 49 49 50 50 52 51 50 49 51 49 46 46 39 40 41 41 44 46 46 49 51 49 48 46 46 46 44 46 44 42 38 38 37 39 46 51 50 49 50 50 49 50 49 50 50 50 50 50 50 51 50 51 51
49 49 48 50 51 52 51 50 50 51 49 46 46 43 43 43 42 43 46 47 51 52 51 50 44 43 41 44 41 39 37 37 38 43 45 47 52 53 51 50 52 52 52 50 50 50 50 50 50 50 50 50 51 50
50 48 50 51 51 52 50 48 49 47 46 44 42 44 44 43 43 43 45 48 53 51 47 47 40 38 43 41 39 41 38 41 48 44 52 53 54 55 55 52 52 53 53 52 52 52 52 51 50 49 49 50 49 50
48 51 51 51 51 49 47 48 47 46 43 43 43 41 44 44 43 46 46 51 51 51 50 45 48 42 41 37 37 40 43 45 48 49 51 54 56 56 54 54 55 54 53 53 52 52 51 50 49 48 50 49 49 49
50 51 52 51 50 47 45 46 47 43 43 43 43 43 43 43 44 45 47 51 53 54 52 50 45 42 43 48 48 46 50 52 52 54 55 56 56 55 55 55 55 53 53 52 51 48 49 50 48 47 46 47 45 46
50 51 52 51 51 48 45 45 48 45 42 44 44 43 43 43 45 45 44 49 52 50 48 46 44 43 44 49 49 48 48 53 53 53 54 56 55 54 54 53 55 53 50 50 49 47 49 48 47 46 46 46 45 45
49 50 51 51 48 48 46 45 44 44 43 43 44 44 44 46 48 50 49 51 49 47 44 46 45 46 50 52 49 51 50 51 52 52 52 54 56 55 55 54 54 49 48 47 46 46 45 45 45 46 46 46 46 45
50 51 50 50 47 46 45 45 45 48 44 43 44 44 44 46 48 49 51 47 45 44 47 47 48 48 49 50 50 51 52 53 53 53 48 51 55 54 53 50 49 50 48 48 47 46 46 46 45 46 45 45 44 44
50 50 48 47 44 42 41 46 44 44 42 41 43 42 42 44 45 50 48 46 46 49 49 49 50 52 50 52 52 53 53 52 52 54 55 55 57 57 54 50 50 50 49 49 48 47 47 45 44 45 44 43 43 43
50 47 45 44 43 41 44 43 45 43 44 43 41 39 42 44 49 48 44 44 48 51 52 53 52 51 51 52 49 49 51 52 53 56 54 54 53 54 53 51 50 50 50 50 49 48 48 46 43 44 44 43 43 42
42 42 43 38 45 41 40 40 42 43 41 43 42 42 45 48 45 44 44 48 51 53 53 54 53 53 51 51 53 51 53 50 49 49 53 52 51 55 55 56 55 52 52 50 49 49 48 47 45 44 44 44 44 43
37 40 39 40 42 42 42 41 42 42 41 41 43 47 48 46 42 42 47 50 51 51 53 53 51 51 52 53 54 55 55 55 55 52 53 55 53 50 50 50 51 55 55 52 55 52 50 49 46 46 44 43 41 42
36 37 40 43 43 44 44 44 45 44 42 42 45 45 45 41 42 46 49 52 53 54 55 55 54 52 51 51 52 52 54 54 54 53 57 56 56 57 55 53 53 56 56 55 54 52 51 49 48 46 47 45 44 43
40 41 39 43 43 45 41 42 42 42 43 45 44 43 42 43 45 50 52 53 54 55 55 54 54 52 52 53 53 53 56 55 55 54 53 55 56 58 58 57 57 48 57 55 53 53 52 52 51 50 48 49 45 44
40 42 43 41 41 44 44 43 44 45 47 46 46 45 47 50 52 52 53 54 54 53 50 48 47 48 51 53 54 55 55 55 54 52 52 53 55 55 55 57 56 56 56 53 46 49 52 51 51 51 50 50 47 43
38 40 41 39 40 41 44 48 49 50 50 50 51 51 51 52 53 50 47 47 48 48 46 46 46 46 46 46 48 50 51 50 49 52 51 48 48 50 48 47 48 49 49 49 49 49 43 49 47 49 48 48 49 47
40 39 38 41 42 46 47 50 52 52 52 50 51 50 50 52 53 48 47 48 46 46 45 45 45 45 44 44 44 44 43 45 48 49 49 47 45 46 46 47 47 47 47 47 48 47 46 47 47 47 47 46 46 47
38 37 36 38 43 48 51 50 49 49 50 50 49 51 51 51 46 44 46 47 46 45 45 46 45 46 47 46 46 45 42 45 44 43 44 44 45 50 50 48 48 47 47 47 48 48 48 48 49 49 48 48 47 46
38 37 43 44 44 45 48 48 47 48 49 48 48 48 48 46 42 46 49 48 46 45 45 46 46 46 48 48 49 48 45 47 46 39 39 41 41 45 47 48 48 48 48 47 46 47 48 47 46 47 47 46 44 43